     2.10           OBSERVATION DATA    G (GPS)             RINEX VERSION / TYPE
teqc 2005May6 SOPAC 20050707 00:30:28UTC                    PGM / RUN BY / DATE
Linux 2.4.20-8|Pentium IV|gcc|Linux|486/DX+                 COMMENT
BIT 2 OF LLI FLAGS DATA COLLECTED UNDER A/S CONDITION       COMMENT
P 1430                                                      MARKER NAME
143P                                                        MARKER NUMBER
Tony Carruthers                                             OBSERVER / AGENCY
0220188099 TRIMBLE 4700 1.30                                REC # / TYPE / VERS
0220187156 TRM33429.00+GP NONE                              ANT # / TYPE
 -2594485.0000 -4161602.0000  4064408.0000                  APPROX POSITION XYZ
        2.0000        0.0000        0.0000                  ANTENNA: DELTA H/E/N
     1     1                                                WAVELENGTH FACT L1/2
     6    L1    L2    C1    P2    P1    D1                  # / TYPES OF OBSERV
    15.0000                                                 INTERVAL
Northern California Height Modernization 2004               COMMENT
                                                            COMMENT
SOPAC - Scripps Orbit and Permanent Array Center            COMMENT
IGPP - Institute of Geophysics and Planetary Physics        COMMENT
SIO - Scripps Institution of Oceanography                   COMMENT
UCSD - University of California, San Diego                  COMMENT
                                                            COMMENT
email: archive@gpsmail.ucsd.edu                             COMMENT
ftp://garner.ucsd.edu                                       COMMENT
http://sopac.ucsd.edu                                       COMMENT
                                                            COMMENT
                                                            COMMENT
Approximate Lat, Lon : 39.840, -121.941                     COMMENT
                                                            COMMENT
SNR is mapped to RINEX snr flag value [0-9]                 COMMENT
L1 & L2: 2-19 dBHz = 1, 20-27 dBHz = 2, 28-31 dBHz = 3      COMMENT
32-35 dBHz = 4, 36-38 dBHz = 5, 39-41 dBHz = 6              COMMENT
42-44 dBHz = 7, 45-48 dBHz = 8, >= 49 dBHz = 9              COMMENT
  2004     9     9    21     0   45.0000000     GPS         TIME OF FIRST OBS
                                                            END OF HEADER
 04  9  9 21  0 45.0000000  0  5G 3G 8G13G23G27
     -6771.40158     -8815.14153  22976731.9384   22976728.7814
       153.9844
    -65984.14458    -50230.53554  22790404.4774   22790402.1844
      1617.8444
     29620.86859     15502.88156  20099110.8444   20099105.4574
      -718.9374
    128987.38259     83126.62156  21312171.5164   21312164.5394
     -3154.6414
    -16231.92759    -15277.83856  21387060.5634   21387056.1994
       393.0474
 04  9  9 21  1  0.0000000  0  7G 3G 8G13G16G19G23G27
     -9017.09148    -10565.00143  22976304.5234   22976301.3364
       145.1884
    -90229.60648    -69123.07044  22785790.8834   22785787.3364
      1614.6094
     40460.04449     23948.98546  20101173.5554   20101168.2974
      -726.5944
    153009.06656    107034.70152  24019745.0084   24019742.3094
     -4230.4694
    -83615.58556    -56871.24352  23942445.8914   23942442.7974
      1709.1724
    176354.10149    120035.73446  21321185.1884   21321178.4654
     -3161.1874
    -22104.79649    -19854.09446  21385943.1024   21385938.7774
       389.6254
 04  9  9 21  1 15.0000000  0  7G 3G 8G13G16G19G23G27
    -11114.38848    -12199.24743  22975904.6334   22975902.2504
       134.9694
   -114411.29448    -87965.93244  22781189.4694   22781186.1134
      1610.1564
     51431.05249     32497.80646  20103261.0634   20103255.5274
      -735.6414
    216506.39345    156513.01442  24031827.1644   24031824.7584
     -4235.2974
   -109214.59047    -76818.48242  23937574.7584   23937570.9694
      1704.5314
    223834.58049    157033.46946  21330220.6564   21330213.9344
     -3169.0164
    -27910.61549    -24378.10646  21384838.1724   21384833.9804
       384.8914
 04  9  9 21  1 30.0000000  0  7G 3G 8G13G16G19G23G27
    -13049.72748    -13707.30143  22975536.8754   22975534.2114
       123.3754
   -138515.81648   -106748.65844  22776601.9224   22776599.2774
      1604.1414
     62547.27749     41159.79347  20105376.6724   20105370.6374
      -746.1254
    280086.09246    206055.62442  24043927.2504   24043923.7854
     -4241.5784
   -134733.96847    -96703.66442  23932718.2974   23932715.5004
      1698.4694
    271441.98549    194130.11546  21339279.8054   21339273.1174
     -3178.2814
    -33636.01649    -28839.46346  21383748.3364   21383744.4844
       378.7974
 04  9  9 21  1 45.0000000  0  7G 3G 8G13G16G19G23G27
    -14809.12748    -15078.24243  22975202.2894   22975199.3674
       111.3594
   -162529.37548   -125460.49844  22772032.7114   22772029.6484
      1597.8134
     73822.75749     49945.87546  20107522.3594   20107516.9144
      -757.1254
    343761.53045    255672.84242  24056043.6804   24056041.3634
     -4248.2504
   -160159.51847   -116515.74542  23927880.1724   23927876.5784
      1691.7974
    319190.09249    231336.40046  21348365.9144   21348359.7154
     -3187.9694
    -39267.17549    -33227.37446  21382676.9534   21382672.8594
       372.1724
 04  9  9 21  2  0.0000000  0  7G 3G 8G13G16G19G23G27
    -16383.51848    -16305.02643  22974902.1954   22974900.0394
        98.5004
   -186443.07248   -144094.52344  22767481.8134   22767479.1214
      1590.6254
     85266.50749     58863.06646  20109699.7194   20109694.2934
      -768.8594
    407541.25246    305371.22842  24068180.6174   24068178.3794
     -4255.5944
   -185482.05447   -136247.56042  23923061.2424   23923058.1094
      1684.4844
    367087.70549    268659.18246  21357480.9694   21357474.3324
     -3198.4224
    -44795.35349    -37535.04046  21381624.8984   21381621.0864
       364.7974
 04  9  9 21  2 15.0000000  0  7G 3G 8G13G16G19G23G27
    -17762.76548    -17379.76843  22974640.0394   22974637.5984
        85.3134
   -210247.01648   -162642.99844  22762952.4144   22762949.0514
      1583.2974
     96888.41549     67919.10047  20111911.3834   20111905.9804
      -780.7814
    471434.81046    355158.40142  24080339.5554   24080336.4844
     -4263.3284
   -210691.26447   -155891.05642  23918264.2974   23918261.0944
      1676.7664
    415144.58049    306106.06546  21366625.4064   21366618.9924
     -3209.1254
    -50210.74849    -41754.82046  21380594.4924   21380590.5904
       357.2194
 04  9  9 21  2 30.0000000  0  7G 3G 8G13G16G19G23G27
    -18941.98748    -18298.62843  22974415.5864   22974413.0234
        71.8594
   -233936.41548   -181102.23844  22758443.9924   22758441.1174
      1575.4384
    108693.27849     77117.68947  20114157.6954   20114152.2234
      -793.1564
    535446.47146    405037.55242  24092520.4304   24092517.7034
     -4271.3284
   -235782.17947   -175442.36142  23913489.4924   23913486.4264
      1668.7504
    463365.23149    343680.56946  21375801.7974   21375795.2624
     -3220.2034
    -55508.67849    -45883.08046  21379586.1414   21379582.2544
       349.2194
 04  9  9 21  2 45.0000000  0  7G 3G 8G13G16G19G23G27
    -19916.90348    -19058.31643  22974230.2504   22974226.7624
        58.0474
   -257507.01648   -199468.90044  22753959.0474   22753956.1724
      1567.3134
    120685.73549     86462.45847  20116439.9064   20116434.4144
      -805.8284
    599580.22846    455011.85942  24104725.4064   24104722.0904
     -4279.7344
   -260750.29547   -194897.99143  23908738.5084   23908735.0744
      1660.3594
    511753.78249    381385.89846  21385009.8204   21385003.1414
     -3231.5784
    -60684.95649    -49916.51946  21378601.3204   21378597.4264
       340.9844
 04  9  9 21  3  0.0000000  0  7G 3G 8G13G16G19G23G27
    -20685.03448    -19656.86943  22974083.6724   22974080.8404
        44.2194
   -280957.06648   -217741.64544  22749496.5944   22749493.6024
      1559.2194
    132867.53449     95954.77247  20118758.2424   20118752.5394
      -818.5004
    663837.80146    505082.64342  24116953.4144   24116949.7274
     -4288.0474
   -285593.04247   -214255.92642  23904011.2424   23904007.5394
      1651.8754
    560312.23549    419223.62546  21394250.0314   21394243.7504
     -3242.9534
    -65737.51449    -53853.57646  21377639.7664   21377635.8404
       332.6094
 04  9  9 21  3 15.0000000  0  7G 3G 8G13G16G19G23G27
    -21251.75748    -20098.44943  22973976.1644   22973972.7664
        31.2194
   -304291.85848   -235924.56144  22745056.0004   22745052.8134
      1551.9844
    145233.33549    105590.44947  20121111.3674   20121106.2584
      -830.4224
    728213.38246    555245.43742  24129202.7664   24129200.1374
     -4295.4374
   -310315.55847   -233520.17743  23899306.7734   23899303.0434
      1644.3594
    609035.03149    457189.41346  21403521.5864   21403515.4844
     -3253.4844
    -70671.95849    -57698.59146  21376700.5784   21376697.1994
       325.1884
 04  9  9 21  3 30.0000000  0  7G 3G 8G13G16G19G23G27
    -21616.20648    -20382.44942  22973906.5864   22973903.3014
        17.1414
   -327510.64448   -254017.09944  22740637.5394   22740634.3284
      1543.6564
    157784.02049    115370.20247  20123499.3984   20123493.7814
      -843.2344
    792707.17547    605500.28242  24141476.4454   24141473.3054
     -4304.0004
   -334916.90048   -252690.00443  23894624.9144   23894621.4534
      1635.7034
    657922.58849    495283.58046  21412824.8834   21412818.3014
     -3265.0474
    -75487.56949    -61451.01046  21375784.5554   21375780.5434
       316.7034
 04  9  9 21  3 45.0000000  0  7G 3G 8G13G16G19G23G27
    -21782.49148    -20512.03142  22973874.7584   22973872.1414
         4.7034
   -350617.61648   -272022.48744  22736240.8054   22736237.3284
      1536.9534
    170515.42649    125290.77147  20125922.4614   20125916.7344
      -854.5474
    857314.58846    655843.69242  24153770.8674   24153768.2074
     -4310.5164
   -359401.06248   -271768.55842  23889965.4454   23889962.0824
      1628.6254
    706970.58249    533502.77346  21422158.5234   21422152.0004
     -3274.9534
    -80188.75749    -65114.26846  21374889.6724   21374885.5274
       309.8914
 04  9  9 21  4  0.0000000  0  7G 3G 8G13G16G19G23G27
    -21757.06948    -20492.22143  22973879.6644   22973876.7154
        -8.2034
   -373619.70948   -289946.16544  22731863.1174   22731860.0904
      1529.8914
    183420.92949    135347.00247  20128378.1644   20128372.2504
      -866.2664
    922028.75546    706270.27742  24166085.5474   24166082.2424
     -4317.8754
   -383774.22348   -290760.59143  23885327.8754   23885323.5704
      1621.1094
    756172.21149    571841.67146  21431521.0704   21431515.0124
     -3285.2814
    -84782.24949    -68693.60146  21374015.6884   21374011.4414
       302.5784
 04  9  9 21  4 15.0000000  0  7G 3G 8G13G16G19G23G27
    -21537.79848    -20321.33043  22973921.6414   22973918.9614
       -20.6564
   -396514.96148   -307786.58444  22727506.4694   22727503.5084
      1523.1724
    196502.47049    145540.42046  20130867.5554   20130861.8834
      -877.5624
    986851.07846    756781.13842  24178420.8834   24178417.9224
     -4324.7974
   -408034.29347   -309664.49143  23880710.9614   23880707.3484
      1613.8594
    805529.17049    610301.61846  21440913.8754   21440907.2704
     -3295.2814
    -89266.25449    -72187.62046  21373162.3834   21373158.0984
       295.6884
 04  9  9 21  4 30.0000000  0  6G 3G 8G13G19G23G27
    -21130.65648    -20004.07243  22973998.7894   22973996.4964
       -33.5624
   -419309.54348   -325548.56644  22723168.5164   22723165.6524
      1516.2034
    209754.07149    155866.34046  20133389.3054   20133383.6724
      -889.2194
   -432186.99847   -328484.73443  23876115.4534   23876111.4654
      1606.5004
    855035.27949    648877.77146  21450334.3054   21450327.5944
     -3305.4534
    -93646.89749    -75601.09846  21372328.7034   21372324.6134
       288.5164
 04  9  9 21  4 45.0000000  0  6G 3G 8G13G19G23G27
    -20532.91248    -19538.27943  22974113.1174   22974110.0744
       -45.6564
   -442000.55048   -343229.84744  22718850.6644   22718847.6054
      1509.8444
    223178.43849    166326.88146  20135944.0164   20135937.8594
      -900.1564
   -456229.35548   -347219.01343  23871539.5554   23871536.2854
      1599.5944
    904692.95449    687572.04446  21459784.0084   21459777.0824
     -3315.0004
    -97921.58049    -78932.01046  21371515.2424   21371511.2154
       282.0164
 04  9  9 21  5  0.0000000  0  6G 3G 8G13G19G23G27
    -19752.26348    -18929.97843  22974261.4454   22974258.4494
       -58.3914
   -464596.08449   -360836.72444  22714550.5704   22714547.1454
      1502.9694
    236767.87349    176916.05146  20138529.8054   20138524.0744
      -911.6414
   -480168.99047   -365873.22243  23866984.4534   23866980.7734
      1592.3594
    954494.20949    726378.17646  21469261.0234   21469254.1294
     -3325.0164
   -102098.27149    -82186.56846  21370720.2584   21370716.3984
       275.0314
 04  9  9 21  5 15.0000000  0  6G 3G 8G13G19G23G27
    -18783.98748    -18175.45643  22974445.9694   22974442.9964
       -70.7814
   -487091.76948   -378365.78944  22710270.1024   22710266.9344
      1496.4224
    250526.88749    187637.35746  20141147.9064   20141142.3204
      -922.9534
   -504000.96047   -384443.55443  23862448.9694   23862445.4384
      1585.2504
   1004443.47349    765299.65946  21478765.7974   21478759.3794
     -3334.8914
   -106172.50249    -85361.28347  21369945.1564   21369940.9734
       268.1414
 04  9  9 21  5 30.0000000  0  6G 3G 8G13G19G23G27
    -17628.73948    -17275.27743  22974665.0474   22974662.7194
       -83.2194
   -509488.34448   -395817.63344  22706008.0554   22706005.3914
      1489.8134
    264454.78549    198490.27747  20143798.1484   20143792.6094
      -934.1094
   -527725.79147   -402930.41443  23857933.9144   23857930.2344
      1578.0784
   1054539.82349    804335.75146  21488298.8054   21488292.1094
     -3344.6414
   -110145.19149    -88456.87746  21369189.0314   21369185.3134
       261.5004
 04  9  9 21  5 45.0000000  0  6G 3G 8G13G19G23G27
    -16295.14748    -16236.10043  22974919.5864   22974916.1564
       -94.5944
   -531794.28148   -413198.85544  22701762.9924   22701760.4454
      1484.2344
    278542.96849    209468.07147  20146479.3984   20146473.6054
      -944.3444
   -551351.91247   -421340.34543  23853438.1564   23853434.2894
      1572.0634
   1104774.20549    843479.38746  21497858.5084   21497851.4614
     -3353.3444
   -114025.23749    -91480.27146  21368451.1564   21368446.7304
       255.7814
 04  9  9 21  6  0.0000000  0  6G 3G 8G13G19G23G27
    -14784.97548    -15059.34743  22975206.2274   22975203.4804
      -106.5004
   -554011.90648   -430511.25444  22697535.6884   22697532.8014
      1478.3284
    292789.39349    220569.16947  20149190.2974   20149184.5744
      -954.9534
   -574880.88947   -439674.56742  23848960.0554   23848957.1024
      1565.4384
   1155144.63949    882729.05146  21507443.5164   21507436.6994
     -3362.4694
   -117814.47149    -94432.90646  21367729.5944   21367725.6914
       249.6724
 04  9  9 21  6 15.0000000  0  6G 3G 8G13G19G23G27
    -13096.24848    -13743.44443  22975527.5554   22975524.7114
      -118.2664
   -576139.26348   -447753.33044  22693325.1414   22693321.5704
      1472.3594
    307196.03449    231795.13747  20151931.4694   20151926.2774
      -965.5784
   -598310.54747   -457931.38942  23844502.2664   23844498.1054
      1558.9384
   1205652.95649    922086.15146  21517055.0084   21517048.2974
     -3371.5784
   -121511.13649    -97313.42147  21367026.1174   21367021.7114
       243.5634
 04  9  9 21  6 30.0000000  0  6G 3G 8G13G19G23G27
    -11224.66248    -12285.08542  22975883.6094   22975880.9224
      -131.1414
   -598172.22948   -464921.82344  22689131.9924   22689128.8284
      1465.5474
    321767.04849    243149.17047  20154704.5474   20154699.0354
      -977.0474
   -621636.57746   -476107.49143  23840063.2814   23840059.7274
      1551.3914
   1256302.91849    961553.63346  21526693.2114   21526686.5044
     -3381.5944
   -125111.33849   -100118.77046  21366341.3594   21366337.1094
       236.6094
 04  9  9 21  6 45.0000000  0  6G 3G 8G13G19G23G27
     -9181.95747    -10693.34342  22976272.5944   22976269.5274
      -141.7504
   -620122.65548   -482026.02144  22684955.1884   22684951.8524
      1460.7664
    336490.73049    254622.15447  20157506.2344   20157500.9414
      -986.5314
   -644870.42447   -494211.73143  23835642.1174   23835638.4454
      1546.0314
   1307082.54949   1001122.15046  21536356.1954   21536349.7974
     -3389.5004
   -128626.93249   -102858.16647  21365672.1254   21365668.2274
       231.7034
 04  9  9 21  7  0.0000000  0  6G 3G 8G13G19G23G27
     -6969.33048     -8969.23542  22976693.3594   22976690.9344
      -153.1414
   -641991.94548   -499066.99844  22680793.7894   22680790.5944
      1455.2814
    351365.72649    266213.08047  20160337.0474   20160331.7034
      -996.6094
   -668013.16347   -512245.00043  23831238.3054   23831234.0744
      1539.7504
   1357990.22749   1040790.44846  21546043.7504   21546036.8444
     -3398.0624
   -132059.35849   -105532.77946  21365019.1884   21365015.0554
       226.1564
 04  9  9 21  7 15.0000000  0  6G 3G 8G13G19G23G27
     -4591.42348     -7116.30243  22977146.0704   22977143.0944
      -164.0164
   -663784.91948   -516048.51044  22676646.3914   22676643.0474
      1450.4224
    366387.38649    277918.26546  20163195.3834   20163189.9614
     -1006.2664
   -691069.19946   -530210.67742  23826850.4384   23826847.2154
      1534.2974
   1409021.13849   1080554.76846  21555754.7664   21555748.4024
     -3406.1254
   -135413.41249   -108146.31746  21364381.1254   21364376.9614
       221.0314
 04  9  9 21  7 30.0000000  0  6G 3G 8G13G19G23G27
     -2046.24748     -5133.05943  22977630.6724   22977627.2974
      -175.3124
   -685499.89848   -532969.23644  22672514.2194   22672511.3834
      1444.9534
    381557.52149    289739.14846  20166082.1644   20166076.9844
     -1016.3444
   -714036.46246   -548107.17443  23822480.4454   23822476.1334
      1528.0474
   1460176.97649   1120416.42946  21565489.4614   21565482.8134
     -3414.6254
   -138687.31149   -110697.40146  21363758.0004   21363753.6294
       215.5164
 04  9  9 21  7 45.0000000  0  6G 3G 8G13G19G23G27
       663.23348     -3021.77843  22978146.1724   22978143.0664
      -186.5004
   -707140.09248   -549831.71044  22668396.0394   22668392.5594
      1439.7344
    396873.10249    301673.37346  20168996.5864   20168990.8834
     -1026.2974
   -736917.86147   -565936.78543  23818126.1644   23818121.7894
      1522.0634
   1511454.29849   1160372.74946  21575246.7664   21575240.3914
     -3422.9694
   -141884.51349   -113188.72247  21363149.3134   21363144.9264
       210.1724
 04  9  9 21  8  0.0000000  0  6G 3G 8G13G19G23G27
      3543.71548      -777.24243  22978694.2814   22978691.1214
      -197.6414
   -728698.86749   -566630.71844  22664293.5394   22664289.7664
      1434.6564
    412340.79549    313726.11546  20171940.0554   20171935.0554
     -1036.1724
   -759706.38447   -583694.02643  23813789.5634   23813785.8444
      1516.2814
   1562859.69049   1200428.88546  21585029.1414   21585022.4344
     -3431.1724
   -144998.25749   -115614.99446  21362557.0864   21362552.8054
       204.8754
 04  9  9 21  8 15.0000000  0  6G 3G 8G13G19G23G27
      6589.94648      1596.46643  22979274.4774   22979271.4884
      -208.3594
   -750181.51848   -583370.40544  22660205.4304   22660202.0514
      1429.9534
    427955.32149    325893.28146  20174911.3594   20174905.9224
     -1045.5624
   -782406.88547   -601382.65743  23809469.5314   23809465.5394
      1510.6564
   1614387.64649   1240580.51646  21594834.6094   21594828.0474
     -3439.0004
   -148034.03049   -117980.52346  21361979.1564   21361974.5944
       200.0004
 04  9  9 21  8 30.0000000  0  6G 3G 8G13G19G23G27
      9797.74848      4096.07043  22979884.5084   22979881.8444
      -219.5624
   -771592.45049   -600054.21444  22656131.0164   22656128.0004
      1424.7344
    443712.36849    338171.48746  20177910.0314   20177904.5864
     -1055.5164
   -805023.60647   -619006.01643  23805165.5944   23805161.7274
      1504.7034
   1666033.59949   1280824.08446  21604662.2814   21604655.8094
     -3447.3124
   -150996.24449   -120288.72347  21361415.5634   21361411.5594
       194.7814
 04  9  9 21  8 45.0000000  0  6G 3G 8G13G19G23G27
     13174.84248      6727.58543  22980527.5164   22980524.2814
      -230.2194
   -792924.03148   -616676.19444  22652071.5234   22652069.1844
      1420.0474
    459619.45349    350566.61946  20180936.7814   20180931.3714
     -1064.9844
   -827548.61647   -636557.88643  23800878.6414   23800875.8954
      1499.1564
   1717804.90349   1321165.34146  21614514.0784   21614507.6524
     -3455.0624
   -153877.54549   -122533.87347  21360867.1174   21360863.1374
       189.9384
 04  9  9 21  9  0.0000000  0  6G 3G 8G13G19G23G27
     16714.10048      9485.45843  22981200.6644   22981197.6214
      -241.9534
   -814183.46448   -633241.96544  22648026.2424   22648023.1684
      1414.3754
    475669.47449    363073.13046  20183991.2974   20183985.6094
     -1075.3594
   -849988.76247   -654043.65343  23796608.7504   23796605.6884
      1492.6094
   1769694.29949   1361598.60146  21624388.5864   21624381.6214
     -3463.8124
   -156685.09649   -124721.57147  21360332.8594   21360328.7114
       184.1724
 04  9  9 21  9 15.0000000  0  6G 3G 8G13G19G23G27
     20421.02448     12373.96743  22981906.2584   22981903.0704
      -252.3754
   -835365.81348   -649747.66844  22643995.5234   22643991.9454
      1409.9844
    491867.81549    375695.22147  20187073.6024   20187067.6524
     -1084.4694
   -872338.49546   -671458.98143  23792356.0004   23792352.1484
      1487.2504
   1821706.85549   1402127.82846  21634286.3834   21634279.7034
     -3471.2344
   -159413.67649   -126847.72946  21359813.8134   21359809.5634
       179.6414
 04  9  9 21  9 30.0000000  0  6G 3G 8G13G19G23G27
     24287.44048     15386.76243  22982641.1884   22982638.2584
      -262.9064
   -856479.04348   -666199.51144  22639977.7734   22639973.9184
      1405.4534
    508206.32449    388426.53047  20190182.4534   20190176.8164
     -1093.7194
   -894605.79946   -688810.06843  23788118.8364   23788114.6954
      1481.9844
   1873833.98949   1442746.34746  21644205.5634   21644199.1024
     -3478.7504
   -162071.67649   -128918.88746  21359308.1024   21359303.7464
       175.0474
 04  9  9 21  9 45.0000000  0  6G 3G 8G13G19G23G27
     28311.79348     18522.63743  22983407.3364   22983403.6604
      -273.3594
   -877525.09148   -682598.98044  22635973.1094   22635969.7114
      1401.0784
    524683.32449    401265.73746  20193318.1484   20193312.6454
     -1102.8754
   -916792.06747   -706098.00243  23783896.8204   23783892.8054
      1476.6094
   1926074.06049   1483452.87346  21654146.6724   21654140.6294
     -3486.2664
   -164660.94949   -130936.48147  21358815.0864   21358811.0434
       170.5314
 04  9  9 21 10  0.0000000  0  6G 3G 8G13G19G23G27
     32491.19948     21779.32443  22984202.6414   22984198.9774
      -283.6874
   -898507.02548   -698948.50844  22631979.7194   22631976.6994
      1396.8444
    541295.83049    414210.55046  20196479.1724   20196474.0164
     -1111.8594
   -938899.89647   -723324.83743  23779689.7274   23779685.5664
      1471.4384
   1978423.72149   1524244.77746  21664108.3204   21664101.8714
     -3493.5314
   -167184.41049   -132902.80446  21358334.6334   21358330.5944
       166.1884
 04  9  9 21 10 15.0000000  0  6G 3G 8G13G19G23G27
     36829.42748     25159.74843  22985028.4064   22985025.4804
      -294.7974
   -919421.08748   -715245.15444  22628000.1254   22627997.6954
      1391.6884
    558047.53549    427263.81746  20199667.2344   20199662.1094
     -1121.7814
   -960925.43047   -740487.51943  23775498.5234   23775494.0434
      1465.2814
   2030886.43549   1565124.78246  21674091.6334   21674085.4844
     -3501.6094
   -169638.59949   -134815.15146  21357867.9224   21357863.9304
       160.9224
 04  9  9 21 10 30.0000000  0  6G 3G 8G13G19G23G27
     41329.82148     28666.56043  22985884.7584   22985882.0984
      -305.8284
   -940263.99048   -731486.34944  22624033.8984   22624031.0434
      1386.7974
    574941.56449    440427.99747  20202882.0944   20202876.4224
     -1131.4224
   -982865.25847   -757583.40743  23771322.7274   23771319.1174
      1459.3284
   2083465.33049   1606095.31946  21684097.3524   21684090.9224
     -3509.5314
   -172020.31449   -136671.02147  21357414.5944   21357410.3364
       156.0004
 04  9  9 21 10 45.0000000  0  6G 3G 8G13G19G23G27
     45990.79148     32298.50043  22986771.9614   22986769.0124
      -315.1724
   -961037.84549   -747673.74344  22620080.8054   22620077.9224
      1383.4534
    591976.55549    453702.01446  20206123.6174   20206118.1764
     -1139.4844
  -1004720.53647   -774613.42043  23767164.2194   23767160.4184
      1455.0474
   2136158.57649   1647154.95946  21694124.6334   21694117.7774
     -3515.8444
   -174331.39449   -138471.85347  21356974.4924   21356970.3954
       152.5784
 04  9  9 21 11  0.0000000  0  6G 3G 8G13G19G23G27
     50804.72448     36049.60743  22987687.9224   22987684.9454
      -326.4694
   -981750.09448   -763813.12444  22616139.0234   22616136.2194
      1378.3444
    609144.60149    467079.71847  20209390.5084   20209384.8874
     -1149.3444
  -1026498.70847   -791583.39043  23763020.2814   23763015.9264
      1448.7504
   2188958.27949   1688297.55446  21704171.9774   21704165.3524
     -3523.9224
   -176579.60049   -140223.69546  21356546.8444   21356542.5164
       147.3444
 04  9  9 21 11 15.0000000  0  6G 3G 8G13G19G23G27
     55775.02248     39922.58743  22988633.4774   22988630.7814
      -337.0164
  -1002397.64548   -779902.09944  22612209.9064   22612206.5274
      1373.9694
    626448.97049    480563.62747  20212683.4844   20212678.1844
     -1158.6094
  -1048196.36946   -808490.59643  23758891.6254   23758886.6524
      1443.3134
   2241867.38449   1729525.40146  21714240.3914   21714233.9734
     -3531.3124
   -178761.84649   -141924.14047  21356131.8204   21356127.5474
       142.8594
 04  9  9 21 11 30.0000000  0  6G 3G 8G13G19G23G27
     60909.21748     43923.27643  22989610.2114   22989607.5634
      -347.6874
  -1022973.08148   -795934.88044  22608294.3834   22608291.6134
      1369.3134
    643897.52749    494159.91246  20216003.9304   20215998.2584
     -1168.0474
  -1069805.66047   -825328.93443  23754779.1024   23754774.8634
      1437.7194
   2294893.31849   1770844.27446  21724330.9144   21724324.5634
     -3538.9374
   -180870.67749   -143567.37347  21355730.3054   21355726.1294
       138.1724
 04  9  9 21 11 45.0000000  0  6G 3G 8G13G19G23G27
     66197.33748     48043.90643  22990616.6414   22990613.8094
      -357.7664
  -1043486.45448   -811919.31144  22604390.8134   22604387.6174
      1365.4534
    661480.01549    507860.55646  20219349.4774   20219344.4264
     -1176.7344
  -1091336.44547   -842106.13443  23750681.6174   23750677.3054
      1432.7504
   2348025.64749   1812246.05046  21734441.5314   21734435.1054
     -3545.8124
   -182916.20549   -145161.27547  21355341.1484   21355336.6954
       134.2664
 04  9  9 21 12  0.0000000  0  6G 3G 8G13G19G23G27
     71635.89048     52281.75643  22991651.3054   22991648.3164
      -368.1874
  -1063941.48848   -827858.27344  22600498.8754   22600495.5554
      1361.1094
    679192.71849    521662.65246  20222720.4224   20222714.5514
     -1185.7814
  -1112791.91547   -858824.60443  23746599.0634   23746594.6564
      1427.1254
   2401260.70249   1853727.87546  21744572.1414   21744565.3914
     -3553.0474
   -184902.34349   -146708.91947  21354963.1254   21354959.1644
       129.8134
 04  9  9 21 12 15.0000000  0  6G 3G 8G13G19G23G27
     77232.77748     56642.99943  22992716.4924   22992714.2194
      -378.3594
  -1084330.47448   -843745.76044  22596618.4924   22596615.7074
      1357.2034
    697043.54949    535572.39246  20226117.0864   20226111.3594
     -1194.5784
  -1134164.01947   -875478.14343  23742532.0864   23742527.4614
      1422.1254
   2454606.11349   1895295.71146  21754723.2274   21754716.7194
     -3559.9064
   -186821.24249   -148204.14747  21354597.9614   21354593.6374
       125.8134
 04  9  9 21 12 30.0000000  0  6G 3G 8G13G19G23G27
     82979.23248     61120.77643  22993810.2814   22993807.4384
      -387.8754
  -1104661.95848   -859588.45544  22592749.2664   22592746.1804
      1353.6724
    715023.74149    549582.93647  20229538.8594   20229533.2304
     -1202.8594
  -1155461.23747   -892073.32643  23738478.7344   23738474.6214
      1417.5314
   2508052.74449   1936942.38646  21764893.9384   21764887.5354
     -3566.3594
   -188681.69149   -149653.85647  21354244.2034   21354239.5904
       122.2344
 04  9  9 21 12 45.0000000  0  6G 3G 8G13G19G23G27
     88883.19248     65721.26543  22994933.7504   22994931.2234
      -398.9534
  -1124928.40548   -875380.47844  22588893.0314   22588889.9774
      1348.8134
    733141.08749    563700.33747  20232986.4844   20232980.8094
     -1212.5314
  -1176675.56146   -908603.92043  23734442.5474   23734437.8984
      1411.3284
   2561608.34049   1978673.99846  21775085.2194   21775078.6844
     -3574.1414
   -190476.10249   -151052.07847  21353902.6724   21353897.9924
       117.2664
 04  9  9 21 13  0.0000000  0  6G 3G 8G13G19G23G27
     94941.33648     70441.92743  22996086.9064   22996083.8714
      -408.8124
  -1145133.29048   -891124.50844  22585047.8754   22585044.9104
      1345.2034
    751392.23549    577922.01347  20236459.4694   20236454.2344
     -1220.9844
  -1197810.10747   -925072.32943  23730420.0004   23730416.1134
      1406.4224
   2615269.25949   2020487.67446  21785296.6334   21785290.1454
     -3580.6874
   -192207.99149   -152401.58047  21353573.1094   21353568.2734
       113.5784
 04  9  9 21 13 15.0000000  0  6G 3G 8G13G19G23G27
    101151.40548     75280.95543  22997268.1414   22997265.2194
      -418.7344
  -1165279.13148   -906822.54844  22581214.7734   22581211.3634
      1341.4534
    769774.91849    592246.18047  20239957.6334   20239951.5984
     -1229.5784
  -1218866.79447   -941480.08243  23726413.6884   23726408.8524
      1401.5164
   2669032.83749   2062381.34246  21795527.1954   21795521.0434
     -3587.3594
   -193879.83149   -153704.30346  21353255.1484   21353250.6604
       109.7664
 04  9  9 21 13 30.0000000  0  6G 3G 8G13G19G23G27
    107510.44048     80236.06243  22998478.4144   22998475.6564
      -428.8124
  -1185368.86748   -922476.85044  22577391.6174   22577388.0274
      1337.5004
    788286.12449    606670.50546  20243480.0634   20243474.5984
     -1238.3124
  -1239848.41847   -957829.34143  23722420.8444   23722416.6174
      1396.2974
   2722895.92549   2104352.54846  21805777.4534   21805770.7274
     -3594.1414
   -195494.60049   -154962.55446  21352947.5164   21352943.3094
       105.7974
 04  9  9 21 13 45.0000000  0  6G 3G 8G13G19G23G27
    114022.12548     85310.12043  22999717.0864   22999714.7774
      -439.1724
  -1205399.11148   -938084.80044  22573580.1884   22573577.3714
      1333.4534
    806929.16849    621197.54847  20247027.7664   20247022.2854
     -1247.1724
  -1260751.26147   -974117.22043  23718442.7274   23718438.4574
      1390.9534
   2776861.90349   2146403.93046  21816046.7424   21816039.8444
     -3601.0784
   -197049.14049   -156173.87947  21352651.5704   21352647.6414
       101.7344
 04  9  9 21 14  0.0000000  0  6G 3G 8G13G19G23G27
    120686.94548     90503.50243  23000985.5234   23000982.9384
      -449.9064
  -1225369.39448   -953646.06044  22569779.6954   22569776.9024
      1328.8914
    825704.71549    635827.84746  20250600.4144   20250594.7974
     -1256.6564
  -1281574.55747   -990343.13043  23714480.5084   23714476.4104
      1385.0944
   2830930.93549   2188535.61946  21826335.8134   21826328.6254
     -3608.5164
   -198542.92849   -157337.86447  21352367.4924   21352363.2814
        97.0634
 04  9  9 21 14 15.0000000  0  6G 3G 8G13G19G23G27
    127510.47448     95820.56443  23002284.1804   23002281.5234
      -459.5784
  -1245274.28248   -969156.32244  22565991.7584   22565988.4304
      1325.4384
    844618.38249    650565.77646  20254199.7034   20254193.8204
     -1264.9694
  -1302312.49347  -1006502.49143  23710534.0314   23710529.8014
      1380.2664
   2885108.41649   2230751.80046  21836645.3754   21836638.9884
     -3614.8754
   -199970.46749   -158450.23247  21352095.8524   21352091.4734
        93.5004
 04  9  9 21 14 30.0000000  0  6G 3G 8G13G19G23G27
    134484.72248    101255.06743  23003611.3284   23003608.3554
      -470.1254
  -1265121.81048   -984621.91644  22562215.3594   22562211.3794
      1320.9844
    863661.96649    665404.93146  20257823.5864   20257818.3054
     -1274.1724
  -1322972.79448  -1022601.38143  23706602.5164   23706597.6374
      1374.4064
   2939385.95949   2273045.95246  21846974.2114   21846967.8404
     -3622.0784
   -201340.11749   -159517.47947  21351835.2424   21351830.8134
        89.1254
 04  9  9 21 14 45.0000000  0  6G 3G 8G13G19G23G27
    141612.24548    106809.01143  23004967.4774   23004964.9144
      -480.0164
  -1284909.60748  -1000040.93645  22558449.1724   22558446.2114
      1317.4384
    882838.06849    680347.34246  20261472.9534   20261467.5944
     -1282.5164
  -1343552.76147  -1038637.67843  23702686.6334   23702681.4614
      1369.5944
   2993765.98048   2315419.97446  21857322.0234   21857315.5634
     -3628.3914
   -202649.32849   -160537.63547  21351585.9304   21351581.5944
        85.5474
 04  9  9 21 15  0.0000000  0  6G 3G 8G13G19G23G27
    148891.83448    112481.44243  23006352.4144   23006350.1334
      -490.2974
  -1304638.96548  -1015414.44545  22554695.0944   22554692.1804
      1313.4064
    902145.41249    695392.02546  20265146.6804   20265140.9494
     -1291.4844
  -1364053.30947  -1054612.06443  23698785.1024   23698780.6334
      1364.0474
   3048246.96849   2357872.66046  21867689.7584   21867682.9024
     -3635.3594
   -203899.48549   -161511.78047  21351348.0634   21351344.2704
        81.4224
 04  9  9 21 15 15.0000000  0  6G 3G 8G13G19G23G27
    156323.28248    118272.20443  23007767.1334   23007763.4414
      -500.7194
  -1324310.46848  -1030742.86945  22550951.5314   22550948.3714
      1309.2344
    921583.61349    710538.68047  20268845.7194   20268839.8284
     -1300.4694
  -1384474.63647  -1070524.75144  23694898.9614   23694894.6884
      1358.5784
   3102828.32349   2400403.56446  21878076.2424   21878069.2854
     -3642.3124
   -205091.10549   -162440.29847  21351121.4844   21351116.7814
        77.2664
 04  9  9 21 15 30.0000000  0  6G 3G 8G13G19G23G27
    163910.70548    124184.49043  23009211.2424   23009207.8164
      -510.6564
  -1343919.82348  -1046022.85845  22547220.4924   22547216.9614
      1305.5474
    941156.90649    725790.60146  20272570.3674   20272564.7194
     -1309.1094
  -1404812.32248  -1086372.23643  23691028.4144   23691024.1524
      1353.3284
   3157513.88948   2443015.65246  21888482.4384   21888475.6994
     -3648.8594
   -206220.13349   -163320.05247  21350906.9614   21350902.1294
        73.4694
 04  9  9 21 15 45.0000000  0  6G 3G 8G13G19G23G27
    171646.59048    130212.45243  23010682.9614   23010679.8204
      -520.6724
  -1363474.76148  -1061260.43345  22543498.9144   22543495.9184
      1301.8444
    960857.47449    741141.68346  20276319.4304   20276313.7504
     -1317.6094
  -1425073.56148  -1102160.15743  23687173.3674   23687169.0784
      1348.0944
   3212295.96448   2485702.96446  21898906.8674   21898901.0084
     -3655.3284
   -207294.29949   -164157.04847  21350702.4144   21350698.2814
        69.7814
 04  9  9 21 16  0.0000000  0  6G 3G 8G13G19G23G27
    179527.52248    136353.48243  23012182.3284   23012179.1884
      -530.5624
  -1382978.83748  -1076458.40945  22539787.5004   22539784.3094
      1298.2814
    980681.81849    756589.23847  20280091.7584   20280086.0394
     -1325.9694
  -1445261.69948  -1117891.12243  23683330.7584   23683326.8324
      1343.1564
   3267170.84248   2528462.57546  21909349.5084   21909343.1724
     -3661.6414
   -208317.19749   -164954.11547  21350507.5634   21350503.3324
        66.2194
 04  9  9 21 16 15.0000000  0  6G 3G 8G13G19G23G27
    187565.13648    142616.57343  23013712.2114   23013709.4064
      -541.0624
  -1402420.53848  -1091607.76345  22536087.4774   22536084.1024
      1294.0164
   1000641.92549    772142.55347  20283889.9454   20283884.7544
     -1335.2504
  -1465364.74748  -1133555.78543  23679506.2114   23679501.2624
      1337.3284
   3322149.87648   2571303.33646  21919811.7814   21919805.3094
     -3668.7664
   -209277.23249   -165702.18847  21350324.7344   21350320.4024
        61.9224
 04  9  9 21 16 30.0000000  0  6G 3G 8G13G19G23G27
    195752.06548    148996.01143  23015270.3914   23015267.3164
      -551.0474
  -1421807.53748  -1106714.49344  22532398.5004   22532395.2274
      1290.3754
   1020730.00949    787795.61546  20287712.6644   20287706.9734
     -1343.7504
  -1485389.98748  -1149159.81743  23675694.9144   23675690.1484
      1332.1564
   3377225.39348   2614219.28845  21930292.0084   21930285.7344
     -3675.2344
   -210182.13649   -166407.30147  21350152.4844   21350148.3444
        58.2034
 04  9  9 21 16 45.0000000  0  6G 3G 8G13G19G23G27
    204092.23648    155494.87543  23016856.6334   23016854.6374
      -560.8124
  -1441135.76848  -1121775.42345  22528720.4844   22528717.3404
      1286.9694
   1040949.94049    803551.40446  20291560.5234   20291554.7704
     -1352.0474
  -1505333.28147  -1164699.99643  23671899.9144   23671895.5904
      1327.2034
   3432400.92648   2657213.18646  21940792.0164   21940785.0784
     -3681.3284
   -211028.00249   -167066.41247  21349991.3054   21349987.1134
        54.7664
 04  9  9 21 17  0.0000000  0  6G 3G 8G13G19G23G27
    212578.95848    162107.92743  23018471.7424   23018468.9384
      -570.4064
  -1460412.19548  -1136795.99345  22525052.0864   22525049.0554
      1283.6094
   1061295.17749    819404.83446  20295431.7974   20295426.2114
     -1360.2664
  -1525200.97047  -1180181.24443  23668119.0314   23668115.1644
      1322.1564
   3487669.62248   2700279.67546  21951309.3674   21951302.7194
     -3687.4534
   -211821.66849   -167684.84247  21349840.5634   21349836.1414
        51.4224
 04  9  9 21 17 15.0000000  0  6G 3G 8G13G19G23G27
    221212.40148    168835.29743  23020114.6724   23020111.9694
      -580.0624
  -1479636.43848  -1151775.89445  22521393.9064   22521390.7194
      1280.3444
   1081765.75849    835355.93546  20299327.4224   20299321.8014
     -1368.4694
  -1544992.77147  -1195603.38043  23664352.7734   23664348.7154
      1317.3284
   3543031.41048   2743418.69745  21961844.1254   21961837.8714
     -3693.3444
   -212563.29749   -168262.72747  21349699.6024   21349695.1994
        48.1414
 04  9  9 21 17 30.0000000  0  6G 3G 8G13G19G23G27
    229995.24048    175679.11143  23021786.3674   23021783.0474
      -590.6874
  -1498806.43448  -1166713.54445  22517746.1884   22517742.9804
      1276.0474
   1102364.18349    851406.65046  20303247.1254   20303241.2464
     -1377.6874
  -1564705.70646  -1210964.06743  23660601.7114   23660597.1844
      1311.3594
   3598488.75848   2786632.18046  21972397.0234   21972390.7464
     -3700.5164
   -213250.13349   -168797.92447  21349568.9224   21349564.3054
        43.7664
 04  9  9 21 17 45.0000000  0  6G 3G 8G13G19G23G27
    238932.01348    182642.83543  23023486.8524   23023484.2034
      -600.5164
  -1517917.55248  -1181605.28645  22514109.4304   22514105.8754
      1272.5314
   1123094.98849    867560.52646  20307192.3674   20307186.8484
     -1386.0944
  -1584334.90547  -1226259.50843  23656866.2814   23656861.3874
      1306.2034
   3654045.82448   2829923.37545  21982969.7114   21982963.3954
     -3706.7974
   -213877.91949   -169287.09547  21349449.4224   21349445.1134
        40.2664
 04  9  9 21 18  0.0000000  0  6G 3G 8G13G19G23G27
    248018.54948    189723.26543  23025216.1954   23025213.0004
      -610.5944
  -1536974.02948  -1196454.46945  22510482.9224   22510479.3284
      1268.7504
   1143954.00249    883814.30846  20311161.4144   20311155.9144
     -1394.7034
  -1603884.53647  -1241492.93743  23653146.5474   23653141.9694
      1300.8284
   3709698.12948   2873288.77446  21993559.8284   21993553.7974
     -3713.1414
   -214450.95349   -169733.60847  21349340.6174   21349335.6764
        36.5784
 04  9  9 21 18 15.0000000  0  6G 3G 8G13G19G23G27
    257248.78448    196915.69743  23026972.3674   23026969.1024
      -619.7814
  -1555982.06048  -1211265.88945  22506865.9924   22506862.9304
      1265.8914
   1164935.14649    900163.25147  20315153.9844   20315148.9694
     -1402.5004
  -1623360.33947  -1256668.84343  23649439.4844   23649435.1524
      1296.2194
   3765439.44449   2916723.54446  22004166.8914   22004160.9304
     -3718.7814
   -214975.42449   -170142.27747  21349240.6334   21349236.3284
        33.6414
 04  9  9 21 18 30.0000000  0  6G 3G 8G13G19G23G27
    266629.41448    204225.28143  23028757.1414   23028753.9614
      -630.7344
  -1574934.96248  -1226034.36445  22503259.3524   22503256.4064
      1261.2974
   1186044.98449    916612.48247  20319170.9224   20319165.6994
     -1412.0004
  -1642755.56247  -1271781.95943  23645749.4304   23645744.6454
      1289.9384
   3821276.07149   2960232.55646  22014792.2344   22014785.9104
     -3726.0164
   -215444.95349   -170508.14147  21349150.8594   21349146.5164
        29.1094
 04  9  9 21 18 45.0000000  0  6G 3G 8G13G19G23G27
    276163.10748    211654.15243  23030571.3444   23030567.8794
      -640.9224
  -1593830.31249  -1240757.98945  22499663.8834   22499660.4574
      1257.5784
   1207286.17149    933164.05147  20323213.1414   20323207.6524
     -1420.6724
  -1662067.11047  -1286829.85643  23642074.1414   23642069.8484
      1284.3914
   3877210.48849   3003817.79045  22025436.4844   22025430.0704
     -3732.4844
   -215856.74849   -170829.01947  21349072.8284   21349068.5084
        25.2664
 04  9  9 21 19  0.0000000  0  6G 3G 8G13G19G23G27
    285842.91648    219196.88743  23032413.6254   23032410.2734
      -650.4694
  -1612674.96849  -1255442.10645  22496077.4924   22496074.3634
      1254.3914
   1228651.80549    949812.59147  20327278.9144   20327273.4104
     -1428.7664
  -1681301.64347  -1301817.77143  23638413.6094   23638409.9494
      1279.4694
   3933235.54649   3047473.65145  22036097.4454   22036091.4494
     -3738.2664
   -216218.00049   -171110.49947  21349004.0864   21348999.4614
        22.1414
 04  9  9 21 19 15.0000000  0  6G 3G 8G13G19G23G27
    295676.67448    226859.55643  23034285.0004   23034281.8714
      -660.6564
  -1631461.39949  -1270080.85845  22492502.7194   22492498.9264
      1250.5164
   1250149.56549    966564.09746  20331369.5944   20331364.6524
     -1437.5944
  -1700451.24047  -1316739.48943  23634770.1954   23634765.5634
      1273.7814
   3989358.81449   3091206.02646  22046777.8134   22046771.4064
     -3744.8754
   -216521.03649   -171346.61347  21348946.3134   21348941.7304
        18.2504
 04  9  9 21 19 30.0000000  0  6G 3G 8G13G19G23G27
    305661.62748    234640.06143  23036184.8444   23036181.5634
      -670.6724
  -1650192.42049  -1284676.42645  22488938.2194   22488934.8794
      1246.8914
   1271776.53949    983416.28546  20335485.3054   20335479.7704
     -1446.1094
  -1719518.50147  -1331597.07743  23631141.9774   23631136.6254
      1268.4534
   4045577.03349   3135012.39045  22057475.3444   22057469.6484
     -3751.0164
   -216768.95249   -171539.78547  21348899.1484   21348894.2584
        14.6564
 04  9  9 21 19 45.0000000  0  6G 3G 8G13G19G23G27
    315791.35648    242533.35843  23038112.6484   23038109.5634
      -680.3444
  -1668874.54548  -1299233.90645  22485382.7894   22485379.6334
      1243.7034
   1293526.45849   1000364.26346  20339624.0474   20339618.5314
     -1454.2344
  -1738509.58647  -1346395.29043  23627527.8754   23627522.6334
      1263.3284
   4101883.76549   3178887.71845  22068190.4924   22068184.8444
     -3756.8914
   -216968.04449   -171694.92647  21348861.1644   21348856.6994
        11.5164
 04  9  9 21 20  0.0000000  0  6G 3G 8G13G19G23G27
    326072.81948    250544.90743  23040069.0004   23040066.2544
      -690.6414
  -1687500.95849  -1313747.97944  22481838.6414   22481834.9414
      1239.8134
   1315406.11949   1017413.35347  20343787.8134   20343781.8984
     -1463.0624
  -1757417.23947  -1361128.51043  23623929.1804   23623924.7854
      1257.6724
   4158285.60548   3222837.16245  22078923.2424   22078917.0944
     -3763.3594
   -217111.67249   -171806.83647  21348833.9304   21348829.5904
         7.6414
 04  9  9 21 20 15.0000000  0  6G 3G 8G13G19G23G27
    336508.16847    258676.34543  23042054.8054   23042051.6724
      -700.5624
  -1706069.57348  -1328216.99244  22478305.1334   22478301.1884
      1236.2664
   1337417.67849   1034565.21546  20347976.2504   20347971.1134
     -1471.5474
  -1776238.96647  -1375794.74743  23620347.3984   23620343.4964
      1252.2814
   4214784.49648   3266862.22845  22089674.7034   22089668.5984
     -3769.4844
   -217197.61849   -171873.80246  21348817.2664   21348813.0274
         4.0944
 04  9  9 21 20 30.0000000  0  6G 3G 8G13G19G23G27
    347090.59347    266922.42343  23044068.2894   23044065.6764
      -710.0004
  -1724587.44148  -1342646.48244  22474781.1484   22474777.7504
      1233.1884
   1359554.18649   1051814.44346  20352189.0394   20352183.0904
     -1479.5944
  -1794981.42447  -1390399.21143  23616780.9924   23616776.7034
      1247.2504
   4271373.29948   3310957.37345  22100443.1334   22100437.1094
     -3775.1094
   -217232.93949   -171901.31947  21348810.7734   21348806.5634
         1.0784
 04  9  9 21 20 45.0000000  0  6G 3G 8G13G19G23G27
    357815.04547    275279.17243  23046109.1644   23046106.6604
      -720.0624
  -1743059.68248  -1357040.42345  22471266.0234   22471262.5084
      1229.5944
   1381810.59849   1069157.11346  20356424.1564   20356418.3634
     -1488.0944
  -1813649.43447  -1404945.69843  23613229.1094   23613224.6604
      1241.6884
   4328046.74549   3355118.45945  22111228.0004   22111221.5634
     -3781.3594
   -217222.85349   -171893.45547  21348812.7894   21348808.1334
        -2.4844
 04  9  9 21 21  0.0000000  0  6G 3G 8G13G19G23G27
    368693.07447    283755.55843  23048178.4144   23048175.7734
      -729.6564
  -1761474.57948  -1371389.65245  22467761.6254   22467758.4924
      1226.3914
   1404198.40249   1086602.13846  20360684.1254   20360678.7664
     -1496.2974
  -1832231.23247  -1419424.97444  23609692.8134   23609688.3834
      1236.5474
   4384816.08648   3399354.28345  22122030.8754   22122024.9804
     -3787.1564
   -217156.01249   -171841.35147  21348825.4694   21348821.3094
        -5.7034
 04  9  9 21 21 15.0000000  0  6G 3G 8G13G19G23G27
    379720.64947    292348.47843  23050278.0634   23050274.7974
      -740.1874
  -1779836.46348  -1385697.59145  22464267.5004   22464264.4884
      1222.3444
   1426713.51249   1104146.37847  20364969.1174   20364963.3484
     -1505.1874
  -1850730.70247  -1433840.10343  23606172.4454   23606167.9884
      1230.5944
   4441677.05848   3443661.49845  22132850.9064   22132845.1844
     -3793.7664
   -217036.48649   -171748.20847  21348848.4304   21348843.9454
        -9.7504
 04  9  9 21 21 30.0000000  0  6G 3G 8G13G19G23G27
    390898.05547    301058.14043  23052405.0474   23052401.6564
      -749.8594
  -1798145.00848  -1399963.96945  22460783.6094   22460780.4884
      1219.0944
   1449356.39449   1121790.19247  20369277.3834   20369271.9924
     -1513.4534
  -1869147.12147  -1448190.55843  23602667.9144   23602663.7154
      1225.2664
   4498629.80348   3488040.23045  22143688.8054   22143682.6374
     -3799.6414
   -216864.10249   -171613.88447  21348880.9534   21348876.7034
       -12.9534
 04  9  9 21 21 45.0000000  0  6G 3G 8G13G19G23G27
    402222.76647    309882.57843  23054559.6884   23054556.5044
      -760.2344
  -1816402.65448  -1414190.68245  22457309.0634   22457305.3714
      1215.1094
   1472124.28949   1139531.39046  20373610.1724   20373604.8094
     -1522.3914
  -1887482.82747  -1462478.07244  23599178.4614   23599174.1764
      1219.2194
   4555671.46448   3532488.23445  22154543.7424   22154537.3444
     -3806.0624
   -216641.28849   -171440.25547  21348923.6094   21348919.0204
       -16.8754
 04  9  9 21 22  0.0000000  0  6G 3G 8G13G19G23G27
    413701.48247    318827.06843  23056744.3754   23056740.8244
      -769.6724
  -1834603.10548  -1428372.81945  22453845.7274   22453842.1454
      1212.2194
   1495023.80049   1157375.16946  20377967.7734   20377962.3054
     -1530.2974
  -1905731.00147  -1476697.41544  23595706.1954   23595701.2194
      1214.3594
   4612808.44448   3577010.52045  22165416.6414   22165410.5004
     -3811.6254
   -216361.78049   -171222.45546  21348976.3524   21348972.2074
       -19.7974
 04  9  9 21 22 15.0000000  0  6G 3G 8G13G19G23G27
    425325.57447    327884.78743  23058955.8834   23058952.7154
      -779.8444
  -1852755.00748  -1442517.13844  22450391.4924   22450387.8484
      1208.4534
   1518046.35849   1175314.81846  20382348.7664   20382343.1684
     -1539.0314
  -1923900.02247  -1490855.06344  23592248.6174   23592243.5904
      1208.5634
   4670031.81348   3621600.13146  22176306.0164   22176299.7034
     -3817.8124
   -216034.26949   -170967.24246  21349039.0004   21349034.4964
       -23.5624
 04  9  9 21 22 30.0000000  0  6G 3G 8G13G19G23G27
    437096.78847    337057.18743  23061196.1484   23061192.8404
      -789.5784
  -1870856.77348  -1456622.37245  22446947.0784   22446943.9224
      1205.1884
   1541193.60549   1193351.62746  20386753.5944   20386748.1174
     -1547.2034
  -1941987.81748  -1504949.42244  23588807.0234   23588801.9104
      1203.2664
   4727343.08148   3666258.25145  22187212.1724   22187205.3444
     -3823.5944
   -215657.13249   -170673.35146  21349110.7664   21349106.4844
       -26.7034
 04  9  9 21 22 45.0000000  0  6G 3G 8G13G19G23G27
    449009.73848    346340.01343  23063462.7584   23063459.8674
      -798.8914
  -1888913.70548  -1470692.68445  22443510.8284   22443507.2814
      1202.2814
   1564460.14549   1211481.40946  20391180.9924   20391175.1954
     -1555.0944
  -1959999.52048  -1518984.47144  23585379.3364   23585374.4964
      1198.2504
   4784736.66848   3710980.48045  22198133.3284   22198126.9104
     -3829.0004
   -215235.87749   -170345.09546  21349190.5554   21349186.2504
       -29.5474
 04  9  9 21 23  0.0000000  0  6G 3G 8G13G19G23G27
    461068.71047    355736.62843  23065757.9694   23065754.8244
      -809.2344
  -1906921.84348  -1484724.97945  22440083.8284   22440080.5594
      1198.4844
   1587850.25549   1229707.46646  20395632.2424   20395626.4144
     -1563.8444
  -1977930.59948  -1532956.71444  23581966.8834   23581962.4654
      1192.2974
   4842216.45148   3755769.89045  22209071.2974   22209065.5274
     -3835.2194
   -214766.30849   -169979.19246  21349279.9384   21349275.6564
       -33.3284
 04  9  9 21 23 15.0000000  0  6G 3G 8G13G19G23G27
    473280.38947    365252.23743  23068081.2194   23068078.8484
      -819.4064
  -1924874.47248  -1498714.01645  22436667.8054   22436664.0004
      1194.8444
   1611370.50949   1248034.93446  20400107.7814   20400102.4144
     -1572.4534
  -1995774.19148  -1546860.78144  23578571.3914   23578566.7584
      1186.4694
   4899789.00748   3800631.58645  22220027.3914   22220021.4884
     -3841.4534
   -214241.81049   -169570.48146  21349379.8674   21349375.2424
       -36.9374
 04  9  9 21 23 30.0000000  0  6G 3G 8G13G19G23G27
    485639.48248    374882.72543  23070433.5864   23070430.1724
      -828.1564
  -1942776.78448  -1512663.83645  22433260.5864   22433256.7624
      1192.4694
   1635015.62949   1266459.68146  20404607.2584   20404601.7814
     -1579.8914
  -2013535.22648  -1560700.50844  23575191.6484   23575187.0124
      1181.9844
   4957448.72948   3845561.21445  22230999.4774   22230993.2114
     -3846.2034
   -213667.86549   -169123.24247  21349489.0164   21349485.0664
       -39.3124
 04  9  9 21 23 45.0000000  0  6G 3G 8G13G19G23G27
    498142.82847    384625.58543  23072812.5394   23072809.8404
      -838.5624
  -1960632.19448  -1526577.11645  22429862.8134   22429859.6994
      1188.5634
   1658782.26149   1284979.12646  20409130.0314   20409124.9734
     -1588.6874
  -2031216.69448  -1574478.24344  23571826.6414   23571822.0354
      1175.9064
   5015192.20348   3890556.09645  22241987.7584   22241981.3444
     -3852.5624
   -213047.90649   -168640.14247  21349606.9064   21349602.4884
       -43.0944
 04  9  9 21 24  0.0010000  0  6G 3G 8G13G19G23G27
    510794.61447    394484.13143  23075220.4114   23075217.3564
      -848.0624
  -1978438.77148  -1540452.34245  22426474.7164   22426471.4034
      1185.6414
   1682675.41249   1303597.17147  20413676.9664   20413671.2674
     -1596.7344
  -2048816.19248  -1588192.11844  23568477.9034   23568473.0324
      1170.6414
   5073026.43948   3935621.68945  22252993.2244   22252986.9354
     -3857.9534
   -212378.47749   -168118.51246  21349734.6144   21349729.9664
       -45.9844
 04  9  9 21 24 15.0010000  0  6G 3G 8G13G19G23G27
    523583.16547    404449.23943  23077653.9744   23077650.7554
      -857.4534
  -1996204.09948  -1554295.43745  22423094.0994   22423090.8374
      1182.7194
   1706681.90249   1322303.52946  20418245.1064   20418239.7084
     -1604.5314
  -2066341.06648  -1601847.83244  23565142.7244   23565138.1464
      1165.5784
   5130933.46448   3980744.02645  22264012.5054   22264006.4424
     -3863.2814
   -211669.71949   -167566.21746  21349869.1694   21349864.7004
       -48.8444
 04  9  9 21 24 30.0010000  0  6G 3G 8G13G19G23G27
    536519.52747    414529.52443  23080115.4274   23080112.9854
      -867.5314
  -2013919.04848  -1568099.27645  22419722.7004   22419719.2434
      1179.3754
   1730813.56249   1341107.41747  20422837.2084   20422831.9194
     -1613.0004
  -2083781.97348  -1615438.12944  23561823.9274   23561818.8844
      1159.8594
   5188927.06348   4025933.80145  22275048.4034   22275042.5954
     -3869.1254
   -210911.49849   -166975.39146  21350013.3254   21350009.1224
       -52.1564
 04  9  9 21 24 45.0010000  0  6G 3G 8G13G19G23G27
    549606.19047    424726.93143  23082605.6464   23082602.9314
      -877.3754
  -2031581.20148  -1581861.96245  22416361.7474   22416359.0794
      1175.8594
   1755072.74449   1360010.67547  20427453.4114   20427447.7044
     -1621.3754
  -2101136.20148  -1628960.86144  23558521.3334   23558516.9234
      1154.2034
   5247009.57648   4071192.87345  22286101.3804   22286094.9194
     -3874.9534
   -210101.40949   -166344.14047  21350167.7164   21350163.7354
       -55.5784
 04  9  9 21 25  0.0010000  0  6G 3G 8G13G19G23G27
    562836.98947    435036.65543  23085123.7474   23085120.4854
      -886.7194
  -2049196.91448  -1595588.47145  22413009.5914   22413006.0714
      1172.9224
   1779453.25249   1379008.45947  20432092.8804   20432087.5794
     -1629.2664
  -2118409.84648  -1642420.81244  23555234.0834   23555229.9974
      1148.9844
   5305174.51348   4116516.16945  22297169.6464   22297163.4664
     -3880.2504
   -209245.92549   -165677.52346  21350330.2314   21350326.2084
       -58.4224
 04  9  9 21 25 15.0010000  0  6G 3G 8G13G19G23G27
    576215.32448    445461.33643  23087669.3174   23087666.6734
      -896.7344
  -2066762.84348  -1609276.19245  22409666.9664   22409663.0834
      1169.4224
   1803958.50849   1398103.45647  20436755.9274   20436750.9194
     -1637.7664
  -2135599.15148  -1655815.05044  23551963.5364   23551958.7824
      1143.1094
   5363424.98148   4161906.10445  22308254.6304   22308247.9154
     -3886.2034
   -208341.57349   -164972.83046  21350502.5054   21350498.3174
       -61.8914
 04  9  9 21 25 30.0010000  0  6G 3G 8G13G19G23G27
    589731.13148    455993.15643  23090241.4894   23090238.2044
      -905.5784
  -2084289.05548  -1622932.94845  22406331.7634   22406328.3214
      1167.2034
   1828578.17349   1417287.60347  20441441.4584   20441435.2824
     -1645.0474
  -2152713.85148  -1669151.14844  23548706.7314   23548701.9384
      1138.5474
   5421750.77448   4207354.74145  22319353.4974   22319347.4074
     -3890.8444
   -207398.60849   -164238.04147  21350682.0214   21350677.7634
       -64.1094
 04  9  9 21 25 45.0010000  0  6G 3G 8G13G19G23G27
    603395.34547    466640.62143  23092841.5604   23092838.6694
      -916.2974
  -2101764.70048  -1636550.31045  22403006.2004   22403002.5094
      1162.9224
   1853323.42349   1436569.62047  20446149.8334   20446144.2674
     -1654.2664
  -2169742.70348  -1682420.34044  23545466.1534   23545460.7314
      1131.9384
   5480162.55248   4252870.38145  22330468.7244   22330462.5634
     -3897.4064
   -206406.06649   -163464.62647  21350870.7864   21350866.5874
       -68.2344
 04  9  9 21 26  0.0010000  0  6G 3G 8G13G19G23G27
    617211.58647    477406.52143  23095471.3024   23095467.8214
      -925.7814
  -2119186.37148  -1650125.60945  22399691.1854   22399687.6924
      1160.0314
   1878197.77849   1455952.22547  20450883.6144   20450878.1964
     -1662.1874
  -2186681.99048  -1695619.76444  23542242.6534   23542237.8844
      1126.7194
   5538663.59448   4298455.55845  22341601.5754   22341595.3174
     -3902.6724
   -205360.48049   -162649.87846  21351069.8104   21351065.2084
       -71.0944
 04  9  9 21 26 15.0010000  0  6G 3G 8G13G19G23G27
    631167.79747    488281.51443  23098126.4424   23098123.4154
      -935.4534
  -2136566.09548  -1663668.22745  22396383.3644   22396380.2164
      1156.9534
   1903189.15449   1475426.01747  20455639.0134   20455633.6494
     -1670.3444
  -2203543.38048  -1708758.48544  23539033.5444   23539028.6614
      1121.1564
   5597241.70348   4344100.80145  22352748.2634   22352742.2594
     -3908.0624
   -204274.12149   -161803.35246  21351276.7084   21351272.2904
       -74.1094
 04  9  9 21 26 30.0010000  0  6G 3G 8G13G19G23G27
    645275.08747    499274.21343  23100810.8334   23100807.8174
      -945.3754
  -2153892.71448  -1677169.46545  22393086.8024   22393083.5564
      1153.5314
   1928308.55549   1494999.57147  20460419.1534   20460413.8414
     -1678.6564
  -2220315.61447  -1721827.72344  23535841.9274   23535837.3564
      1115.3594
   5655907.76448   4389814.58745  22363911.9974   22363906.1814
     -3913.8444
   -203135.87349   -160916.38946  21351493.0524   21351488.7004
       -77.4694
 04  9  9 21 26 45.0010000  0  6G 3G 8G13G19G23G27
    659527.53947    510380.02143  23103523.0284   23103519.7124
      -954.6254
  -2171172.35848  -1690634.09645  22389798.3024   22389795.0174
      1150.8444
   1953550.08649   1514668.29847  20465222.5134   20465216.8764
     -1686.4374
  -2237004.32647  -1734831.86544  23532666.0754   23532661.6034
      1110.2814
   5714655.49448   4435592.00545  22375091.6694   22375085.3214
     -3918.7814
   -201951.88449   -159993.79747  21351718.3104   21351713.5404
       -80.0474
 04  9  9 21 27  0.0010000  0  6G 3G 8G13G19G23G27
    673927.50348    521600.78543  23106263.1694   23106260.0994
      -965.0944
  -2188402.51748  -1704060.17945  22386519.8334   22386516.0364
      1146.8914
   1978916.07349   1534434.00347  20470049.6064   20470043.8494
     -1695.3754
  -2253606.81347  -1747768.84744  23529507.4114   23529502.1774
      1103.8134
   5773487.11448   4481434.78645  22386286.6144   22386280.6144
     -3925.0004
   -200719.60849   -159033.58047  21351952.8564   21351948.3454
       -83.9064
 04  9  9 21 27 15.0010000  0  6G 3G 8G13G19G23G27
    688474.00048    532935.72343  23109031.4814   23109028.1574
      -974.7814
  -2205584.49348  -1717448.71045  22383249.8564   22383245.9384
      1143.6564
   2004405.49149   1554295.87746  20474899.8334   20474894.4194
     -1703.5474
  -2270123.83847  -1760639.22744  23526364.1614   23526359.5174
      1098.1094
   5832401.39048   4527341.97845  22397497.4194   22397491.3494
     -3930.5164
   -199440.27749   -158036.68846  21352196.3964   21352191.9354
       -87.0314
 04  9  9 21 27 30.0010000  0  6G 3G 8G13G19G23G27
    703165.23448    544383.43843  23111827.2084   23111824.6464
      -984.2814
  -2222719.96349  -1730801.00845  22379989.0604   22379985.5754
      1140.7814
   2030016.55049   1574252.54147  20479773.6464   20479768.3564
     -1711.4534
  -2286557.07048  -1773444.30544  23523236.5524   23523232.0054
      1092.6884
   5891396.16448   4573311.89745  22408724.2714   22408718.0484
     -3935.7504
   -198115.89849   -157004.70647  21352448.3494   21352444.3104
       -89.8284
 04  9  9 21 27 45.0010000  0  6G 3G 8G13G19G23G27
    717999.03747    555942.28143  23114649.9034   23114647.1694
      -993.9064
  -2239811.01149  -1744118.67745  22376736.6774   22376733.2984
      1137.6254
   2055747.23049   1594302.42447  20484669.8104   20484664.3764
     -1719.6254
  -2302908.15848  -1786185.39244  23520125.3884   23520120.6464
      1087.0634
   5950469.20648   4619342.80545  22419965.2394   22419959.1884
     -3941.0314
   -196748.48049   -155939.17346  21352708.6304   21352704.1924
       -92.8914
 04  9  9 21 28  0.0010000  0  6G 3G 8G13G19G23G27
    732986.98448    567621.20943  23117502.1614   23117498.9234
     -1004.5004
  -2256846.35649  -1757392.95445  22373494.8964   22373492.3134
      1133.7194
   2081608.88349   1614454.36747  20489591.1064   20489585.9544
     -1728.6094
  -2319165.28348  -1798853.23844  23517031.4114   23517026.9384
      1080.4844
   6009631.94648   4665443.59945  22431223.5284   22431217.8564
     -3947.2974
   -195326.59549   -154831.20646  21352979.1464   21352974.5134
       -96.8124
 04  9  9 21 28 15.0010000  0  6G 3G 8G13G19G23G27
    748124.40048    579416.62843  23120382.4664   23120379.6574
     -1013.7194
  -2273830.75149  -1770627.52745  22370262.9354   22370259.8374
      1130.9534
   2107596.85249   1634704.72447  20494536.7554   20494531.3064
     -1736.3124
  -2335332.89148  -1811451.35343  23513955.1534   23513950.3104
      1075.2034
   6068879.36548   4711610.38945  22442498.1064   22442491.9544
     -3952.2344
   -193855.00949   -153684.51346  21353258.9274   21353254.1964
       -99.4064
 04  9  9 21 28 30.0010000  0  6G 3G 8G13G19G23G27
    763406.82848    591325.04043  23123290.8104   23123287.6814
     -1024.0004
  -2290768.46749  -1783825.73545  22367039.8964   22367036.0214
      1127.3594
   2133706.57749   1655049.96347  20499505.0994   20499499.5604
     -1744.9694
  -2351415.19948  -1823982.97943  23510894.5364   23510889.8684
      1069.0634
   6128206.76648   4757839.48845  22453787.9974   22453781.7124
     -3958.1254
   -192338.23649   -152502.60046  21353547.5674   21353542.8644
      -102.9534
 04  9  9 21 28 45.0010000  0  6G 3G 8G13G19G23G27
    778834.57247    603346.67643  23126226.5754   23126223.1654
     -1033.8594
  -2307659.38549  -1796987.46645  22363825.5674   22363822.2164
      1124.0634
   2159938.29349   1675490.25347  20504496.9974   20504491.4354
     -1753.2814
  -2367411.61448  -1836447.70143  23507850.4354   23507845.0874
      1063.1094
   6187614.20848   4804130.96945  22465092.7244   22465086.6654
     -3963.5784
   -190776.08949   -151285.33846  21353844.9504   21353840.6464
      -106.0474
 04  9  9 21 29  0.0010000  0  6G 3G 8G13G19G23G27
    794414.02947    615486.50943  23129191.0134   23129187.7244
     -1043.2664
  -2324497.21449  -1810107.83645  22360621.6304   22360618.0564
      1121.2194
   2186298.45849   1696030.63947  20509513.0994   20509507.4464
     -1761.2194
  -2383315.56648  -1848840.36243  23504823.6384   23504818.7514
      1057.5944
   6247107.87148   4850489.63045  22476414.1694   22476408.1384
     -3968.6874
   -189162.35549   -150027.87946  21354152.0674   21354147.5284
      -108.8444
 04  9  9 21 29 15.0010000  0  6G 3G 8G13G19G23G27
    810137.40148    627738.48843  23132183.5284   23132179.9704
     -1053.2814
  -2341289.77149  -1823192.91845  22357426.0444   22357422.1574
      1117.7034
   2212779.17549   1716664.96647  20514552.4194   20514546.7204
     -1769.7194
  -2399134.59747  -1861166.83143  23501813.7084   23501809.2864
      1051.4844
   6306679.77348   4896909.26045  22487750.3024   22487744.2784
     -3974.4064
   -187504.73949   -148736.22147  21354467.4664   21354463.0364
      -112.2814
 04  9  9 21 29 30.0010000  0  6G 3G 8G13G19G23G27
    826008.53047    640105.62343  23135203.6694   23135199.8134
     -1062.9694
  -2358033.10549  -1836239.67045  22354239.5444   22354236.3104
      1114.5784
   2239384.41149   1737396.31447  20519615.0994   20519609.3294
     -1777.8754
  -2414864.43948  -1873423.82043  23498820.5834   23498815.9704
      1045.6724
   6366333.55348   4943392.69945  22499102.2244   22499095.9274
     -3979.7194
   -185799.63549   -147407.56447  21354792.1064   21354787.8564
      -115.2814
 04  9  9 21 29 45.0010000  0  6G 3G 8G13G19G23G27
    842029.00648    652589.13043  23138251.9894   23138248.8964
     -1072.9374
  -2374725.76149  -1849246.91045  22351063.3494   22351059.5054
      1111.3134
   2266115.65549   1758225.85847  20524701.6224   20524696.7084
     -1786.1094
  -2430503.26948  -1885609.87543  23495844.2394   23495839.9504
      1039.7034
   6426070.37048   4989940.83345  22510469.8334   22510463.5794
     -3985.0624
   -184045.40449   -146040.62947  21355125.8564   21355121.9034
      -118.4224
 04  9  9 21 30  0.0010000  0  6G 3G 8G13G19G23G27
    858193.10248    665184.55843  23141328.0054   23141324.4034
     -1082.6564
  -2391373.50949  -1862219.16045  22347895.2784   22347891.6574
      1108.0004
   2292967.21449   1779149.13547  20529811.1924   20529805.7434
     -1794.3754
  -2446056.56947  -1897729.28943  23492884.5214   23492880.0244
      1033.6884
   6485884.31448   5036549.06245  22521851.7164   22521845.5364
     -3990.4844
   -182247.87149   -144639.94946  21355467.7634   21355463.3844
      -121.5474
 04  9  9 21 30 15.0010000  0  6G 3G 8G13G19G23G27
    874503.01048    677893.58843  23144431.4894   23144428.7514
     -1092.1724
  -2407974.30048  -1875154.81745  22344736.2474   22344732.6034
      1105.1724
   2319941.14149   1800167.77747  20534944.3494   20534939.0134
     -1802.2664
  -2461521.83747  -1909780.10143  23489941.9744   23489937.1814
      1028.0784
   6545777.41648   5083218.97645  22533249.3254   22533243.1224
     -3995.4844
   -180404.87249   -143203.82847  21355818.4424   21355814.3134
      -124.3594
 04  9  9 21 30 30.0010000  0  6G 3G 8G13G19G23G27
    890959.99648    690717.24843  23147562.8644   23147560.2084
     -1101.5314
  -2424526.88449  -1888052.91345  22341586.3174   22341582.8994
      1102.4384
   2347038.77749   1821282.82147  20540101.1224   20540095.1654
     -1810.1564
  -2476897.46247  -1921761.08543  23487016.4354   23487010.7474
      1022.5634
   6605750.73348   5129951.38645  22544661.7164   22544655.5054
     -4000.4064
   -178515.24149   -141731.38247  21356177.9744   21356173.5954
      -127.0164
 04  9  9 21 30 45.0010000  0  6G 3G 8G13G19G23G27
    907564.84647    703656.09243  23150723.0134   23150719.3134
     -1111.8754
  -2441030.43448  -1900912.82145  22338445.8564   22338442.2004
      1098.6414
   2374260.78449   1842494.77247  20545280.9974   20545275.7824
     -1818.8754
  -2492182.50447  -1933671.46543  23484107.6304   23484102.2124
      1016.0634
   6665804.74148   5176746.68045  22556089.8804   22556083.6734
     -4006.2664
   -176578.35449   -140222.12347  21356546.8804   21356541.9074
      -130.5944
 04  9  9 21 31  0.0010000  0  6G 3G 8G13G19G23G27
    924318.02947    716710.53343  23153910.7474   23153907.8214
     -1121.5164
  -2457484.43648  -1913734.09345  22335314.8804   22335311.3994
      1095.5474
   2401607.75449   1863804.08647  20550485.5054   20550479.6034
     -1827.0784
  -2507376.24548  -1945510.70443  23481216.1534   23481211.1104
      1010.1094
   6725939.82848   5223605.15245  22567532.7474   22567527.3994
     -4011.4224
   -174593.62349   -138675.55247  21356924.8104   21356919.9074
      -133.6414
 04  9  9 21 31 15.0010000  0  6G 3G 8G13G19G23G27
    941221.60548    729882.17443  23157127.6614   23157124.1854
     -1132.0944
  -2473887.02649  -1926515.32245  22332193.4814   22332189.7744
      1091.5784
   2429081.66649   1885212.32947  20555713.0444   20555707.4974
     -1836.0164
  -2522476.33447  -1957276.97043  23478342.6464   23478337.7864
      1003.4384
   6786157.79548   5270528.20145  22578992.0834   22578985.8454
     -4017.4064
   -172559.12349   -137090.23147  21357311.6144   21357307.3454
      -137.4374
 04  9  9 21 31 30.0010000  0  6G 3G 8G13G19G23G27
    958268.70348    743165.64543  23160370.9114   23160368.1614
     -1141.7034
  -2490245.13448  -1939261.87645  22329080.6304   22329076.6304
      1088.6564
   2456675.54549   1906714.03947  20560964.5134   20560958.9354
     -1844.0004
  -2537489.37647  -1968975.40543  23475485.3174   23475480.5874
       997.5314
   6846451.50148   5317510.26845  22590465.6304   22590459.8564
     -4022.5164
   -170481.85249   -135471.57447  21357707.2864   21357702.4274
      -140.2974
 04  9  9 21 31 45.0010000  0  6G 3G 8G13G19G23G27
    975464.25048    756564.78043  23163643.5604   23163640.3414
     -1151.2814
  -2506553.71448  -1951969.84045  22325976.9274   22325973.4114
      1085.5634
   2484394.32849   1928313.09847  20566239.0214   20566233.5994
     -1852.0474
  -2552410.11147  -1980601.89643  23472646.0444   23472641.5604
       991.7194
   6906825.68048   5364555.06745  22601954.6144   22601949.0794
     -4027.6724
   -168356.84049   -133815.70747  21358111.5444   21358106.9894
      -143.2194
 04  9  9 21 32  0.0010000  0  6G 3G 8G13G19G23G27
    992807.24948    770078.83443  23166943.7244   23166940.7594
     -1160.9374
  -2522813.78548  -1964640.00245  22322882.9034   22322879.3764
      1082.6414
   2512237.06049   1950008.71747  20571537.0754   20571531.7474
     -1860.1564
  -2567239.25047  -1992157.02643  23469824.7004   23469819.7044
       985.7504
   6967278.96748   5411661.48745  22613458.0524   22613452.5674
     -4032.6414
   -166185.19449   -132123.52346  21358524.5914   21358520.2204
      -146.1414
 04  9  9 21 32 15.0010000  0  6G 3G 8G13G19G23G27
   1010296.66748    783706.95243  23170272.3494   23170268.5874
     -1170.9844
  -2539026.39948  -1977273.18645  22319797.3174   22319793.8454
      1079.1414
   2540202.74549   1971800.15847  20576858.7634   20576853.3064
     -1868.5944
  -2581977.53948  -2003641.36343  23467019.8174   23467014.4354
       979.3914
   7027810.32148   5458828.75645  22624977.0524   22624971.4584
     -4038.2034
   -163967.99249   -130395.82846  21358946.3884   21358941.9854
      -149.4224
 04  9  9 21 32 30.0010000  0  6G 3G 8G13G19G23G27
   1027931.15147    797448.11543  23173627.8644   23173624.7984
     -1180.6564
  -2555192.69348  -1989870.28545  22316721.4664   22316718.0094
      1075.9534
   2568290.00849   1993686.34647  20582203.7634   20582198.3844
     -1876.7814
  -2596625.90448  -2015055.63744  23464232.5604   23464227.4354
       973.3444
   7088418.26748   5506055.68045  22636510.3174   22636504.5834
     -4043.2814
   -161706.57949   -128633.68146  21359376.7394   21359371.9934
      -152.5004
 04  9  9 21 32 45.0010000  0  7G 3G 8G13G10G19G23G27
   1045714.56648    811305.34743  23177012.0214   23177008.5524
     -1190.4844
  -2571309.02348  -2002428.44145  22313654.6304   22313650.7984
      1072.8914
   2596502.62149   2015670.19447  20587572.2944   20587567.2284
     -1884.8754
    -45634.69355    -31055.42352  24401201.4744   24401199.1694
      1096.0944
  -2611180.25048  -2026396.65343  23461462.8494   23461457.4814
       967.2664
   7149106.32548   5553345.03845  22648058.7634   22648053.1224
     -4048.3444
   -159397.07749   -126834.05747  21359816.3644   21359811.9074
      -155.4694
 04  9  9 21 33  0.0010000  0  7G 3G 8G13G10G19G23G27
   1063639.74247    825273.04343  23180423.1534   23180419.9814
     -1199.7664
  -2587382.66448  -2014953.33045  22310595.7944   22310591.7514
      1070.1884
   2624833.42849   2037746.13647  20592963.4424   20592958.0634
     -1892.6414
    -62022.39046    -43825.02942  24398082.9584   24398080.8334
      1088.8284
  -2625647.52947  -2037669.79943  23458709.8494   23458704.6494
       961.6724
   7209867.14948   5600691.10945  22659621.5214   22659615.7984
     -4053.1414
   -157046.73049   -125002.60347  21360263.2784   21360258.8414
      -158.0164
 04  9  9 21 33 15.0010000  0  7G 3G 8G13G10G19G23G27
   1081712.46547    839355.68343  23183861.8334   23183858.9194
     -1209.9064
  -2603407.84348  -2027440.46645  22307545.6854   22307542.7984
      1066.5314
   2653288.20349   2059918.68947  20598378.6614   20598373.2864
     -1901.2664
    -78291.06746    -56501.88142  24394986.4814   24394984.7084
      1080.3754
  -2640021.57947  -2048870.32043  23455973.5284   23455969.2864
       954.9694
   7270706.20548   5648098.12745  22671198.6614   22671193.1224
     -4058.7194
   -154649.97449   -123134.99347  21360719.3884   21360715.0364
      -161.4844
 04  9  9 21 33 30.0010000  0  7G 3G 8G13G10G19G23G27
   1099931.49048    853552.32943  23187328.7084   23187325.4464
     -1219.4844
  -2619385.86848  -2039890.85445  22304505.7004   22304502.4814
      1063.6094
   2681865.66449   2082186.83447  20603816.3724   20603810.9424
     -1909.3284
    -94441.86745    -69086.89542  24391913.1854   24391911.8604
      1072.7344
  -2654303.45647  -2059999.01643  23453255.4814   23453251.1224
       949.0164
   7331622.12348   5695565.04045  22682790.5994   22682784.7784
     -4063.7344
   -152207.95249   -121232.12146  21361184.1924   21361179.4074
      -164.4064
 04  9  9 21 33 45.0010000  0  7G 3G 8G13G10G19G23G27
   1118299.09648    867864.76343  23190824.3564   23190821.3334
     -1229.2344
  -2635314.43848  -2052302.72446  22301474.7164   22301470.7314
      1060.5314
   2710568.03149   2104552.32347  20609278.7004   20609272.9974
     -1917.3284
   -110472.33446    -81578.10042  24388862.7084   24388860.8684
      1064.9534
  -2668490.67347  -2071053.94243  23450556.5134   23450551.8644
       942.9694
   7392616.85548   5743093.36545  22694397.7394   22694391.8604
     -4068.7194
   -149718.58849   -119292.34647  21361657.8644   21361653.2594
      -167.2504
 04  9  9 21 34  0.0010000  0  7G 3G 8G13G10G19G23G27
   1136810.24348    882289.04243  23194346.5134   23194343.3764
     -1238.5624
  -2651198.48948  -2064679.87345  22298452.3414   22298448.4034
      1057.7034
   2739390.31249   2127011.23647  20614763.1694   20614757.6574
     -1925.2504
   -126387.26246    -93979.36942  24385835.3964   24385832.8804
      1057.2974
  -2682587.79847  -2082038.66143  23447874.0674   23447869.1494
       936.9844
   7453685.26648   5790679.09545  22706018.8024   22706013.1734
     -4073.4064
   -147186.82049   -117319.55147  21362139.9744   21362135.4814
      -169.9694
 04  9  9 21 34 15.0010000  0  7G 3G 8G13G10G19G23G27
   1155462.64348    896823.40643  23197896.1304   23197893.2004
     -1248.2974
  -2667040.24648  -2077024.08445  22295437.5994   22295433.1064
      1054.5314
   2768330.15949   2149561.76746  20620270.0994   20620264.5444
     -1933.3444
   -142188.80746   -106292.19042  24382827.3644   24382825.6384
      1049.5004
  -2696596.91447  -2092954.81143  23445207.9504   23445203.2124
       930.8754
   7514824.78448   5838320.24345  22717653.1224   22717647.0014
     -4078.4224
   -144614.93149   -115315.47547  21362629.6384   21362624.5244
      -172.8594
 04  9  9 21 34 30.0010000  0  7G 3G 8G13G10G19G23G27
   1174266.30248    911475.59543  23201474.2554   23201471.6464
     -1258.5944
  -2682829.91148  -2089327.69845  22292432.6064   22292428.4664
      1050.9224
   2797397.72649   2172211.82847  20625801.1774   20625795.9854
     -1942.0624
   -157866.66146   -118508.61942  24379843.9974   24379842.5404
      1041.1414
  -2710507.71147  -2103794.35044  23442560.8724   23442555.9504
       924.0944
   7576045.15048   5886024.38945  22729303.3104   22729297.4784
     -4083.9534
   -141993.04549   -113272.43847  21363128.1854   21363123.7394
      -176.4064
 04  9  9 21 34 45.0010000  0  7G 3G 8G13G10G19G23G27
   1193217.95348    926243.12743  23205080.6144   23205077.7824
     -1268.5944
  -2698570.76149  -2101593.25845  22289437.2394   22289433.4744
      1047.6094
   2826589.54749   2194958.68447  20631356.3964   20631350.9894
     -1950.5004
   -173423.87046   -130631.14642  24376884.0754   24376881.8374
      1032.9384
  -2724323.19848  -2114559.61443  23439931.7634   23439927.1104
       917.7504
   7637342.89548   5933788.83345  22740967.9274   22740961.4544
     -4089.2814
   -139324.41949   -111192.98447  21363635.9584   21363631.2554
      -179.6724
 04  9  9 21 35  0.0010000  0  7G 3G 8G13G10G19G23G27
   1212316.16548    941124.86243  23208715.0134   23208711.7314
     -1278.1414
  -2714264.24848  -2113821.93145  22286450.4894   22286447.1854
      1044.6564
   2855904.16949   2217801.23347  20636935.4274   20636929.8844
     -1958.3914
   -188861.60346   -142660.50242  24373946.5364   24373944.5524
      1025.1884
  -2738044.49647  -2125251.48943  23437320.0834   23437315.6534
       911.5944
   7698716.53648   5981612.42045  22752646.6144   22752640.3924
     -4094.0784
   -136610.60649   -109078.30847  21364152.1854   21364147.9464
      -182.3914
 04  9  9 21 35 15.0010000  0  7G 3G 8G13G10G19G23G27
   1231556.63548    956117.44743  23212376.4584   23212373.0564
     -1287.6094
  -2729914.44049  -2126016.86545  22283472.7474   22283469.0954
      1041.6724
   2885337.42949   2240736.24447  20642536.3174   20642531.1964
     -1966.3914
   -204183.97446   -154599.96342  24371029.7164   24371028.1344
      1017.4844
  -2751675.54347  -2135873.04343  23434727.1614   23434721.4464
       905.4534
   7760161.55648   6029491.60845  22764339.1774   22764333.2904
     -4098.9374
   -133855.75449   -106931.67947  21364676.5674   21364672.2084
      -185.2504
 04  9  9 21 35 30.0010000  0  7G 3G 8G13G10G19G23G27
   1250952.59248    971231.19543  23216067.4814   23216063.8214
     -1297.8284
  -2745508.33948  -2138167.93045  22280505.3884   22280500.9424
      1038.0784
   2914902.45749   2263773.92347  20648162.0054   20648156.6964
     -1975.0314
   -219377.56846   -166439.15342  24368138.9114   24368136.9504
      1009.0004
  -2765202.88848  -2146413.78443  23432152.6224   23432146.8294
       898.6414
   7821690.87548   6077436.50345  22776048.2474   22776042.1614
     -4104.3124
   -131046.78649   -104742.85847  21365211.4894   21365206.5094
      -188.6724
 04  9  9 21 35 45.0010000  0  7G 3G 8G13G10G19G23G27
   1270488.12348    986453.66443  23219785.0054   23219781.3844
     -1307.0624
  -2761061.90848  -2150287.57245  22277545.6614   22277541.6464
      1035.5784
   2944583.29949   2286901.85647  20653809.6614   20653804.2284
     -1982.5624
   -234458.13746   -178190.22142  24365269.2784   24365267.0714
      1001.6724
  -2778642.20347  -2156885.93443  23429595.2634   23429589.4814
       893.0634
   7883288.30548   6125434.46245  22787769.3564   22787763.2824
     -4108.7344
   -128199.82249   -102524.44047  21365752.8804   21365748.4034
      -191.1094
 04  9  9 21 36  0.0010000  0  7G 3G 8G13G10G19G23G27
   1290171.51548   1001791.39743  23223530.0674   23223527.4074
     -1316.7034
  -2776566.61749  -2162369.14645  22274594.8564   22274591.4584
      1032.4694
   2974388.41349   2310126.61747  20659481.8884   20659476.1614
     -1990.7034
   -249417.13346   -189846.52642  24362422.2864   24362420.3644
       993.7504
  -2791984.75747  -2167282.69344  23427055.9814   23427050.5564
       886.7194
   7944962.10448   6173491.92745  22799505.5604   22799499.8604
     -4113.5624
   -125306.33549   -100269.77147  21366303.7474   21366299.1344
      -193.9534
 04  9  9 21 36 15.0010000  0  7G 3G 8G13G10G19G23G27
   1309995.09448   1017238.34043  23227302.8104   23227300.1574
     -1326.5004
  -2792030.04448  -2174418.55046  22271652.8724   22271648.5634
      1029.2664
   3004310.05949   2333442.17447  20665175.4274   20665170.4354
     -1998.9374
   -264261.80246   -201413.75142  24359598.3174   24359594.8174
       985.5784
  -2805237.83948  -2177609.73444  23424534.0994   23424528.8064
       880.2194
   8006704.49648   6221602.85245  22811254.9034   22811249.5134
     -4118.6724
   -122373.87749    -97984.73247  21366861.4504   21366857.0604
      -197.0784
 04  9  9 21 36 30.0010000  0  7G 3G 8G13G10G19G23G27
   1329964.77748   1032799.12743  23231102.8644   23231100.0714
     -1335.5004
  -2807446.43749  -2186431.30446  22268719.1384   22268715.5284
      1026.9224
   3034354.07749   2356853.09247  20670893.0054   20670887.6964
     -2006.2814
   -278986.21746   -212887.28142  24356795.8174   24356793.4584
       978.2814
  -2818395.37448  -2187862.32944  23422030.0754   23422025.2744
       874.7194
   8068520.96548   6269771.47745  22823017.9664   22823012.3174
     -4122.8124
   -119396.76849    -95664.89947  21367427.8644   21367423.3994
      -199.1874
 04  9  9 21 36 45.0010000  0  7G 3G 8G13G10G19G23G27
   1350077.46748   1048471.35843  23234930.1064   23234927.3964
     -1345.6094
  -2822818.94448  -2198409.86646  22265793.9354   22265790.0954
      1023.4534
   3064517.44649   2380357.01047  20676632.8964   20676627.0484
     -2014.8914
   -293593.26447   -224269.39842  24354016.3644   24354013.6344
       969.8754
  -2831460.13448  -2198042.62043  23419544.8884   23419538.9664
       867.9844
   8130408.32648   6317995.35445  22834794.8884   22834789.2244
     -4128.2664
   -116378.10949    -93312.69247  21368002.4424   21367997.6884
      -202.6414
 04  9  9 21 37  0.0010000  0  7G 3G 8G13G10G19G23G27
   1370330.70448   1064253.11043  23238784.2394   23238781.7284
     -1355.3124
  -2838149.94548  -2210356.08645  22262876.3564   22262872.4814
      1020.3134
   3094797.60449   2403951.92347  20682394.9194   20682389.6464
     -2023.0004
   -308085.10746   -235561.72742  24351258.3884   24351255.9464
       961.9064
  -2844434.34048  -2208152.33944  23417074.9354   23417070.5174
       861.5004
   8192363.87648   6366272.38145  22846584.9584   22846579.3374
     -4132.9844
   -113320.38149    -90930.03446  21368583.9744   21368579.8254
      -205.5314
 04  9  9 21 37 15.0010000  0  7G 3G 8G13G10G19G23G27
   1390727.39848   1080146.64843  23242665.5284   23242662.6694
     -1364.6414
  -2853436.51348  -2222267.68346  22259967.1534   22259963.4504
      1017.5474
   3125197.46149   2427640.11747  20688180.0054   20688174.0364
     -2030.6564
   -322458.64546   -246761.90242  24348523.3334   24348520.6224
       954.2504
  -2857314.67747  -2218188.92544  23414623.9034   23414619.2714
       855.4694
   8254390.37748   6414604.66745  22858388.0284   22858382.2714
     -4137.4694
   -110220.68949    -88514.69047  21369173.9424   21369169.3724
      -208.1414
 04  9  9 21 37 30.0010000  0  7G 3G 8G13G10G19G23G27
   1411263.94048   1096149.13843  23246573.7084   23246569.9814
     -1373.9374
  -2868682.27748  -2234147.46746  22257065.6534   22257062.0604
      1014.8914
   3155713.35549   2451418.73747  20693986.6144   20693980.8924
     -2038.4534
   -336717.28146   -257872.48842  24345810.0134   24345806.8414
       946.4694
  -2870104.54447  -2228155.02544  23412190.2004   23412185.5674
       849.4534
   8316484.02248   6462989.28845  22870204.0914   22870198.2554
     -4141.9844
   -107082.61049    -86069.42147  21369771.4114   21369766.6384
      -210.6414
 04  9  9 21 37 45.0010000  0  7G 3G 8G13G10G19G23G27
   1431941.35348   1112261.38143  23250507.8174   23250505.0444
     -1383.1094
  -2883886.28049  -2245994.73846  22254172.8414   22254168.8254
      1012.2344
   3186346.44049   2475288.65847  20699816.1534   20699810.6854
     -2046.0314
   -350859.70346   -268892.50842  24343118.7944   24343116.1144
       939.0314
  -2882802.48447  -2238049.49544  23409773.5604   23409769.3334
       843.5314
   8378645.67048   6511426.88845  22882033.0054   22882027.5444
     -4146.3124
   -103905.15449    -83593.47047  21370375.8804   21370370.8844
      -213.1254
 04  9  9 21 38  0.0010000  0  7G 3G 8G13G10G19G23G27
   1452761.91748   1128485.22343  23254470.2244   23254466.8104
     -1392.6724
  -2899046.22549  -2257807.65846  22251287.8104   22251284.1224
      1009.3444
   3217099.02449   2499251.70447  20705668.0444   20705662.8294
     -2054.0784
   -364883.46646   -279820.07842  24340450.2864   24340447.7284
       931.0474
  -2895406.01347  -2247870.41244  23407375.2554   23407370.3684
       837.1724
   8440877.26948   6559919.00545  22893875.6854   22893869.8684
     -4151.0314
   -100686.19749    -81085.18947  21370988.5914   21370984.0364
      -215.9064
 04  9  9 21 38 15.0010000  0  7G 3G 8G13G10G19G23G27
   1473728.26848   1144822.64043  23258460.0214   23258456.7204
     -1402.8284
  -2914159.58349  -2269584.30545  22248412.3334   22248408.2244
      1005.7664
   3247973.69049   2523309.88247  20711543.5364   20711537.8454
     -2062.6414
   -378785.60446   -290652.90242  24337804.2474   24337802.3494
       922.5004
  -2907912.13248  -2257615.41744  23404996.0994   23404990.9234
       830.2194
   8503181.37448   6608467.62745  22905731.6774   22905725.5634
     -4156.3124
    -97422.86249    -78542.33147  21371609.5134   21371604.7864
      -219.2504
 04  9  9 21 38 30.0010000  0  7G 3G 8G13G10G19G23G27
   1494839.25548   1161272.74243  23262477.0284   23262474.1614
     -1412.3284
  -2929227.14549  -2281325.23846  22245544.9424   22245541.2394
      1002.9384
   3278969.16649   2547462.18247  20717441.7864   20717436.3764
     -2070.4224
   -392567.14446   -301391.75042  24335182.3334   24335179.2124
       914.7194
  -2920321.70347  -2267285.15144  23402633.8964   23402629.1884
       824.0474
   8565556.58848   6657071.65045  22917601.1774   22917595.8724
     -4160.7504
    -94116.44549    -75965.89547  21372238.6304   21372234.1064
      -221.8754
 04  9  9 21 38 45.0010000  0  7G 3G 8G13G10G19G23G27
   1516096.92948   1177837.14943  23266522.1614   23266518.9744
     -1421.9534
  -2944247.12549  -2293029.11945  22242686.5054   22242682.4584
       999.9224
   3310087.45549   2571710.20147  20723363.2084   20723357.7634
     -2078.5004
   -406225.85246   -312034.90442  24332583.1774   24332579.5714
       906.6094
  -2932632.43547  -2276877.90544  23400291.4664   23400286.4584
       817.6094
   8628004.78948   6705732.53245  22929484.8254   22929479.2904
     -4165.5164
    -90764.96149    -73354.35447  21372876.6614   21372872.0134
      -224.8284
 04  9  9 21 39  0.0010000  0  7G 3G 8G13G10G19G23G27
   1537497.75748   1194513.12543  23270594.8964   23270591.9194
     -1431.6414
  -2959222.66749  -2304698.34446  22239836.8964   22239832.6384
       996.7194
   3341325.15949   2596051.25346  20729307.2394   20729302.4894
     -2086.6414
   -419765.02246   -322584.87842  24330006.5604   24330003.3334
       898.4534
  -2944847.57948  -2286396.16844  23397967.0444   23397962.1614
       810.9694
   8690522.22848   6754447.39844  22941381.2474   22941375.4894
     -4170.2974
    -87371.86549    -70710.36747  21373522.2244   21373517.9314
      -227.7194
 04  9  9 21 39 15.0010000  0  8G 3G 8G13G10G19G23G27G28
   1559038.61648   1211298.21443  23274693.7314   23274691.0364
     -1440.9694
  -2974157.13149  -2316335.58045  22236994.8174   22236990.6884
       994.0474
   3372679.18449   2620482.96546  20735273.9974   20735269.0014
     -2094.3594
   -433187.41947   -333043.86742  24327452.2164   24327449.0404
       890.6564
  -2956969.74347  -2295841.98844  23395660.1774   23395654.8064
       804.8914
   8753105.64848   6803213.64944  22953291.0214   22953285.0244
     -4174.6724
    -83940.22349    -68036.36147  21374174.9034   21374170.8454
      -230.2344
    -90262.65357    -70396.67252  24584457.5524   24584455.2004
      2253.3594
 04  9  9 21 39 30.0010000  0  8G 3G 8G13G10G19G23G27G28
   1580719.94148   1228192.74243  23278819.3104   23278816.5874
     -1450.4844
  -2989049.87149  -2327940.29946  22234160.6774   22234156.7514
       991.1414
   3404149.95849   2645005.62947  20741262.7394   20741257.1344
     -2102.2974
   -446492.41546   -343411.36842  24324920.4354   24324917.5054
       882.7504
  -2968998.25647  -2305214.83644  23393371.3884   23393365.8884
       798.4844
   8815755.30848   6852031.53445  22965212.7714   22965207.4464
     -4179.1094
    -80469.61449    -65331.99247  21374835.7164   21374830.9314
      -233.0004
   -124048.91547    -96723.51542  24578028.1304   24578025.3964
      2250.9224
 04  9  9 21 39 45.0010000  0  8G 3G 8G13G10G19G23G27G28
   1602545.76148   1245199.89143  23282973.3494   23282969.3804
     -1459.7194
  -3003897.22049  -2339509.64446  22231335.5524   22231331.5564
       988.5004
   3435741.40049   2669622.32547  20747274.2164   20747269.1884
     -2109.9374
   -459675.93246   -353684.22942  24322411.7554   24322409.0914
       874.9694
  -2980928.89047  -2314511.38844  23391100.9424   23391095.8764
       792.2664
   8878474.98948   6900903.97545  22977148.2714   22977142.2284
     -4183.4064
    -76956.12149    -62594.18247  21375504.4584   21375499.8064
      -235.4534
   -157797.59847   -123021.15242  24571605.5284   24571603.8964
      2248.7504
 04  9  9 21 40  0.0010000  0  8G 3G 8G13G10G19G23G27G28
   1624516.22448   1262319.73443  23287154.0284   23287150.3884
     -1469.5624
  -3018698.71149  -2351043.25446  22228518.7004   22228514.9744
       985.1884
   3467453.68249   2694333.19247  20753309.0364   20753303.3564
     -2118.2814
   -472737.53246   -363862.06942  24319925.5364   24319923.0054
       866.6564
  -2992761.16847  -2323731.30444  23388849.7864   23388844.4464
       785.4064
   8941264.65448   6949830.94544  22989096.6304   22989090.8494
     -4188.4374
    -73399.57349    -59822.84847  21376180.7474   21376176.4854
      -238.5784
   -191508.48547   -149289.27142  24565189.9664   24565187.9074
      2246.0004
 04  9  9 21 40 15.0010000  0  8G 3G 8G13G10G19G23G27G28
   1646632.02448   1279552.81143  23291362.6144   23291359.4234
     -1479.2194
  -3033453.74549  -2362540.67646  22225710.7944   22225707.4194
       982.1724
   3499287.67849   2719138.89146  20759366.6614   20759361.5524
     -2126.2194
   -485676.31746   -373944.21842  24317464.7244   24317461.1734
       858.4534
  -3004494.04047  -2332873.76844  23386616.4664   23386611.2474
       778.9534
   9004124.84648   6998812.88245  23001058.4814   23001052.4154
     -4192.9534
    -69799.20649    -57017.36047  21376865.9504   21376861.5404
      -241.4224
   -225180.59747   -175527.16242  24558782.9664   24558780.7784
      2243.5474
 04  9  9 21 40 30.0010000  0  8G 3G 8G13G10G19G23G27G28
   1668892.31548   1296898.49543  23295598.6304   23295595.4234
     -1488.9534
  -3048163.14349  -2374002.52446  22222911.5754   22222907.8994
       979.0004
   3531242.26449   2744038.55547  20765447.3334   20765442.0674
     -2134.4224
   -498492.85146   -383931.09542  24315025.0444   24315021.8804
       850.2034
  -3016127.97747  -2341939.13744  23384402.6144   23384397.9464
       772.1884
   9067054.46948   7047848.91045  23013033.7244   23013027.9544
     -4197.7344
    -66155.88049    -54178.40147  21377559.1464   21377554.6424
      -244.4224
   -258814.53947   -201735.39842  24552382.1924   24552380.5914
      2240.8914
 04  9  9 21 40 45.0010000  0  8G 3G 8G13G10G19G23G27G28
   1691296.34648   1314356.18643  23299862.1384   23299858.7864
     -1498.3124
  -3062827.58649  -2385429.35746  22220121.4194   22220117.5174
       976.1884
   3563316.92249   2769031.80247  20771551.1774   20771545.7164
     -2142.2664
   -511187.63746   -393823.12842  24312609.6064   24312606.3684
       842.3134
  -3027663.49347  -2350927.83544  23382207.4814   23382202.2204
       765.7974
   9130052.58648   7096938.30545  23025021.9194   23025015.6424
     -4202.0944
    -62470.32149    -51306.53146  21378260.4894   21378256.2314
      -247.1094
   -292410.86547   -227914.20442  24545989.2714   24545986.9424
      2238.5004
 04  9  9 21 41  0.0010000  0  8G 3G 8G13G10G19G23G27G28
   1713844.88748   1331926.46743  23304153.0134   23304149.9034
     -1508.2974
  -3077446.25549  -2396820.50546  22217339.4194   22217335.9784
       972.8284
   3595512.38749   2794119.15647  20777677.4894   20777672.5094
     -2150.5784
   -523759.74146   -403619.52242  24310216.3254   24310213.6494
       833.8444
  -3039099.58847  -2359839.01344  23380031.4114   23380026.3174
       758.9064
   9193119.87048   7146081.61245  23037022.9664   23037017.2474
     -4207.0004
    -58741.86449    -48401.22347  21378970.0914   21378965.7554
      -250.1564
   -325968.60847   -254063.02542  24539603.2714   24539601.3764
      2235.6724
 04  9  9 21 41 15.0010000  0  8G 3G 8G13G10G19G23G27G28
   1736539.72748   1349610.76743  23308471.0994   23308467.5324
     -1518.0004
  -3092017.34449  -2408174.58846  22214566.3104   22214562.5754
       969.7034
   3627830.38349   2819302.00647  20783827.4424   20783822.5444
     -2158.7504
   -536207.00646   -413318.67442  24307847.8724   24307845.5834
       825.6094
  -3050434.00047  -2368671.00544  23377874.2084   23377869.3254
       752.1254
   9256257.91647   7195280.03945  23049037.6854   23049032.3964
     -4211.7034
    -54968.54649    -45460.97847  21379688.0914   21379683.8684
      -253.1564
   -359485.83647   -280180.29642  24533225.3494   24533223.1104
      2233.0634
 04  9  9 21 41 30.0010000  0  8G 3G 8G13G10G19G23G27G28
   1759374.63148   1367404.19243  23312816.9034   23312812.9424
     -1526.6874
  -3106547.09049  -2419496.45046  22211801.6614   22211797.9974
       967.6254
   3660264.66149   2844575.46147  20789999.8254   20789994.5244
     -2165.8284
   -548535.53646   -422925.29742  24305502.0914   24305499.0914
       818.2974
  -3061672.68247  -2377428.38644  23375736.6614   23375730.2474
       746.3594
   9319460.34747   7244528.64745  23061064.7634   23061059.5914
     -4215.2974
    -51156.50349    -42490.55647  21380413.4894   21380409.1034
      -255.0474
   -392968.45447   -306270.55942  24526853.7634   24526851.6184
      2231.3594
 04  9  9 21 41 45.0010000  0  8G 3G 8G13G10G19G23G27G28
   1782353.21448   1385309.58543  23317189.1144   23317185.5794
     -1536.7664
  -3121031.43249  -2430782.94046  22209045.3964   22209041.4354
       964.0634
   3692818.89949   2869942.40446  20796194.3564   20796188.9854
     -2174.2814
   -560741.38045   -432436.31942  24303178.9814   24303176.3964
       809.7034
  -3072811.73247  -2386108.11344  23373616.0054   23373610.6574
       739.2504
   9382730.54147   7293830.04545  23073105.0524   23073099.4354
     -4220.2664
    -47302.16249    -39487.18147  21381147.1064   21381142.5754
      -258.4224
   -426412.73747   -332330.96142  24520489.4584   24520487.9974
      2228.2504
 04  9  9 21 42  0.0010000  0  8G 3G 8G13G10G19G23G27G28
   1805478.16248   1403329.04343  23321589.6224   23321585.8804
     -1546.0784
  -3135467.98549  -2442032.17546  22206298.2004   22206294.0714
       961.3444
   3725495.91749   2895404.99247  20802412.6854   20802407.6734
     -2182.1414
   -572821.69145   -441849.50742  24300880.1224   24300877.7744
       801.5474
  -3083848.10947  -2394707.85244  23371515.5214   23371509.9114
       732.7194
   9446071.07847   7343186.27944  23085157.8804   23085152.6384
     -4224.5624
    -43402.99049    -36448.85346  21381888.9504   21381884.7594
      -261.0314
   -459815.71948   -358359.22442  24514133.0444   24514131.1424
      2225.9384
 04  9  9 21 42 15.0010000  0  8G 3G 8G13G10G19G23G27G28
   1828741.53148   1421456.33243  23326016.8564   23326012.8334
     -1555.5314
  -3149864.59749  -2453250.30946  22203558.7004   22203554.4704
       958.4384
   3758287.58049   2920956.94846  20808653.0134   20808647.6424
     -2189.9224
   -584784.24446   -451170.98542  24298603.6064   24298601.4894
       793.6254
  -3094789.41247  -2403233.50444  23369433.3884   23369428.7084
       726.1564
   9509473.80048   7392590.94344  23097223.3644   23097217.5214
     -4228.9534
    -39466.73648    -33381.64247  21382637.7714   21382633.9854
      -263.6254
   -493185.17848   -384361.29242  24507782.8964   24507781.1694
      2223.5314
 04  9  9 21 42 30.0010000  0  8G 3G 8G13G10G19G23G27G28
   1852150.54348   1439697.13843  23330471.4814   23330467.8134
     -1564.9694
  -3164214.13049  -2464431.74146  22200828.1304   22200823.6924
       955.5164
   3791201.22349   2946603.92847  20814916.0834   20814910.3764
     -2197.8444
   -596621.55846   -460394.83542  24296351.2634   24296348.9194
       785.5004
  -3105628.11447  -2411679.20044  23367370.9194   23367365.5174
       719.5634
   9572945.67747   7442049.53844  23109301.7244   23109296.3764
     -4233.2504
    -35486.21449    -30279.92147  21383395.2714   21383390.9234
      -266.3754
   -526513.66248   -410331.51742  24501440.8724   24501438.8334
      2220.9534
 04  9  9 21 42 45.0010000  0  8G 3G 8G13G10G19G23G27G28
   1875702.62348   1458049.39143  23334953.6854   23334949.3414
     -1575.1564
  -3178519.01049  -2475578.39746  22198105.8104   22198101.6034
       951.9224
   3824234.13748   2972343.85347  20821201.7084   20821196.5094
     -2206.5164
   -608335.91245   -469522.84042  24294122.2634   24294118.9894
       776.5474
  -3116366.49347  -2420046.73444  23365327.0134   23365322.0284
       712.2194
   9636484.05047   7491559.88944  23121392.5284   23121387.1264
     -4238.3914
    -31463.95949    -27145.70047  21384160.9034   21384156.3844
      -269.8594
   -559803.59547   -436271.61942  24495105.6614   24495103.9584
      2217.7664
 04  9  9 21 43  0.0010000  0  8G 3G 8G13G10G19G23G27G28
   1899400.28448   1476515.10043  23339462.8104   23339459.1224
     -1584.5784
  -3192776.51349  -2486688.11945  22195392.6464   22195389.1424
       949.0784
   3857389.09549   2998178.86747  20827511.4034   20827505.9624
     -2214.2034
   -619924.53946   -478552.95242  24291917.0674   24291914.0324
       768.5474
  -3127001.61447  -2428333.78844  23363303.4744   23363298.2164
       705.6884
   9700091.29047   7541123.93344  23133496.5054   23133491.0444
     -4242.6094
    -27397.40848    -23976.95447  21384934.8024   21384930.3374
      -272.4534
   -593052.11047   -462179.51342  24488778.4744   24488776.8924
      2215.3134
 04  9  9 21 43 15.0010000  0  8G 3G 8G13G10G19G23G27G28
   1923242.10448   1495093.15543  23343999.1304   23343995.8684
     -1594.4224
  -3206988.19649  -2497762.13546  22192688.0364   22192684.6464
       945.7504
   3890664.59648   3024107.82647  20833843.2634   20833838.0484
     -2222.5944
   -631388.66146   -487486.01742  24289734.7784   24289732.4744
       759.9694
  -3137534.67047  -2436541.32844  23361299.5284   23361294.2594
       698.5944
   9763765.77847   7590740.37844  23145613.8334   23145608.2084
     -4247.3754
    -23288.08248    -20774.87047  21385716.7944   21385711.8534
      -275.5314
   -626260.50947   -488056.13742  24482458.6534   24482457.6344
      2212.3754
 04  9  9 21 43 30.0010000  0  8G 3G 8G13G10G19G23G27G28
   1947228.65648   1513783.98443  23348564.3174   23348560.8294
     -1604.2194
  -3221153.40749  -2508799.96246  22189992.7394   22189988.8644
       942.5634
   3924061.04948   3050131.04647  20840198.4974   20840193.1384
     -2230.7664
   -642727.45445   -496321.39442  24287577.6774   24287574.8804
       751.5314
  -3147964.83647  -2444668.70244  23359314.3884   23359309.2944
       691.6414
   9827507.85048   7640409.47744  23157743.0674   23157737.2824
     -4251.9694
    -19135.26048    -17538.90547  21386507.0604   21386501.9704
      -278.5474
   -659428.04747   -513900.86742  24476147.5604   24476145.7674
      2209.5474
 04  9  9 21 43 45.0010000  0  8G 3G 8G13G10G19G23G27G28
   1971359.99648   1532587.61943  23353156.4894   23353152.9974
     -1613.6874
  -3235271.87649  -2519801.33746  22187305.9584   22187302.0484
       939.6254
   3957578.69148   3076248.67747  20846576.4974   20846571.3884
     -2238.6724
   -653940.59346   -505058.87642  24285443.7394   24285441.5444
       743.3134
  -3158291.57047  -2452715.45144  23357348.9114   23357343.9074
       684.9064
   9891317.56047   7690131.28844  23169885.5284   23169880.4154
     -4256.2504
    -14938.70348    -14268.85247  21387305.5994   21387301.0134
      -281.2664
   -692554.46147   -539713.59842  24469843.2944   24469842.3214
      2207.0004
 04  9  9 21 44  0.0010000  0  8G 3G 8G13G10G19G23G27G28
   1995636.54948   1551504.40343  23357775.5674   23357772.8964
     -1623.0944
  -3249343.34049  -2530766.09246  22184628.0364   22184624.4744
       936.7194
   3991217.93848   3102461.05247  20852978.1534   20852972.4114
     -2246.4534
   -665027.36046   -513697.89842  24283334.1694   24283330.9854
       735.1254
  -3168514.18047  -2460681.06644  23355403.8644   23355398.6344
       678.2814
   9955195.03847   7739905.91044  23182041.1464   23182036.1184
     -4260.4374
    -10698.20648    -10964.55246  21388112.7004   21388108.6964
      -283.9064
   -725639.10747   -565493.75442  24463547.5834   24463545.8644
      2204.5634
 04  9  9 21 44 15.0010000  0  8G 3G 8G13G10G19G23G27G28
   2020050.42348   1570528.18843  23362421.5994   23362418.3134
     -1633.0164
  -3263375.61149  -2541700.31846  22181957.8564   22181953.9784
       933.3444
   4024970.84048   3128762.01547  20859401.1304   20859395.8644
     -2254.8754
   -675995.58746   -522244.54342  24281247.4034   24281244.2904
       726.4694
  -3178640.26747  -2468571.48544  23353476.9114   23353471.8604
       670.9534
  10019132.18148   7789727.01144  23194208.4504   23194202.6534
     -4265.3284
     -6421.55648     -7632.10446  21388926.0754   21388921.5794
      -287.2034
   -758689.59947   -591247.34342  24457258.0834   24457256.9314
      2201.4534
 04  9  9 21 44 30.0010000  0  8G 3G 8G13G10G19G23G27G28
   2044615.87648   1589670.12843  23367096.0214   23367092.8494
     -1642.4374
  -3277354.29549  -2552592.77646  22179298.1224   22179294.4274
       930.4224
   4058851.80748   3155162.75347  20865848.5054   20865843.0564
     -2262.7504
   -686830.68746   -530687.47942  24279185.3414   24279182.7714
       718.0944
  -3188655.25348  -2476375.33644  23351571.1774   23351565.7634
       664.1724
  10083143.08947   7839605.59044  23206388.8804   23206383.6384
     -4269.5784
     -2094.40948     -4260.29147  21389749.4894   21389745.0714
      -289.9694
   -791691.49747   -616962.98142  24450978.7164   24450976.5994
      2198.7664
 04  9  9 21 44 45.0010000  0  8G 3G 8G13G10G19G23G27G28
   2069321.34448   1608921.16443  23371796.8804   23371794.0484
     -1651.6874
  -3291290.96949  -2563452.51746  22176645.5754   22176642.0674
       927.7504
   4092849.16348   3181654.19147  20872317.9894   20872312.6224
     -2270.3124
   -697543.98646   -539035.47042  24277146.4744   24277143.6924
       710.1254
  -3198570.26447  -2484101.26444  23349684.2864   23349679.0834
       657.7034
  10147216.13247   7889532.59744  23218581.4584   23218576.3684
     -4273.5474
      2271.67548      -858.14047  21390580.6224   21390575.7394
      -292.3754
   -824656.08247   -642649.60342  24444704.8884   24444703.5484
      2196.4694
 04  9  9 21 45  0.0010000  0  8G 3G 8G13G10G19G23G27G28
   2094171.02348   1628284.54943  23376525.7784   23376522.2984
     -1661.3754
  -3305181.17949  -2574276.04146  22174002.7314   22173998.6574
       924.4384
   4126967.13449   3208239.62747  20878810.2944   20878804.9354
     -2278.5314
   -708131.05346   -547285.10442  24275131.4744   24275128.5754
       701.7504
  -3208380.84047  -2491745.83644  23347817.5604   23347812.3294
       650.6884
  10211355.35748   7939511.15444  23230787.1464   23230781.4744
     -4278.0474
      6680.98249      2577.68846  21391419.7004   21391415.3214
      -295.4064
   -857578.81247   -668303.57042  24438440.0994   24438437.7594
      2193.4844
 04  9  9 21 45 15.0010000  0  8G 3G 8G13G10G19G23G27G28
   2119164.88648   1647760.28943  23381282.4664   23381279.1264
     -1671.2504
  -3319024.95249  -2585063.37546  22171368.1464   22171364.1814
       921.1724
   4161205.78149   3234919.07047  20885325.9584   20885320.4894
     -2286.8284
   -718591.64246   -555436.19542  24273140.7394   24273138.9894
       692.9064
  -3218086.70648  -2499308.80344  23345970.5134   23345965.1224
       643.4064
  10275560.45847   7989541.07444  23243005.3024   23242999.5604
     -4282.6094
     11133.45348      6047.15646  21392267.0054   21392262.2044
      -298.4534
   -890459.76747   -693925.06942  24432182.8564   24432181.4624
      2190.4694
 04  9  9 21 45 30.0010000  0  8G 3G 8G13G10G19G23G27G28
   2144303.36248   1667348.73743  23386066.2784   23386062.5634
     -1680.6874
  -3332821.77349  -2595814.12846  22168742.7944   22168738.2124
       918.2344
   4195565.41649   3261692.81147  20891864.1064   20891858.7354
     -2294.6254
   -728925.07746   -563488.21742  24271175.0604   24271171.9424
       684.6414
  -3227687.16347  -2506789.63244  23344143.5994   23344138.3414
       636.5164
  10339831.84648   8039622.63244  23255235.5214   23255230.1734
     -4287.0164
     15629.72748      9550.75147  21393122.4274   21393117.8064
      -301.2194
   -923298.22947   -719513.37042  24425934.5754   24425932.0604
      2187.7344
 04  9  9 21 45 45.0010000  0  8G 3G 8G13G10G19G23G27G28
   2169586.16648   1687049.61143  23390876.4424   23390873.3724
     -1690.7504
  -3346572.06749  -2606528.61746  22166126.0214   22166121.8254
       914.6414
   4230045.91149   3288560.73047  20898425.7004   20898420.2554
     -2303.1564
   -739131.49146   -571441.23042  24269232.1774   24269229.6534
       675.8594
  -3237181.97947  -2514188.16944  23342336.9274   23342332.0994
       629.0164
  10404168.96148   8089755.42444  23267478.2004   23267473.2714
     -4291.7344
     20169.47649     13088.22747  21393986.2394   21393981.5324
      -304.5474
   -956094.17447   -745068.53442  24419693.6064   24419691.2984
      2184.6724
 04  9  9 21 46  0.0010000  0  8G 3G 8G13G10G19G23G27G28
   2195010.24048   1706860.58143  23395714.8564   23395712.3644
     -1699.3444
  -3360278.76449  -2617209.14946  22163517.9894   22163514.0364
       912.5004
   4264644.09449   3315520.35147  20905009.2714   20905004.1104
     -2310.2504
   -749213.75246   -579297.52742  24267314.0214   24267311.6854
       668.2504
  -3246573.99148  -2521506.57344  23340549.3564   23340544.5014
       622.8594
  10468568.60747   8139936.91244  23279733.2004   23279728.3064
     -4295.2194
     24749.64549     16657.18847  21394857.7634   21394853.4194
      -306.4844
   -988850.52347   -770592.93242  24413459.1464   24413457.5674
      2182.6724
 04  9  9 21 46 15.0010000  0  8G 3G 8G13G10G19G23G27G28
   2220576.06548   1726782.00943  23400580.5134   23400577.2744
     -1709.4064
  -3373941.15249  -2627855.15646  22160917.6384   22160914.3644
       909.0164
   4299360.47149   3342572.06347  20911615.7784   20911610.1774
     -2318.7034
   -759171.00846   -587056.40742  24265419.0214   24265416.1494
       659.3134
  -3255862.26748  -2528744.17444  23338782.1854   23338776.9854
       615.3914
  10533031.09747   8190167.37144  23291999.8724   23291994.7044
     -4299.9374
     29370.74949     20258.04647  21395737.0364   21395732.4974
      -309.8284
  -1021566.51747   -796085.79942  24407234.7474   24407232.3104
      2179.3444
 04  9  9 21 46 30.0010000  0  8G 3G 8G13G10G19G23G27G28
   2246287.00248   1746816.52243  23405472.9894   23405469.9234
     -1719.1094
  -3387555.81249  -2638463.97446  22158326.9504   22158323.6654
       905.7814
   4334198.50249   3369718.58347  20918245.0754   20918239.3844
     -2326.7504
   -768999.65046   -594715.05542  24263548.7244   24263546.1224
       650.6884
  -3265043.29848  -2535898.19044  23337034.7634   23337029.6964
       608.2344
  10597559.53947   8240449.24444  23304279.6144   23304274.0404
     -4304.2504
     34036.16749     23893.44447  21396625.3254   21396620.8134
      -312.6874
  -1054238.57147   -821544.44042  24401016.3174   24401014.4894
      2176.4384
 04  9  9 21 46 45.0010000  0  8G 3G 8G13G10G19G23G27G28
   2272144.40948   1766965.12943  23410393.3564   23410390.6184
     -1728.7344
  -3401121.51949  -2649034.64546  22155746.2164   22155741.6814
       902.7504
   4369159.65748   3396961.04747  20924898.0444   20924892.4154
     -2334.8754
   -778698.11346   -602272.29842  24261702.7084   24261700.1574
       642.0944
  -3274115.40047  -2542967.32444  23335308.7554   23335303.0564
       601.1564
  10662155.32147   8290783.54544  23316571.9274   23316565.8174
     -4308.5474
     38747.43149     27564.55647  21397521.5284   21397517.0994
      -315.7034
  -1086865.04447   -846967.59142  24394808.5364   24394805.5634
      2173.5314
 04  9  9 21 47  0.0010000  0  8G 3G 8G13G10G19G23G27G28
   2298141.70148   1787222.77743  23415340.2634   23415337.7284
     -1738.0164
  -3414644.69249  -2659572.14646  22153172.2164   22153168.2394
       899.8284
   4404237.18948   3424294.18147  20931573.0754   20931567.5874
     -2342.6094
   -788272.62446   -609732.92142  24259881.2164   24259878.8174
       633.9064
  -3283084.66648  -2549956.32044  23333601.1694   23333596.1264
       594.2664
  10726811.66947   8341165.10744  23328875.6384   23328870.1264
     -4312.6564
     43498.11749     31266.40547  21398425.6614   21398421.1184
      -318.3124
  -1119452.28447   -872360.14442  24388606.3644   24388604.0954
      2170.9694
 04  9  9 21 47 15.0010000  0  8G 3G 8G13G10G19G23G27G28
   2324282.05148   1807591.87143  23420314.4194   23420311.8334
     -1747.5314
  -3428122.01749  -2670073.94546  22150607.5754   22150603.4114
       896.8594
   4439434.32248   3451720.49947  20938270.9114   20938265.6814
     -2350.5164
   -797719.97246   -617094.47543  24258083.5444   24258080.8764
       625.4534
  -3291947.69248  -2556862.54144  23331914.8254   23331909.6814
       587.2194
  10791531.52247   8391596.11544  23341191.0054   23341186.0714
     -4316.9224
     48291.25548     35001.32847  21399337.5914   21399332.8024
      -321.0474
  -1151996.95547   -897719.55342  24382413.5214   24382411.3024
      2168.0474
 04  9  9 21 47 30.0010000  0  8G 3G 8G13G10G19G23G27G28
   2350561.17848   1828069.12943  23425315.0674   23425312.6884
     -1756.4534
  -3441557.46249  -2680543.10246  22148050.7394   22148046.9744
       894.3914
   4474746.90149   3479236.79347  20944990.7784   20944985.0604
     -2357.9534
   -807044.00147   -624359.94642  24256308.8334   24256306.2514
       617.6094
  -3300708.21148  -2563688.88944  23330247.4194   23330242.2864
       580.7194
  10856310.65047   8442073.31644  23353518.1854   23353513.3964
     -4320.4374
     53122.93349     38766.27347  21400257.4034   21400252.5754
      -323.3124
  -1184502.95847   -923048.80242  24376227.9584   24376225.2084
      2165.8754
 04  9  9 21 47 45.0020000  0  8G 3G 8G13G10G19G23G27G28
   2376985.93648   1848659.85643  23430343.6504   23430340.5804
     -1766.3594
  -3454947.05549  -2690976.52946  22145503.0414   22145499.2954
       890.8914
   4510182.31048   3506848.78747  20951733.5644   20951728.5214
     -2366.2974
   -816240.16546   -631525.77443  24254558.9394   24254556.5064
       608.7034
  -3309361.57848  -2570431.72544  23328601.1974   23328595.8854
       573.2034
  10921158.18347   8492603.81944  23365858.2604   23365853.4164
     -4325.0474
     57998.33948     42565.29446  21401184.6274   21401180.3264
      -326.5784
  -1216967.32147   -948345.63842  24370050.7054   24370047.7564
      2162.5784
 04  9  9 21 48  0.0020000  0  8G 3G 8G13G10G19G23G27G28
   2403551.74448   1869360.47743  23435399.3384   23435396.4394
     -1775.6874
  -3468290.12449  -2701373.72746  22142964.1974   22142960.0254
       888.1414
   4545734.65048   3534551.90446  20958499.1744   20958493.9594
     -2374.0624
   -825308.09846   -638591.68242  24252832.7444   24252830.8574
       600.3914
  -3317907.49048  -2577090.86744  23326974.6434   23326969.5414
       566.2664
  10986064.08148   8543179.77644  23378209.7914   23378204.6744
     -4329.0624
     62915.71948     46397.01546  21402120.4714   21402116.1584
      -329.1874
  -1249386.57247   -973607.32042  24363881.5574   24363878.3424
      2159.9064
 04  9  9 21 48 15.0020000  0  8G 3G 8G13G10G19G23G27G28
   2430262.41348   1890173.99043  23440482.2444   23440479.3734
     -1785.7664
  -3481585.21449  -2711733.52046  22140434.0964   22140430.3304
       884.5004
   4581408.47749   3562349.69747  20965287.6114   20965282.2524
     -2382.5784
   -834246.12146   -645556.35442  24251132.5184   24251130.2094
       591.2034
  -3326343.96847  -2583664.70944  23325369.1824   23325364.1234
       558.5474
  11051034.68047   8593806.18544  23390573.2294   23390568.2364
     -4333.7664
     67877.58948     50263.42046  21403064.9864   21403060.2214
      -332.5314
  -1281760.51047   -998833.64842  24357720.6274   24357717.8654
      2156.4844
 04  9  9 21 48 30.0020000  0  8G 3G 8G13G10G19G23G27G28
   2457114.38448   1911097.61743  23445592.2834   23445589.1784
     -1795.0474
  -3494835.76949  -2722058.61646  22137912.4004   22137908.3504
       881.7344
   4617200.24049   3590239.37047  20972098.6044   20972093.1704
     -2390.2344
   -843057.51346   -652422.32742  24249455.6194   24249453.5144
       583.0474
  -3334674.33747  -2590155.87344  23323784.5024   23323778.8224
       551.6724
  11116066.27147   8644480.11944  23402948.8934   23402942.7914
     -4337.6414
     72880.52549     54161.81446  21404017.0024   21404012.4824
      -335.0624
  -1314092.55747  -1024027.36242  24351567.8224   24351565.3934
      2153.9844
 04  9  9 21 48 45.0020000  0  8G 3G 8G13G10G19G23G27G28
   2484109.22948   1932132.55343  23450728.8934   23450725.8344
     -1804.3754
  -3508040.07349  -2732347.65446  22135399.7914   22135395.2094
       878.7974
   4653111.46948   3618222.15547  20978932.2524   20978926.6544
     -2398.0314
   -851740.31546   -659188.15842  24247803.2604   24247801.1824
       574.6564
  -3342896.59947  -2596562.80844  23322219.5494   23322214.3934
       544.5634
  11181160.36348   8695202.75044  23415335.6114   23415330.1194
     -4341.6564
     77926.22148     58093.52647  21404976.8614   21404972.1934
      -337.7974
  -1346380.80247  -1049186.97342  24345423.0414   24345420.8734
      2151.1254
 04  9  9 21 49  0.0020000  0  8G 3G 8G13G10G19G23G27G28
   2511250.88948   1953281.90943  23455893.7294   23455890.6664
     -1814.0474
  -3521194.21949  -2742597.62346  22132896.4474   22132892.7014
       875.5944
   4689146.22949   3646301.15647  20985789.4864   20985784.0534
     -2406.1724
   -860290.38346   -665850.48742  24246176.1894   24246174.1114
       565.7664
  -3351006.40248  -2602882.10244  23320676.3934   23320670.7214
       537.1564
  11246320.66148   8745976.96444  23427734.8774   23427729.4244
     -4345.9064
     83018.63649     62061.65447  21405946.0494   21405941.6744
      -340.7344
  -1378621.02147  -1074309.14042  24339287.9554   24339285.4634
      2148.1254
 04  9  9 21 49 15.0020000  0  8G 3G 8G13G10G19G23G27G28
   2538532.64648   1974540.42543  23461085.5884   23461081.9824
     -1823.2034
  -3534304.82349  -2752813.67346  22130401.9634   22130397.7834
       872.8914
   4725297.75249   3674471.16847  20992668.9554   20992663.7254
     -2413.7344
   -868714.28046   -672414.56642  24244573.6974   24244570.6664
       557.6414
  -3359010.22547  -2609118.82844  23319153.0254   23319148.2754
       530.2664
  11311540.38248   8796797.47044  23440146.0334   23440140.3814
     -4349.7344
     88151.16349     66061.02847  21406922.8304   21406918.1114
      -343.2194
  -1410819.67947  -1099398.87742  24333160.7364   24333158.5764
      2145.4534
 04  9  9 21 49 30.0020000  0  8G 3G 8G13G10G19G23G27G28
   2565955.53948   1995908.90943  23466303.5184   23466300.3074
     -1832.5784
  -3547370.83349  -2762994.94446  22127915.5184   22127911.8574
       869.9384
   4761567.24149   3702733.09847  20999570.7754   20999565.5684
     -2421.5314
   -877010.57946   -678879.20242  24242994.7444   24242991.5574
       549.1564
  -3366906.62147  -2615271.80944  23317650.9084   23317645.0924
       523.1724
  11376820.40948   8847664.99944  23452568.4714   23452563.0844
     -4353.7034
     93324.94449     70092.56846  21407907.2994   21407902.9794
      -345.9224
  -1442975.58947  -1124455.35642  24327041.7054   24327039.5184
      2142.7194
 04  9  9 21 49 45.0020000  0  8G 3G 8G13G10G19G23G27G28
   2593515.33448   2017384.08043  23471547.6894   23471544.6274
     -1841.8284
  -3560396.34249  -2773144.68746  22125436.4164   22125433.1504
       866.9844
   4797950.45549   3731083.66247  21006494.2524   21006488.9634
     -2429.2664
   -885183.31346   -685247.53642  24241438.9394   24241436.6544
       540.8284
  -3374699.48248  -2621344.14344  23316167.3384   23316161.5064
       516.0634
  11442156.37148   8898576.07544  23465001.4634   23464996.0884
     -4357.5314
     98535.66949     74152.86647  21408898.7684   21408894.7054
      -348.5624
  -1475092.69747  -1149481.61342  24320929.9714   24320927.5144
      2139.9224
 04  9  9 21 50  0.0020000  0  8G 3G 8G13G10G19G23G27G28
   2621214.86048   2038968.10643  23476819.2294   23476815.6934
     -1851.2664
  -3573378.21549  -2783260.42946  22122966.2134   22122962.3574
       864.0314
   4834450.26549   3759525.05347  21013440.1044   21013434.4244
     -2437.1414
   -893229.43347   -691517.23242  24239908.7834   24239905.7954
       532.2034
  -3382385.69348  -2627333.38544  23314704.6824   23314699.2874
       508.8594
  11507550.96248   8949532.84944  23477445.6434   23477440.1274
     -4361.5784
    103786.43749     78244.37046  21409898.1114   21409893.7214
      -351.3594
  -1507167.83548  -1174475.13642  24314826.5104   24314824.2714
      2136.9224
 04  9  9 21 50 15.0020000  0  8G 3G 8G13G10G19G23G27G28
   2649059.95548   2060665.59343  23482117.5334   23482114.6824
     -1861.2504
  -3586310.70549  -2793337.67246  22120505.0724   22120501.5294
       860.4694
   4871072.39049   3788061.76247  21020408.7214   21020403.5924
     -2445.6254
   -901142.95146   -697683.56942  24238402.5884   24238399.9164
       523.1564
  -3389959.16848  -2633234.75744  23313263.6044   23313257.9004
       501.1414
  11573009.78448   9000539.68544  23489902.4864   23489896.8814
     -4366.0624
    109083.01349     82371.57746  21410906.0494   21410901.3934
      -354.6874
  -1539195.15348  -1199431.39742  24308731.7364   24308729.1234
      2133.5004
 04  9  9 21 50 30.0020000  0  8G 3G 8G13G10G19G23G27G28
   2677053.72248   2082478.91943  23487444.7834   23487442.0024
     -1870.5474
  -3599190.49049  -2803373.84546  22118053.9004   22118049.7604
       857.5634
   4907820.07349   3816696.32547  21027401.6354   21027396.2874
     -2453.3754
   -908920.50246   -703743.99642  24236922.0414   24236919.0144
       514.6564
  -3397416.25848  -2639045.43444  23311844.4084   23311839.4594
       493.9694
  11638535.86148   9051598.90744  23502371.4554   23502365.8734
     -4369.9844
    114428.66349     86537.02446  21411923.0964   21411918.7754
      -357.3594
  -1571171.15648  -1224347.67042  24302646.7684   24302644.2994
      2130.7664
 04  9  9 21 50 45.0020000  0  8G 3G 8G13G10G19G23G27G28
   2705189.97948   2104403.27543  23492799.3694   23492796.1274
     -1880.0004
  -3612023.67349  -2813373.71346  22115611.9474   22115608.0254
       854.4224
   4944687.08249   3845423.84747  21034417.1894   21034412.1894
     -2461.3594
   -916567.92847   -709703.02142  24235466.9554   24235463.8964
       505.9384
  -3404762.97548  -2644770.13845  23310446.4554   23310441.1194
       486.5314
  11704122.94347   9102705.66944  23514852.3774   23514846.9164
     -4374.0944
    119817.37149     90736.01446  21412948.5574   21412944.0334
      -360.2034
  -1603101.72647  -1249228.56242  24296571.1354   24296568.0414
      2127.6254
 04  9  9 21 51  0.0020000  0  8G 3G 8G13G10G19G23G27G28
   2733465.67548   2126436.27643  23498179.9794   23498176.5294
     -1890.0164
  -3624813.18849  -2823339.54846  22113178.5494   22113174.8734
       850.8754
   4981670.52649   3874242.11347  21041455.0804   21041449.9364
     -2469.7974
   -924087.87146   -715562.71243  24234036.8304   24234033.5214
       496.7344
  -3412001.78548  -2650410.73944  23309068.9554   23309064.2054
       478.6254
  11769767.85047   9153857.50244  23527344.4004   23527338.4324
     -4378.5474
    125246.28249     94966.34347  21413981.6824   21413977.3654
      -363.6094
  -1634989.47348  -1274076.07142  24290502.2054   24290499.6114
      2124.1414
 04  9  9 21 51 15.0020000  0  8G 3G 8G13G10G19G23G27G28
   2761888.82548   2148584.17143  23503588.5804   23503585.2874
     -1900.1094
  -3637550.91049  -2833265.05046  22110754.4944   22110750.9124
       847.1094
   5018778.31849   3903157.26947  21048516.4004   21048511.1744
     -2478.3284
   -931472.22447   -721316.73543  24232631.0644   24232628.2644
       487.4224
  -3419124.48248  -2655960.86645  23307713.6894   23307708.4164
       470.6724
  11835478.50548   9205060.56044  23539848.5884   23539842.9514
     -4383.2194
    130723.22249     99234.08346  21415024.2134   21415019.2254
      -367.0624
  -1666826.46147  -1298884.06542  24284444.1044   24284441.4554
      2120.4224
 04  9  9 21 51 30.0020000  0  8G 3G 8G13G10G19G23G27G28
   2790450.58948   2170840.10243  23509023.8384   23509020.4714
     -1908.6724
  -3650245.65249  -2843157.02546  22108338.4474   22108335.0374
       844.9844
   5056001.62749   3932162.42947  21055599.6274   21055594.4674
     -2485.4064
   -938729.57046   -726971.76443  24231250.2294   24231247.4474
       479.5784
  -3426139.58747  -2661427.14245  23306378.6664   23306373.3964
       464.1254
  11901245.73048   9256307.70244  23552363.0884   23552358.7054
     -4386.2504
    136239.53849    103532.52246  21416073.6974   21416068.9324
      -369.0164
  -1698621.21447  -1323659.10542  24278393.2134   24278391.4944
      2118.3594
 04  9  9 21 51 45.0020000  0  8G 3G 8G13G10G19G23G27G28
   2819156.15348   2193208.07243  23514486.5104   23514482.9284
     -1918.5784
  -3662892.22049  -2853011.50146  22105932.3224   22105928.4044
       841.3914
   5093345.66349   3961261.66747  21062706.1274   21062700.9794
     -2493.7344
   -945854.45747   -732523.63443  24229894.5334   24229891.6704
       470.5314
  -3433041.54448  -2666805.27344  23305065.7914   23305059.6004
       456.2504
  11967074.71147   9307602.96944  23564890.2364   23564885.2444
     -4390.7504
    141800.50549    107865.74246  21417131.9164   21417127.1114
      -372.2504
  -1730368.23547  -1348396.99042  24272352.1894   24272349.9514
      2114.8134
 04  9  9 21 52  0.0020000  0  8G 3G 8G13G10G19G23G27G28
   2848004.84448   2215687.56443  23519976.1584   23519972.5764
     -1928.4224
  -3675491.36449  -2862828.98046  22103534.9084   22103530.7954
       838.0164
   5130809.71549   3990454.43047  21069834.9944   21069829.3694
     -2501.9534
   -952847.34746   -737972.60243  24228563.1434   24228560.4904
       461.4844
  -3439830.68848  -2672095.47245  23303773.2914   23303767.7794
       448.4844
  12032964.53847   9358945.64844  23577428.4324   23577423.9634
     -4395.0004
    147405.44149    112233.23646  21418198.2054   21418193.5414
      -375.4534
  -1762068.00547  -1373098.02842  24266319.7754   24266318.0924
      2111.4224
 04  9  9 21 52 15.0020000  0  8G 3G 8G13G10G19G23G27G28
   2876995.79848   2238277.91343  23525492.7364   23525489.2604
     -1937.4534
  -3688043.44749  -2872609.81846  22101145.9474   22101141.8224
       835.3284
   5168393.13649   4019740.21647  21076987.3224   21076981.3544
     -2509.4374
   -959708.74147   -743319.15143  24227258.1274   24227254.8184
       453.0944
  -3446507.45548  -2677298.13945  23302502.7834   23302497.4244
       441.4384
  12098914.23448   9410334.96244  23589978.6354   23589973.6624
     -4398.5004
    153053.79649    116634.54346  21419273.2994   21419268.6194
      -377.9374
  -1793721.09947  -1397762.71742  24260296.2994   24260294.0574
      2108.7034
 04  9  9 21 52 30.0020000  0  8G 3G 8G13G10G19G23G27G28
   2906129.52248   2260979.52743  23531036.7524   23531033.3814
     -1946.9694
  -3700547.94949  -2882353.56346  22098766.5024   22098762.3224
       832.0784
   5206096.47249   4049119.41147  21084161.9864   21084156.7754
     -2517.5164
   -966438.08947   -748562.76043  24225977.0414   24225974.6784
       444.3134
  -3453071.07848  -2682412.61044  23301253.7994   23301248.4164
       433.8754
  12164924.29448   9461771.34144  23602539.9324   23602535.3544
     -4402.7664
    158746.01049    121070.05046  21420356.3304   21420351.8034
      -380.9374
  -1825326.86947  -1422390.49142  24254282.0964   24254279.6864
      2105.5004
 04  9  9 21 52 45.0020000  0  8G 3G 8G13G10G19G23G27G28
   2935405.57048   2283792.03343  23536607.7294   23536604.2874
     -1956.9374
  -3713005.17749  -2892060.48646  22096395.8854   22096391.7994
       828.4534
   5243918.94649   4078591.46647  21091359.2294   21091353.7364
     -2525.8754
   -973035.64947   -753703.68443  24224721.5724   24224718.7994
       434.9694
  -3459521.72348  -2687439.06844  23300026.1664   23300020.7644
       425.8284
  12230993.94547   9513254.12944  23615112.7054   23615107.5294
     -4407.0004
    164481.78349    125539.46746  21421448.2134   21421442.8264
      -384.2814
  -1856885.52648  -1446981.55842  24248276.9474   24248274.1194
      2101.9224
 04  9  9 21 53  0.0020000  0  8G 3G 8G13G10G19G23G27G28
   2964824.89348   2306716.15143  23542205.8074   23542202.4794
     -1966.5004
  -3725414.01549  -2901729.68546  22094034.6744   22094030.7054
       825.2194
   5281861.93149   4108157.40447  21098579.9554   21098574.9634
     -2533.9374
   -979500.16147   -758740.94542  24223490.8614   24223488.4674
       426.1884
  -3465857.95548  -2692376.36444  23298820.3464   23298814.8144
       418.1884
  12297124.12648   9564784.10944  23627696.9004   23627691.7484
     -4411.0624
    170262.15949    130043.67547  21422547.9554   21422543.5804
      -387.2814
  -1888395.64848  -1471534.84542  24242280.8774   24242278.2874
      2098.7664
 04  9  9 21 53 15.0020000  0  8G 3G 8G13G10G19G23G27G28
   2994390.67048   2329754.42743  23547832.2364   23547828.5024
     -1975.3754
  -3737771.23249  -2911358.67846  22091682.7524   22091679.2524
       822.7344
   5319928.58049   4137819.72547  21105823.5644   21105818.0334
     -2541.2814
   -985828.00347   -763671.73143  24222287.4394   24222284.5574
       417.8914
  -3472076.13648  -2697221.67844  23297637.1664   23297631.5764
       411.2344
  12363318.02748   9616363.72444  23640293.0414   23640288.3614
     -4414.4534
    176090.50049    134585.24747  21423656.9164   21423652.2794
      -389.5784
  -1919853.66348  -1496047.48342  24236293.8694   24236291.1004
      2096.0634
 04  9  9 21 53 30.0020000  0  8G 3G 8G13G10G19G23G27G28
   3024091.46548   2352897.90343  23553484.3774   23553480.8464
     -1985.0004
  -3750088.20149  -2920956.29346  22089339.3384   22089335.5414
       819.4534
   5358107.46549   4167569.48447  21113088.8854   21113083.3774
     -2549.3124
   -992030.43547   -768504.75443  24221106.7214   24221104.2444
       409.0314
  -3478187.53248  -2701983.76044  23296474.5574   23296468.8114
       403.5164
  12429563.96947   9667983.90144  23652899.3074   23652894.4514
     -4418.4374
    181955.41749    139155.31447  21424773.0184   21424769.0374
      -392.5784
  -1951270.95648  -1520528.44442  24230315.6274   24230313.0804
      2092.7974
 04  9  9 21 53 45.0020000  0  8G 3G 8G13G10G19G23G27G28
   3053937.03048   2376154.19443  23559163.2684   23559160.1974
     -1994.0314
  -3762354.74549  -2930514.61746  22087004.9944   22087001.1234
       816.7194
   5396408.33949   4197414.31446  21120376.9794   21120372.1394
     -2556.8914
   -998097.35547   -773232.21943  24219952.7214   24219949.7994
       400.5004
  -3484181.99648  -2706654.74844  23295333.4554   23295328.0924
       396.3134
  12495871.68347   9719652.19243  23665516.8544   23665512.5454
     -4422.0164
    187866.73049    143761.53247  21425897.8854   21425893.6434
      -395.1254
  -1982637.50648  -1544969.80942  24224346.5494   24224344.0414
      2090.0474
 04  9  9 21 54  0.0020000  0  8G 3G 8G13G10G19G23G27G28
   3083925.92048   2399522.14943  23564870.7604   23564866.9984
     -2003.9534
  -3774572.51049  -2940034.95246  22084679.6744   22084675.9084
       812.9694
   5434829.79549   4227353.10746  21127688.4944   21127682.9754
     -2565.3594
  -1004030.13547   -777855.16243  24218823.5104   24218820.6974
       391.1564
  -3490060.75248  -2711235.57844  23294215.1354   23294209.1004
       388.1254
  12562239.47247   9771367.28743  23678146.9004   23678141.7294
     -4426.4374
    193823.18249    148402.92646  21427031.2364   21427027.1154
      -398.4694
  -2013954.56047  -1569372.66843  24218386.7524   24218384.4394
      2086.1884
 04  9  9 21 54 15.0020000  0  8G 3G 8G13G10G19G23G27G28
   3114056.67748   2423000.66943  23570603.8694   23570600.8264
     -2012.9534
  -3786742.80049  -2949518.27046  22082363.8384   22082360.3384
       810.2664
   5473370.37349   4257384.72447  21135022.3464   21135017.5454
     -2572.8914
  -1009829.88147   -782374.43343  24217719.3144   24217717.0064
       382.6884
  -3495824.76548  -2715726.98444  23293117.9634   23293111.8694
       380.8594
  12628665.80547   9823128.01943  23690787.3694   23690782.6394
     -4429.9694
    199823.48049    153078.48946  21428173.1114   21428168.5414
      -400.9694
  -2045223.22748  -1593737.80042  24212437.0804   24212434.2014
      2083.3754
 04  9  9 21 54 30.0020000  0  8G 3G 8G13G10G19G23G27G28
   3144323.80148   2446585.43643  23576363.7294   23576360.0964
     -2022.6564
  -3798870.93949  -2958968.76246  22080056.0254   22080052.0064
       806.8284
   5512024.52949   4287504.82747  21142378.0024   21142372.6394
     -2581.0784
  -1015501.85547   -786794.12643  24216640.1974   24216637.7254
       373.5784
  -3501479.29048  -2720133.09144  23292041.7364   23292036.0144
       372.9844
  12695144.89747   9874929.84843  23703437.8224   23703433.0764
     -4434.0004
    205862.01049    157783.83746  21429322.2134   21429317.8814
      -404.1414
  -2076448.78447  -1618069.31942  24206494.7684   24206492.0414
      2079.9844
 04  9  9 21 54 45.0020000  0  8G 3G 8G13G10G19G23G27G28
   3174736.44148   2470283.57343  23582151.4394   23582147.7364
     -2032.0624
  -3810947.21849  -2968378.84546  22077758.1744   22077753.9514
       803.5944
   5550801.55449   4317720.67547  21149757.2994   21149752.0924
     -2589.0164
  -1021036.67247   -791106.98542  24215587.5884   24215584.2054
       364.6724
  -3507014.62948  -2724446.31844  23290988.3144   23290982.6584
       365.2034
  12761685.98748   9926780.00543  23716100.3854   23716095.0494
     -4437.8754
    211948.31149    162526.41246  21430480.7834   21430476.1394
      -407.1254
  -2107621.66148  -1642359.82043  24200562.7684   24200560.2874
      2076.6884
 04  9  9 21 55  0.0020000  0  8G 3G 8G13G10G19G23G27G28
   3205293.66348   2494094.39443  23587966.0884   23587962.6504
     -2041.9694
  -3822972.91549  -2977749.49846  22075469.6974   22075465.4284
       800.0164
   5589700.63249   4348031.65047  21157159.0724   21157153.9084
     -2597.3444
  -1026435.03447   -795313.46043  24214560.6194   24214557.3654
       355.3134
  -3512431.50948  -2728667.22644  23289957.7054   23289952.0684
       357.1564
  12828287.94547   9978677.56743  23728774.0334   23728769.0414
     -4442.2034
    218081.36149    167305.41146  21431647.5724   21431642.7644
      -410.4374
  -2138742.73448  -1666609.93742  24194640.6114   24194637.4864
      2072.9384
 04  9  9 21 55 15.0020000  0  8G 3G 8G13G10G19G23G27G28
   3235988.54548   2518012.49943  23593806.7214   23593803.8694
     -2051.3594
  -3834954.90449  -2987086.10346  22073189.5574   22073185.7994
       796.8914
   5628714.80049   4378432.27847  21164583.5254   21164578.4204
     -2605.2504
  -1031703.59947   -799418.83742  24213557.4164   24213554.9794
       346.4064
  -3517736.44748  -2732800.91944  23288948.6744   23288942.4364
       349.4064
  12894943.78647  10030617.13943  23741459.0494   23741453.7324
     -4445.9694
    224254.45349    172115.62646  21432822.3774   21432817.4794
      -413.3284
  -2169818.52548  -1690824.78242  24188727.7294   24188723.8964
      2069.8134
 04  9  9 21 55 30.0020000  0  8G 3G 8G13G10G19G23G27G28
   3266828.68048   2542043.73943  23599675.4004   23599672.4364
     -2061.3594
  -3846885.33249  -2996382.52346  22070919.0254   22070915.5414
       793.1564
   5667851.63049   4408928.49547  21172031.2684   21172025.8114
     -2613.6874
  -1036834.61447   -803416.99142  24212580.9794   24212578.5924
       336.9224
  -3522921.53548  -2736841.23244  23287961.6974   23287955.6504
       341.1564
  12961660.88447  10082604.44244  23754154.4324   23754149.7094
     -4450.3284
    230475.20449    176962.96646  21434006.1114   21434001.7054
      -416.7974
  -2200841.26748  -1714998.26542  24182823.3694   24182820.7094
      2065.9384
 04  9  9 21 55 45.0020000  0  8G 3G 8G13G10G19G23G27G28
   3297809.43348   2566184.60743  23605570.8384   23605568.3144
     -2069.9694
  -3858768.60849  -3005642.20546  22068658.1584   22068654.2294
       790.8594
   5707106.47549   4439516.67047  21179500.9714   21179496.0064
     -2620.7194
  -1041832.34247   -807311.28043  24211630.1044   24211627.7644
       328.9534
  -3527990.96848  -2740791.42345  23286997.0724   23286991.2914
       334.3594
  13028434.61947  10134635.89144  23766861.3144   23766856.0684
     -4453.2974
    236739.19949    181844.00547  21435198.0494   21435193.5534
      -418.8284
  -2231815.24648  -1739133.77342  24176928.9554   24176926.2834
      2063.4534
 04  9  9 21 56  0.0020000  0  8G 3G 8G13G10G19G23G27G28
   3328926.87248   2590431.94143  23611492.7294   23611489.3074
     -2079.5474
  -3870608.57749  -3014868.13446  22066404.6194   22066401.0064
       787.3134
   5746475.50249   4470193.81247  21186992.5184   21186987.4984
     -2628.9534
  -1046700.40147   -811104.57943  24210703.7214   24210700.6354
       319.6094
  -3532948.41248  -2744654.33745  23286053.5254   23286047.7444
       326.1884
  13095260.90648  10186708.26444  23779577.7834   23779573.0184
     -4457.3284
    243042.65149    186755.79846  21436397.3774   21436392.8424
      -422.1094
  -2262744.13947  -1763234.15742  24171043.2914   24171040.7754
      2059.8914
 04  9  9 21 56 15.0020000  0  8G 3G 8G13G10G19G23G27G28
   3360189.40148   2614792.37843  23617441.6114   23617438.4284
     -2088.4844
  -3882396.73349  -3024053.69546  22064161.8304   22064157.8814
       784.6414
   5785967.21349   4500966.56547  21194507.5104   21194502.2874
     -2636.3284
  -1051430.28747   -814790.19043  24209803.5644   24209800.4714
       311.2814
  -3537785.11548  -2748423.15445  23285133.3304   23285127.7564
       318.9844
  13162147.89748  10238827.94744  23792305.8694   23792301.0964
     -4460.6724
    249393.94249    191704.86247  21437606.0884   21437601.5764
      -424.5314
  -2293619.32748  -1787292.65542  24165167.5644   24165164.7714
      2057.0314
 04  9  9 21 56 30.0020000  0  8G 3G 8G13G10G19G23G27G28
   3391584.45448   2639256.04743  23623415.8544   23623411.9594
     -2097.2814
  -3894145.35749  -3033208.46046  22061926.2364   22061921.9944
       782.0474
   5825569.04649   4531825.12447  21202043.9324   21202038.8344
     -2643.6724
  -1056034.22347   -818377.66442  24208926.5414   24208924.7644
       302.8594
  -3542513.20448  -2752107.37045  23284233.2134   23284227.9394
       311.6724
  13229082.91747  10290985.05544  23805043.4324   23805038.5614
     -4463.7814
    255780.81549    196681.64746  21438821.4474   21438816.9634
      -426.8914
  -2324453.07848  -1811318.88442  24159300.4554   24159297.5374
      2054.2664
 04  9  9 21 56 45.0020000  0  8G 3G 8G13G10G19G23G27G28
   3423116.50548   2663826.45443  23629416.2134   23629412.6504
     -2106.9374
  -3905849.97149  -3042328.93046  22059698.6504   22059694.6664
       778.5314
   5865285.36349   4562772.88947  21209601.6194   21209596.6504
     -2651.8914
  -1060507.56447   -821863.33343  24208076.0724   24208073.4634
       293.5784
  -3547128.06048  -2755703.34445  23283355.4084   23283350.1434
       303.6094
  13296070.25047  10343182.93244  23817791.0024   23817786.0144
     -4467.8594
    262207.70749    201689.60247  21440044.3774   21440040.1934
      -430.1564
  -2355240.71648  -1835309.20842  24153441.4944   24153438.5764
      2050.6884
 04  9  9 21 57  0.0020000  0  8G 3G 8G13G10G19G23G27G28
   3454790.74148   2688507.69043  23635443.5574   23635439.8504
     -2117.3284
  -3917505.16849  -3051410.87746  22057480.6974   22057476.7564
       774.4534
   5905121.55249   4593814.05347  21217182.2054   21217176.8894
     -2660.7664
  -1064844.73047   -825242.93743  24207251.0724   24207248.1624
       283.6564
  -3551623.98648  -2759206.63045  23282499.7684   23282494.3304
       294.7814
  13363115.15548  10395425.67244  23830548.4554   23830544.1434
     -4472.5004
    268679.92049    206732.90746  21441276.1274   21441271.3934
      -433.9534
  -2385976.68948  -1859259.23642  24147592.6434   24147589.8074
      2046.4064
 04  9  9 21 57 15.0020000  0  8G 3G 8G13G10G19G23G27G28
   3486602.05648   2713295.72543  23641497.2444   23641493.5964
     -2125.2504
  -3929116.13949  -3060458.37846  22055271.0414   22055267.1864
       772.5944
   5945072.43249   4624944.60847  21224784.1274   21224779.0374
     -2667.2344
  -1069050.65647   -828520.23942  24206450.9324   24206446.9794
       276.0784
  -3556005.73048  -2762620.95145  23281665.8934   23281660.1864
       288.3284
  13430212.47047  10447709.24844  23843317.2214   23843312.0724
     -4474.8284
    275192.64849    211807.76146  21442515.3934   21442510.8934
      -435.5004
  -2416665.88548  -1883172.84842  24141752.9714   24141749.8854
      2044.3594
 04  9  9 21 57 30.0020000  0  8G 3G 8G13G10G19G23G27G28
   3518545.93148   2738187.05643  23647575.3694   23647572.4244
     -2134.2344
  -3940686.97949  -3069474.61646  22053069.0024   22053065.2564
       769.8444
   5985133.58749   4656161.08047  21232407.8614   21232402.5414
     -2674.6254
  -1073129.52947   -831698.59942  24205674.6744   24205670.9434
       267.5634
  -3560277.39648  -2765949.49045  23280852.8464   23280846.8464
       280.8754
  13497357.62847  10500030.08644  23856094.0414   23856089.2484
     -4478.0944
    281741.44349    216910.72346  21443761.7994   21443756.9674
      -438.0314
  -2447312.31648  -1907053.10242  24135920.6434   24135918.4474
      2041.4694
 04  9  9 21 57 45.0020000  0  8G 3G 8G13G10G19G23G27G28
   3550632.83248   2763189.82443  23653681.7834   23653678.4904
     -2143.5004
  -3952207.01149  -3078451.25146  22050877.1504   22050872.5724
       766.7034
   6025315.55049   4687471.69047  21240054.3694   21240049.0924
     -2682.4224
  -1077070.64347   -834769.57243  24204923.9794   24204921.1314
       258.5634
  -3564428.06348  -2769183.75745  23280062.9394   23280057.5294
       273.1414
  13564561.02347  10552396.32643  23868882.6194   23868877.8934
     -4481.6564
    288337.05049    222050.15246  21445016.9944   21445011.5494
      -440.8124
  -2477905.34848  -1930891.77142  24130099.6044   24130096.1194
      2038.2194
 04  9  9 21 58  0.0020000  0  8G 3G 8G13G10G19G23G27G28
   3582856.15248   2788298.91043  23659813.6824   23659810.2604
     -2152.6414
  -3963682.96949  -3087393.54046  22048693.5724   22048688.9714
       763.5784
   6065611.96749   4718871.47447  21247722.5884   21247717.2364
     -2690.2034
  -1080880.34747   -837738.15443  24204199.1354   24204196.4514
       249.6094
  -3568464.08548  -2772328.67745  23279294.8774   23279289.1004
       265.2974
  13631815.79947  10604802.59743  23881680.9554   23881676.1004
     -4485.3594
    294972.90749    227220.96746  21446279.6664   21446275.1114
      -443.6724
  -2508451.18648  -1954693.67742  24124285.7994   24124283.3574
      2034.8284
 04  9  9 21 58 15.0020000  0  8G 3G 8G13G10G19G23G27G28
   3615224.52248   2813521.00942  23665973.0024   23665970.2714
     -2162.7034
  -3975105.86249  -3096294.47946  22046519.6894   22046515.6464
       759.7194
   6106031.33449   4750367.07147  21255414.0334   21255409.1744
     -2698.7344
  -1084549.85747   -840597.49442  24203500.9004   24203498.0924
       239.8914
  -3572376.61348  -2775377.38045  23278550.1114   23278544.6744
       256.7344
  13699130.36147  10657255.46443  23894490.1744   23894485.5964
     -4489.6874
    301657.72549    232429.92047  21447551.8074   21447547.0684
      -447.2194
  -2538941.07347  -1978451.95142  24118484.2754   24118481.2054
      2030.8444
 04  9  9 21 58 30.0020000  0  8G 3G 8G13G10G19G23G27G28
   3647728.08247   2838848.46043  23672158.4794   23672155.2714
     -2171.5164
  -3986485.39249  -3105161.63446  22044354.1194   22044350.0844
       757.0634
   6146563.80049   4781950.79547  21263127.0024   21263122.0294
     -2706.0474
  -1088088.58748   -843354.93342  24202827.9944   24202824.5614
       231.4534
  -3576174.96348  -2778337.11244  23277827.4714   23277821.3894
       249.2034
  13766494.97747  10709747.29243  23907309.6044   23907304.6504
     -4492.7344
    308381.86449    237669.51646  21448831.0884   21448826.8894
      -449.6874
  -2569384.60547  -2002174.10242  24112691.2994   24112688.3424
      2027.8594
 04  9  9 21 58 45.0020000  0  8G 3G 8G13G10G19G23G27G28
   3680365.38447   2864280.12443  23678369.1194   23678366.2484
     -2179.8444
  -3997822.85149  -3113996.00546  22042196.7684   22042193.0184
       754.7664
   6187207.92949   4813621.53547  21270861.3224   21270856.1584
     -2712.9694
  -1091497.85747   -846011.51542  24202178.6044   24202175.4944
       223.2974
  -3579860.29848  -2781208.77044  23277125.8774   23277120.3224
       242.2344
  13833907.88047  10762276.78343  23920137.8384   23920133.0574
     -4495.3284
    315143.98149    242938.70146  21450117.8384   21450113.3384
      -451.6564
  -2599782.91748  -2025861.04542  24106905.9864   24106903.1784
      2025.4064
 04  9  9 21 59  0.0020000  0  8G 3G 8G13G10G19G23G27G28
   3713147.90647   2889824.89743  23684607.3384   23684604.6934
     -2190.5474
  -4009106.67249  -3122788.58446  22040049.4084   22040045.2874
       750.1564
   6227975.27149   4845388.28847  21278619.2444   21278613.6544
     -2722.2194
  -1094765.97448   -848558.10442  24201557.0804   24201553.9674
       212.9064
  -3583420.84848  -2783983.21245  23276448.6114   23276442.5614
       232.8444
  13901380.58347  10814852.84843  23932977.5184   23932972.4984
     -4500.4694
    321955.56949    248246.42046  21451414.4394   21451409.5644
      -456.1094
  -2630124.25947  -2049503.59843  24101132.7294   24101129.7094
      2020.5164
 04  9  9 21 59 15.0020000  0  8G 3G 8G13G10G19G23G27G28
   3746069.96947   2915478.47943  23690872.6664   23690869.7914
     -2199.8914
  -4020342.62449  -3131543.85346  22037911.5644   22037907.4284
       747.0634
   6268860.08449   4877246.55847  21286399.0884   21286394.3034
     -2729.9534
  -1097898.47147   -850998.98342  24200960.9794   24200957.7484
       203.9224
  -3586861.92848  -2786664.55145  23275793.8774   23275787.8384
       224.9534
  13968907.19147  10867470.93543  23945826.8854   23945822.3964
     -4503.9064
    328811.19549    253588.48246  21452718.7834   21452714.3464
      -458.9374
  -2660414.18548  -2073106.07142  24095369.3144   24095365.5024
      2017.1724
 04  9  9 21 59 30.0020000  0  8G 3G 8G13G10G19G23G27G28
   3779128.80147   2941238.60243  23697163.3934   23697160.0724
     -2208.6094
  -4031532.87449  -3140263.52046  22035782.0254   22035777.5214
       744.2664
   6309859.72149   4909194.32147  21294201.4164   21294195.6784
     -2737.3594
  -1100897.75447   -853336.05842  24200389.5804   24200386.5884
       195.2974
  -3590185.98248  -2789254.71845  23275161.2914   23275155.2014
       217.4534
  14036484.75847  10920128.71043  23958687.2054   23958682.0374
     -4507.1254
    335708.18349    258962.74947  21454031.1504   21454026.4634
      -461.3754
  -2690654.97948  -2096670.25142  24089614.1974   24089611.1004
      2014.1564
 04  9  9 21 59 45.0020000  0  8G 3G 8G13G10G19G23G27G28
   3812321.33647   2967102.90343  23703479.8694   23703476.5064
     -2217.2974
  -4042680.63149  -3148950.07046  22033660.6744   22033655.8504
       741.7664
   6350971.09749   4941229.13547  21302024.7444   21302019.4204
     -2744.5004
  -1103766.61747   -855571.51442  24199844.2364   24199840.5644
       186.9224
  -3593395.73948  -2791755.78845  23274550.1584   23274544.1044
       210.1414
  14104110.23647  10972823.83343  23971556.1824   23971551.1274
     -4510.0004
    342643.59349    264366.98746  21455350.8304   21455346.7444
      -463.6254
  -2720849.48348  -2120198.36643  24083868.5024   24083865.1504
      2011.3914
 04  9  9 22  0  0.0020000  0  8G 3G 8G13G10G19G23G27G28
   3845647.25048   2993071.15343  23709821.4864   23709818.1894
     -2226.3754
  -4053786.17349  -3157603.72046  22031546.8854   22031542.8544
       738.8134
   6392193.93249   4973350.82047  21309868.9244   21309864.2714
     -2752.1414
  -1106505.14147   -857705.38942  24199323.1824   24199319.8574
       178.0784
  -3596491.07448  -2794167.71544  23273961.4244   23273955.2914
       202.4064
  14171783.28847  11025556.01443  23984433.6194   23984428.7364
     -4513.3444
    349617.37749    269801.10246  21456678.1504   21456673.2094
      -466.3754
  -2750997.79048  -2143690.48543  24078131.0724   24078128.2714
      2008.1414
 04  9  9 22  0 15.0020000  0  8G 3G 8G13G10G19G23G27G28
   3879113.02247   3019148.37743  23716189.3384   23716186.3464
     -2236.2344
  -4064842.53749  -3166219.05846  22029443.1434   22029439.0804
       734.9224
   6433534.77649   5005564.45247  21317735.8074   21317730.8464
     -2760.4224
  -1109106.54546   -859732.46842  24198828.0644   24198825.2914
       168.3914
  -3599465.16048  -2796485.16745  23273395.7994   23273389.5844
       193.7194
  14239510.09047  11078330.10143  23997321.7524   23997316.7914
     -4517.3284
    356636.06349    275270.21346  21458013.6354   21458009.1074
      -469.9224
  -2781093.07548  -2167141.30342  24072404.7364   24072401.2684
      2004.1094
 04  9  9 22  0 30.0020000  0  8G 3G 8G13G10G19G23G27G28
   3912725.75747   3045340.09443  23722585.7444   23722582.3464
     -2245.1564
  -4075842.58349  -3174790.51146  22027349.8854   22027345.7994
       732.0784
   6475000.68949   5037875.53347  21325626.6354   21325621.9754
     -2768.0474
  -1111563.52446   -861646.98242  24198360.0254   24198357.1044
       159.5784
  -3602310.50048  -2798702.30345  23272853.9864   23272848.2684
       185.9224
  14307297.86847  11131151.68743  24010221.7524   24010216.7014
     -4520.6414
    363706.90649    280779.96246  21459359.4554   21459354.2214
      -472.5164
  -2811127.96348  -2190545.05543  24066688.8224   24066685.6824
      2000.8754
 04  9  9 22  0 45.0020000  0  8G 3G 8G13G10G19G23G27G28
   3946472.34948   3071636.14843  23729007.2834   23729003.9904
     -2254.3284
  -4086799.24749  -3183328.15046  22025265.0334   22025260.8654
       728.9384
   6516578.64049   5070273.92747  21333538.6354   21333533.8934
     -2775.6414
  -1113888.97347   -863458.99042  24197917.3614   24197914.6974
       150.5634
  -3605039.91348  -2800829.09045  23272334.6824   23272328.4554
       177.9844
  14375133.43347  11184010.51843  24023130.1974   24023125.6234
     -4524.0004
    370817.16149    286320.43046  21460712.6044   21460707.6154
      -475.3594
  -2841115.22948  -2213911.68542  24060982.4794   24060979.5644
      1997.5164
 04  9  9 22  1  0.0020000  0  8G 3G 8G13G10G19G23G27G28
   3980360.91347   3098042.81943  23735456.2214   23735453.3544
     -2263.7814
  -4097704.04149  -3191825.38146  22023189.6974   22023186.3614
       725.5004
   6558276.95049   5102766.10047  21341473.6824   21341468.4244
     -2783.6564
  -1116074.50347   -865161.99742  24197501.9244   24197498.7754
       141.1724
  -3607644.86448  -2802858.90445  23271838.9244   23271833.0764
       169.6564
  14443024.62848  11236912.70843  24036050.0574   24036045.1934
     -4527.7504
    377974.85949    291897.87546  21462074.4084   21462069.6864
      -478.5624
  -2871046.46148  -2237234.65943  24055286.4004   24055283.7404
      1993.7814
 04  9  9 22  1 15.0020000  0  8G 3G 8G13G10G19G23G27G28
   4014384.24647   3124554.47242  23741930.8694   23741927.2524
     -2273.0624
  -4108564.26649  -3200287.88946  22021123.2684   22021118.9204
       722.1884
   6600088.44249   5135346.47847  21349430.1584   21349424.9514
     -2791.5314
  -1118126.99146   -866761.33442  24197111.0334   24197108.5294
       132.1254
  -3610132.05648  -2804796.96145  23271365.6044   23271359.6934
       161.5164
  14510964.25448  11289852.61243  24048978.3144   24048973.5414
     -4531.1564
    385173.08449    297506.85846  21463444.1044   21463439.2054
      -481.5314
  -2900928.52148  -2260519.35043  24049599.7214   24049597.4794
      1990.2344
 04  9  9 22  1 30.0020000  0  8G 3G 8G13G10G19G23G27G28
   4048545.40947   3151173.57942  23748431.7214   23748428.1044
     -2282.2034
  -4119376.48249  -3208712.97446  22019065.9004   22019061.6974
       719.1094
   6642016.30749   5168017.52847  21357408.6434   21357403.6314
     -2799.2034
  -1120042.95546   -868254.25842  24196746.6824   24196743.9284
       123.0314
  -3612498.04548  -2806640.57645  23270915.3934   23270909.0334
       153.5784
  14578955.30747  11342832.58743  24061916.0884   24061911.7134
     -4534.5164
    392415.02649    303149.95446  21464822.1274   21464817.6824
      -484.3444
  -2930758.01148  -2283763.03643  24043923.5414   24043920.6114
      1986.7664
 04  9  9 22  1 45.0020000  0  8G 3G 8G13G10G19G23G27G28
   4082844.62048   3177900.22543  23754957.9864   23754955.0804
     -2291.0474
  -4130140.26149  -3217100.32046  22017017.3934   22017013.1194
       716.1564
   6684060.71249   5200779.39346  21365409.5414   21365404.7054
     -2806.6414
  -1121822.16647   -869640.64042  24196407.5804   24196405.0414
       114.2974
  -3614742.48548  -2808389.46745  23270487.9794   23270481.9084
       145.7034
  14646997.90247  11395852.76043  24074864.5184   24074859.8184
     -4537.5784
    399701.14949    308827.45346  21466208.7524   21466204.0924
      -486.9374
  -2960534.51448  -2306965.46243  24038256.8544   24038254.3504
      1983.5634
 04  9  9 22  2  0.0020000  0  8G 3G 8G13G10G19G23G27G28
   4117277.80148   3204731.26242  23761510.9634   23761507.5684
     -2300.3914
  -4140859.87749  -3225453.25546  22014977.6434   22014973.0454
       712.8444
   6726217.36449   5233628.72347  21373431.8774   21373426.7834
     -2814.5624
  -1123468.51647   -870923.48542  24196094.9084   24196091.7644
       104.9384
  -3616869.15548  -2810046.58145  23270083.8224   23270077.5214
       137.4844
  14715087.82447  11448909.79043  24087821.8854   24087816.5294
     -4541.2814
    407027.37549    314536.19246  21467602.8774   21467598.1464
      -490.1414
  -2990261.86948  -2330129.54943  24032600.1434   24032597.3964
      1979.7504
 04  9  9 22  2 15.0020000  0  8G 3G 8G13G10G19G23G27G28
   4151854.14547   3231673.85942  23768090.6504   23768087.2604
     -2309.6724
  -4151525.76649  -3233764.32546  22012947.8774   22012943.9394
       709.5164
   6768495.64749   5266572.82347  21381477.0024   21381471.9944
     -2822.4534
  -1124972.36548   -872095.33742  24195808.7444   24195805.2834
        95.7034
  -3618868.52248  -2811604.50445  23269703.0184   23269697.1314
       129.2344
  14783234.15948  11502010.76643  24100789.0024   24100784.6464
     -4544.8444
    414403.11149    320283.53946  21469006.0184   21469001.7604
      -493.0944
  -3019930.57748  -2353247.97543  24026954.4714   24026951.7834
      1976.1414
 04  9  9 22  2 30.0020000  0  8G 3G 8G13G10G19G23G27G28
   4186575.73847   3258729.63342  23774697.5184   23774694.7364
     -2319.8444
  -4162135.66849  -3242031.77146  22010928.8224   22010924.6464
       705.2194
   6810897.79349   5299613.43147  21389545.7604   21389540.6744
     -2831.2194
  -1126331.42147   -873154.34642  24195549.6194   24195546.8654
        85.5784
  -3620737.92248  -2813061.15045  23269347.1664   23269341.4324
       119.9384
  14851438.95848  11555157.30443  24113768.6114   24113763.6704
     -4549.1874
    421830.67149    326071.24546  21470419.7214   21470415.2714
      -497.1724
  -3049538.18248  -2376318.78643  24021320.1584   24021317.8814
      1971.5634
 04  9  9 22  2 45.0020000  0  8G 3G 8G13G10G19G23G27G28
   4221441.14347   3285897.48242  23781332.1114   23781329.4324
     -2328.6564
  -4172690.70149  -3250256.45846  22008920.2364   22008916.0414
       702.2664
   6853422.38949   5332749.47946  21397637.9864   21397632.9244
     -2838.5314
  -1127546.82347   -874101.39842  24195318.5104   24195315.6464
        76.6884
  -3622478.42348  -2814417.36445  23269016.0574   23269010.1434
       112.2344
  14919700.78748  11608348.29043  24126758.0494   24126753.5254
     -4552.1414
    429308.89149    331898.43047  21471843.0644   21471838.3384
      -499.7814
  -3079085.86548  -2399342.89143  24015697.3304   24015694.0684
      1968.3444
 04  9  9 22  3  0.0020000  0  8G 3G 8G13G10G19G23G27G28
   4256441.76747   3313170.67742  23787992.6504   23787989.9244
     -2338.2814
  -4183199.20649  -3258444.90046  22006920.8614   22006916.6584
       698.5944
   6896060.93949   5365974.29946  21405751.8464   21405746.6894
     -2846.8124
  -1128626.90947   -874942.99842  24195112.7134   24195110.1434
        67.1254
  -3624098.19648  -2815679.50145  23268707.6974   23268701.6274
       103.5314
  14988010.93847  11661576.92443  24139757.0644   24139752.6354
     -4556.0474
    436829.35249    337758.53746  21473274.2754   21473269.1934
      -503.2344
  -3108581.74948  -2422326.64543  24010084.8614   24010081.7364
      1964.2344
 04  9  9 22  3 15.0020000  0  8G 3G 8G13G10G19G23G27G28
   4291580.38847   3340551.43643  23794679.9084   23794676.5844
     -2347.2974
  -4193658.44649  -3266594.93746  22004930.4634   22004925.7484
       695.5634
   6938816.08849   5399289.97247  21413887.8614   21413882.7214
     -2854.2974
  -1129568.71647   -875676.84542  24194933.5574   24194930.7134
        58.0634
  -3625594.25448  -2816845.24345  23268423.0184   23268417.5804
        95.5314
  15056372.04947  11714845.29543  24152766.0334   24152761.1434
     -4559.1254
    444394.88649    343653.76247  21474713.7444   21474708.5884
      -505.9694
  -3138022.91748  -2445267.74443  24004482.4084   24004478.6704
      1960.7974
 04  9  9 22  3 30.0020000  0  8G 3G 8G13G10G19G23G27G28
   4326855.05448   3368038.17343  23801392.5644   23801388.7874
     -2356.4534
  -4204070.07649  -3274707.88946  22002949.0414   22002944.9944
       692.2344
   6981685.95049   5432695.05147  21422045.4474   21422040.8074
     -2862.1254
  -1130373.89847   -876304.27742  24194780.2524   24194777.0294
        48.7664
  -3626968.13348  -2817915.76645  23268160.8774   23268155.3814
        87.1884
  15124782.11248  11768151.76443  24165783.9714   24165779.1114
     -4562.6254
    452003.66249    349582.68847  21476161.3694   21476156.5804
      -509.0004
  -3167410.98548  -2468167.47143  23998889.1894   23998886.5884
      1957.1724
 04  9  9 22  3 45.0020000  0  8G 3G 8G13G10G19G23G27G28
   4362263.53947   3395629.16243  23808129.8854   23808126.5804
     -2365.2974
  -4214436.05449  -3282785.26046  22000976.4554   22000972.3424
       689.2504
   7024668.53049   5466187.94647  21430225.0184   21430219.8774
     -2869.5624
  -1131044.45847   -876826.79442  24194652.4714   24194649.8814
        39.9534
  -3628221.57948  -2818892.45645  23267923.3934   23267917.3504
        79.2814
  15193238.79447  11821494.56643  24178810.9634   24178806.0764
     -4565.6254
    459653.75549    355543.80247  21477617.2994   21477612.7444
      -511.6564
  -3196747.87748  -2491027.33542  23993306.6114   23993303.6234
      1953.7974
 04  9  9 22  4  0.0020000  0  8G 3G 8G13G10G19G23G27G28
   4397809.65647   3423327.46743  23814894.2054   23814890.5644
     -2374.1874
  -4224752.39849  -3290823.95746  21999013.3854   21999009.2834
       686.2194
   7067767.70349   5499771.70947  21438426.4794   21438421.6504
     -2877.0944
  -1131576.24747   -877241.15342  24194551.6194   24194549.0614
        30.9064
  -3629350.48848  -2819772.10545  23267708.7994   23267702.2294
        71.2344
  15261745.79547  11874876.60643  24191847.2054   24191842.5024
     -4568.6564
    467349.11049    361540.18247  21479081.5024   21479076.8504
      -514.4224
  -3226029.36348  -2513844.02443  23987734.9944   23987731.5764
      1950.2814
 04  9  9 22  4 15.0020000  0  8G 3G 8G13G10G19G23G27G28
   4433495.89547   3451134.91142  23821685.0494   23821681.9554
     -2383.2504
  -4235016.61949  -3298822.03946  21997059.8694   21997056.3694
       683.0004
   7110985.72649   5533448.06147  21446650.5184   21446645.0614
     -2884.7034
  -1131966.65647   -877545.34842  24194476.9164   24194475.1114
        21.7814
  -3630352.26748  -2820552.68545  23267517.1114   23267511.9634
        63.0474
  15330305.48248  11928299.69643  24204893.8614   24204888.8344
     -4571.9374
    475092.28349    367573.84046  21480554.7994   21480550.2214
      -517.3754
  -3255252.91048  -2536615.57243  23982174.2364   23982170.5454
      1946.7194
 04  9  9 22  4 30.0020000  0  8G 3G 8G13G10G19G23G27G28
   4469319.60348   3479049.45543  23828502.1274   23828499.0884
     -2393.0784
  -4245231.04749  -3306781.32646  21995116.0334   21995112.0884
       679.0944
   7154320.23649   5567215.20146  21454896.9474   21454891.8654
     -2893.0004
  -1132217.94447   -877741.15542  24194429.7524   24194427.0804
        11.8594
  -3631229.03848  -2821235.88045  23267350.5494   23267344.7794
        54.1254
  15398915.13648  11981761.69743  24217950.1824   24217945.6864
     -4575.8284
    482881.00849    373642.97546  21482037.6354   21482032.6584
      -520.9374
  -3284420.66648  -2559343.63043  23976623.6434   23976620.3854
      1942.4384
 04  9  9 22  4 45.0020000  0  8G 3G 8G13G10G19G23G27G28
   4505284.22148   3507073.84743  23835346.6194   23835343.5454
     -2402.2194
  -4255392.34349  -3314699.20446  21993182.9084   21993178.4674
       675.7344
   7197774.68449   5601075.77847  21463166.2604   21463161.0144
     -2900.8754
  -1132326.50147   -877825.72442  24194408.2914   24194405.9794
         2.6254
  -3631976.89048  -2821818.60345  23267208.1114   23267202.6584
        45.7034
  15467578.27347  12035265.38143  24231016.3544   24231011.4124
     -4579.2814
    490718.77549    379750.32147  21483528.8074   21483524.2134
      -524.0944
  -3313528.97248  -2582025.37443  23971084.4164   23971080.9864
      1938.6564
 04  9  9 22  5  0.0020000  0  8G 3G 8G13G10G19G23G27G28
   4541378.71348   3535199.40443  23842214.9244   23842211.6114
     -2411.2504
  -4265510.77949  -3322583.68946  21991257.4474   21991253.2254
       672.5314
   7241338.06249   5635021.25847  21471456.2604   21471450.9594
     -2908.4064
  -1132303.11447   -877807.47042  24194413.1894   24194410.4634
        -6.5624
  -3632606.59948  -2822309.26345  23267088.4634   23267082.7364
        37.4694
  15536283.76648  12088802.07043  24244090.3934   24244085.2404
     -4582.3124
    498594.79849    385887.48447  21485027.5334   21485023.2564
      -526.9224
  -3342588.51448  -2604669.12643  23965554.1114   23965550.4554
      1935.0944
 04  9  9 22  5 15.0020000  0  8G 3G 8G13G10G19G23G27G28
   4577607.70748   3563429.76643  23849109.3934   23849104.8464
     -2420.0314
  -4275582.01649  -3330431.38946  21989340.7214   21989336.4324
       669.4844
   7285015.11749   5669055.31247  21479767.4324   21479762.3934
     -2915.9694
  -1132142.86447   -877682.62842  24194443.5494   24194440.7294
       -15.5784
  -3633113.10748  -2822703.92745  23266992.2604   23266985.7954
        29.3134
  15605036.09848  12142375.25943  24257174.3464   24257169.0614
     -4585.3594
    506513.88749    392058.20746  21486534.7444   21486530.0964
      -529.7664
  -3371594.32948  -2627271.02043  23960034.8304   23960030.9634
      1931.5944
 04  9  9 22  5 30.0020000  0  8G 3G 8G13G10G19G23G27G28
   4613968.59548   3591762.92843  23856028.0804   23856024.5684
     -2428.6254
  -4285608.17749  -3338243.97146  21987432.8774   21987428.0534
       666.7974
   7328803.17949   5703175.85846  21488099.9004   21488094.9634
     -2923.0784
  -1131848.13047   -877452.94842  24194499.8384   24194496.8304
       -24.2974
  -3633498.72448  -2823004.39145  23266919.0574   23266912.9674
        21.5164
  15673832.43047  12195982.72843  24270264.7524   24270260.4944
     -4588.0314
    514473.55549    398260.54546  21488049.1354   21488044.1354
      -532.0784
  -3400548.75548  -2649832.85843  23954524.8544   23954521.2484
      1928.5164
 04  9  9 22  5 45.0020000  0  8G 3G 8G13G10G19G23G27G28
   4650464.18248   3620201.03943  23862972.7444   23862969.4944
     -2438.0004
  -4295586.32649  -3346019.13546  21985533.7524   21985529.9944
       663.1724
   7372705.11049   5737385.14147  21496454.2684   21496449.0644
     -2931.0164
  -1131415.73747   -877115.98642  24194582.6504   24194579.7644
       -33.7974
  -3633760.19148  -2823208.10345  23266868.9794   23266862.7914
        12.7664
  15742675.60047  12249626.69543  24283365.8614   24283361.1234
     -4591.6094
    522476.95549    404496.97546  21489572.3774   21489567.5454
      -535.4844
  -3429448.56048  -2672352.12343  23949025.5024   23949021.8114
      1924.4224
 04  9  9 22  6  0.0020000  0  8G 3G 8G13G10G19G23G27G28
   4687097.18348   3648746.21743  23869943.7364   23869941.1504
     -2446.3444
  -4305513.66449  -3353754.71046  21983644.8934   21983640.6864
       660.5784
   7416723.68549   5771685.31046  21504830.7444   21504825.9364
     -2938.0314
  -1130842.83247   -876669.55042  24194691.3304   24194688.7604
       -42.4374
  -3633894.57048  -2823312.78545  23266843.0964   23266837.1824
         5.1254
  15811568.34847  12303309.32743  24296475.3774   24296471.3034
     -4594.0944
    530526.81149    410769.58946  21491103.9864   21491099.2324
      -537.8124
  -3458290.83348  -2694826.57843  23943536.3774   23943533.1044
      1921.2974
 04  9  9 22  6 15.0020000  0  8G 3G 8G13G10G19G23G27G28
   4723863.07348   3677394.94942  23876940.4164   23876937.3034
     -2455.9064
  -4315394.39049  -3361453.97746  21981764.6744   21981760.5724
       656.5634
   7460854.42449   5806072.88546  21513228.6974   21513223.3894
     -2946.3594
  -1130133.70447   -876116.96042  24194825.9864   24194823.1894
       -52.2664
  -3633905.95448  -2823321.66045  23266840.7914   23266834.6504
        -3.8594
  15880506.07948  12357026.95243  24309593.9634   24309589.7134
     -4597.8284
    538618.91449    417075.11346  21492643.9944   21492638.9904
      -541.3914
  -3487079.85148  -2717259.53443  23938058.3464   23938054.8964
      1916.9694
 04  9  9 22  6 30.0020000  0  8G 3G 8G13G10G19G23G27G28
   4760765.64148   3706150.19242  23883962.2684   23883959.7364
     -2464.8444
  -4325224.57349  -3369113.84546  21979894.2444   21979889.7954
       653.5474
   7505101.09749   5840550.78147  21521648.5184   21521643.8304
     -2953.7974
  -1129284.37447   -875455.16042  24194987.8694   24194984.7254
       -61.3444
  -3633790.23948  -2823231.45645  23266863.6894   23266857.4714
       -12.1564
  15949492.30047  12410782.39443  24322721.4634   24322717.4474
     -4600.8124
    546757.08549    423416.55446  21494192.1664   21494187.8144
      -544.2034
  -3515811.47748  -2739647.75643  23932590.7914   23932587.6864
      1913.4534
 04  9  9 22  6 45.0020000  0  8G 3G 8G13G10G19G23G27G28
   4797804.04948   3735011.26242  23891009.9004   23891008.0574
     -2473.8594
  -4335004.95549  -3376734.91246  21978032.6974   21978028.3074
       650.2504
   7549462.94549   5875118.43847  21530090.2054   21530085.4474
     -2961.3754
  -1128295.29747   -874684.43042  24195176.0334   24195173.0414
       -70.6254
  -3633547.84948  -2823042.56945  23266909.1664   23266902.9944
       -20.4374
  16018526.25147  12464575.02743  24335858.1894   24335853.7954
     -4603.8914
    554940.77149    429793.46446  21495749.7294   21495744.9634
      -547.1724
  -3544486.23248  -2761991.67643  23927134.2444   23927130.7294
      1909.7194
 04  9  9 22  7  0.0020000  0  8G 3G 8G13G10G19G23G27G28
   4834977.67447   3763977.69343  23898084.3774   23898081.5804
     -2482.6254
  -4344735.88249  -3384317.44446  21976181.0884   21976176.8814
       647.1414
   7593939.53649   5909775.51146  21538553.7364   21538548.9324
     -2968.8914
  -1127166.94047   -873805.19243  24195390.5334   24195387.9284
       -79.8124
  -3633179.04748  -2822755.17645  23266979.8384   23266973.5414
       -28.7664
  16087607.29847  12518404.33943  24349004.0254   24349000.2794
     -4606.9694
    563169.67949    436205.59546  21497315.8144   21497310.9244
      -550.0474
  -3573104.45148  -2784291.53743  23921688.6194   23921684.8894
      1906.0634
 04  9  9 22  7 15.0020000  0  8G 3G 8G13G10G19G23G27G28
   4872285.91047   3793049.04143  23905184.2754   23905180.9674
     -2491.5784
  -4354417.62549  -3391861.64446  21974338.2914   21974334.0684
       643.9534
   7638530.23349   5944521.49047  21547038.9554   21547033.7324
     -2976.3914
  -1125899.52348   -872817.59742  24195631.9394   24195628.3344
       -88.9534
  -3632684.07748  -2822369.45945  23267073.3224   23267067.4204
       -37.1094
  16156734.76547  12572269.83543  24362158.2754   24362154.2684
     -4609.9224
    571443.22549    442652.52546  21498890.0964   21498885.2054
      -552.8754
  -3601666.31348  -2806547.48143  23916252.9004   23916250.1664
      1902.3284
 04  9  9 22  7 30.0020000  0  8G 3G 8G13G10G19G23G27G28
   4909723.45647   3822221.14542  23912308.4554   23912305.2994
     -2500.0624
  -4364055.30849  -3399371.50746  21972504.4554   21972500.7094
       641.1884
   7683229.83149   5979352.31546  21555545.5024   21555540.2484
     -2983.5004
  -1124498.13648   -871725.56243  24195898.5724   24195895.7404
       -97.7814
  -3632067.79448  -2821889.21345  23267190.8934   23267184.9674
       -45.0004
  16225903.22647  12626167.26243  24375320.9164   24375316.7604
     -4612.4534
    579756.52349    449130.42346  21500471.8074   21500467.1234
      -555.3914
  -3630176.79948  -2828763.40043  23910828.1194   23910824.5214
      1899.0314
 04  9  9 22  7 45.0020000  0  8G 3G 8G13G10G19G23G27G28
   4947293.97347   3851496.85842  23919457.4324   23919454.8264
     -2508.8124
  -4373644.93449  -3406843.93446  21970679.9324   21970675.7564
       637.9694
   7728042.06149   6014270.93046  21564072.6584   21564067.5844
     -2990.9534
  -1122958.75547   -870526.04543  24196191.0644   24196188.4554
      -106.8914
  -3631326.18048  -2821311.32645  23267331.7294   23267326.0334
       -53.2974
  16295116.19747  12680099.39443  24388491.4394   24388487.7834
     -4615.3914
    588113.27449    455642.16946  21502062.4004   21502057.8774
      -558.2344
  -3658631.91648  -2850936.17743  23905412.7444   23905409.7914
      1895.4844
 04  9  9 22  8  0.0020000  0  8G 3G 8G13G10G19G23G27G28
   4984993.47947   3880873.08843  23926631.3854   23926628.6354
     -2517.8124
  -4383190.46449  -3414281.99847  21968863.4474   21968859.1544
       634.7194
   7772963.05049   6049274.28247  21572621.0184   21572616.2404
     -2998.4844
  -1121285.22148   -869221.99043  24196510.2994   24196507.1114
      -116.1874
  -3630462.98448  -2820638.68745  23267496.4944   23267490.3424
       -61.7194
  16364369.74847  12734063.12643  24401670.7444   24401666.0184
     -4618.4064
    596509.78949    462184.91547  21503660.0644   21503655.2564
      -561.2814
  -3687035.38648  -2873068.68943  23900008.3694   23900005.0494
      1891.6094
 04  9  9 22  8 15.0020000  0  8G 3G 8G13G10G19G23G27G28
   5022827.73347   3910354.30842  23933830.7684   23933828.2684
     -2526.9064
  -4392685.77649  -3421680.93346  21967056.4164   21967052.4394
       631.1564
   7817998.54849   6084366.85846  21581190.8854   21581185.9824
     -3006.2814
  -1119471.46147   -867808.65443  24196855.2604   24196851.8114
      -125.7194
  -3629471.90447  -2819866.40645  23267684.6434   23267678.6004
       -70.4374
  16433669.58947  12788062.93743  24414858.0574   24414853.7994
     -4621.6094
    604951.99349    468763.25647  21505266.7684   21505262.0684
      -564.4694
  -3715381.10948  -2895156.22443  23894613.8544   23894610.1044
      1887.6724
 04  9  9 22  8 30.0020000  0  8G 3G 8G13G10G19G23G27G28
   5060798.03347   3939941.53443  23941056.7754   23941053.6824
     -2536.1874
  -4402129.29049  -3429039.49246  21965259.2754   21965255.3774
       627.5314
   7863149.71649   6119549.57146  21589782.9244   21589777.9754
     -3014.1874
  -1117516.07547   -866284.97543  24197227.4084   24197224.3574
      -135.4064
  -3628351.40848  -2818993.28545  23267897.9864   23267892.3464
       -79.3594
  16503016.97047  12842099.79243  24428054.1894   24428049.7014
     -4625.0784
    613441.36649    475378.35047  21506882.0884   21506877.5804
      -567.8754
  -3743667.47848  -2917197.49543  23889231.0024   23889227.2294
      1883.5314
 04  9  9 22  8 45.0020000  0  8G 3G 8G13G10G19G23G27G28
   5098898.43847   3969630.15243  23948307.6824   23948304.2794
     -2544.1724
  -4411526.96649  -3436362.34446  21963470.7994   21963466.7714
       625.1564
   7908410.77249   6154817.90246  21598395.8074   21598391.0964
     -3020.8284
  -1115424.76747   -864655.35042  24197624.9794   24197622.0884
      -143.7664
  -3627107.07348  -2818023.65345  23268134.6114   23268128.7524
       -86.9374
  16572405.64247  12896168.81143  24441258.0574   24441254.3074
     -4627.0624
    621972.09649    482025.68046  21508505.3384   21508500.3264
      -569.8914
  -3771900.23348  -2939196.99943  23883858.7294   23883855.1044
      1880.5944
 04  9  9 22  9  0.0020000  0  8G 3G 8G13G10G19G23G27G28
   5137130.59447   3999421.45743  23955582.9554   23955579.7134
     -2553.2814
  -4420877.03849  -3443648.10746  21961691.7684   21961687.7834
       621.7034
   7953783.46749   6190173.23846  21607030.1044   21607024.7954
     -3028.5784
  -1113195.50047   -862918.23342  24198049.0024   24198046.0454
      -153.2344
  -3625736.79448  -2816955.88745  23268395.9164   23268389.4674
       -95.5784
  16641837.37147  12950271.39543  24454471.0104   24454466.3934
     -4630.2974
    630546.19149    488706.78846  21510137.0254   21510132.1784
      -573.1414
  -3800077.26348  -2961153.08743  23878496.3304   23878492.6664
      1876.5314
 04  9  9 22  9 15.0020000  0  8G 3G 8G13G10G19G23G27G28
   5175500.06847   4029319.70743  23962884.4004   23962881.1784
     -2562.8124
  -4430173.32449  -3450891.95646  21959922.9634   21959918.4244
       617.6564
   7999273.42749   6225619.93646  21615686.5254   21615681.1784
     -3036.9064
  -1110822.50946   -861069.15643  24198500.8074   24198497.4004
      -163.2664
  -3624234.65848  -2815785.37645  23268681.3614   23268675.8264
      -104.8754
  16711317.75147  13004411.86943  24467692.8144   24467688.1784
     -4633.9374
    639169.34349    495426.13347  21511778.1974   21511773.3034
      -576.7664
  -3828192.70147  -2983061.16143  23873146.5104   23873142.7644
      1872.0314
 04  9  9 22  9 30.0020000  0  8G 3G 8G13G10G19G23G27G28
   5214000.78447   4059320.28642  23970210.5804   23970206.8384
     -2571.2974
  -4439421.78649  -3458098.52246  21958162.8074   21958158.7054
       614.8284
   8044874.69249   6261153.36146  21624364.1664   21624358.9514
     -3043.9844
  -1108311.54046   -859112.54743  24198978.2914   24198975.5064
      -172.2504
  -3622606.32448  -2814516.52045  23268991.5414   23268985.1624
      -112.9224
  16780840.61447  13058585.45843  24480922.5334   24480918.3464
     -4636.4844
    647835.90049    502179.30246  21513427.2754   21513422.3854
      -579.3444
  -3856252.26448  -3004925.70343  23867806.8074   23867803.6584
      1868.5784
 04  9  9 22  9 45.0020000  0  8G 3G 8G13G10G19G23G27G28
   5252637.59047   4089426.86542  23977562.6824   23977559.4984
     -2579.9534
  -4448617.45249  -3465263.98046  21956413.0724   21956408.8964
       611.5784
   8090592.04349   6296777.26946  21633063.9794   21633058.9244
     -3051.2974
  -1105657.52147   -857044.46743  24199483.6664   24199481.1744
      -181.2974
  -3620846.66648  -2813145.35145  23269326.0024   23269320.2954
      -121.3284
  16850410.71647  13112795.86343  24494161.2294   24494157.1784
     -4639.1874
    656550.65749    508970.02346  21515085.3694   21515080.8074
      -582.2974
  -3884250.72148  -3026742.64443  23862478.4324   23862475.5924
      1864.8134
 04  9  9 22 10  0.0020000  0  8G 3G 8G13G10G19G23G27G28
   5291404.34547   4119634.71042  23984939.9794   23984936.1864
     -2588.9534
  -4457766.22149  -3472392.86846  21954671.6824   21954667.9474
       608.2504
   8136419.37649   6332486.85646  21641784.4394   21641779.5724
     -3058.9064
  -1102866.29047   -854869.46742  24200014.5494   24200012.1864
      -190.8284
  -3618961.52548  -2811676.39945  23269684.6744   23269678.5804
      -129.9844
  16920021.75947  13167038.15543  24507407.7054   24507403.7604
     -4642.1414
    665307.82749    515793.79046  21516751.5574   21516747.2134
      -585.3444
  -3912194.09647  -3048516.64843  23857161.2054   23857157.2364
      1861.0314
 04  9  9 22 10 15.0020000  0  8G 3G 8G13G10G19G23G27G28
   5330303.54547   4149945.77942  23992341.9864   23992338.6784
     -2597.8594
  -4466865.28149  -3479483.03346  21952940.2294   21952936.4204
       604.7504
   8182359.37049   6368284.23046  21650526.7684   21650521.6314
     -3066.6254
  -1099935.27247   -852585.54543  24200572.6504   24200569.3734
      -200.2664
  -3616948.05548  -2810107.43645  23270067.4944   23270061.7604
      -138.6874
  16989676.28847  13221314.33243  24520662.4084   24520658.5574
     -4645.2974
    674110.08149    522652.70047  21518426.6824   21518421.7954
      -588.4844
  -3940079.50047  -3070245.47143  23851854.5884   23851851.7794
      1856.8594
 04  9  9 22 10 30.0020000  0  8G 3G 8G13G10G19G23G27G28
   5369336.17547   4180360.78842  23999769.1664   23999766.4714
     -2606.1254
  -4475913.65649  -3486533.69846  21951218.5884   21951214.6234
       602.0164
   8228413.02549   6404170.19546  21659290.3934   21659285.3894
     -3073.5624
  -1096863.08247   -850191.62743  24201156.7294   24201154.1194
      -209.0784
  -3614804.79748  -2808437.35145  23270475.6894   23270469.8384
      -146.7664
  17059375.09947  13275625.05643  24533926.1434   24533921.6664
     -4647.5474
    682958.57549    529547.62647  21520110.7754   21520106.1274
      -590.9844
  -3967905.55447  -3091928.07443  23846559.9474   23846556.6234
      1853.5314
 04  9  9 22 10 45.0020000  0  8G 3G 8G13G10G19G23G27G28
   5408502.28247   4210879.81642  24007222.2214   24007219.4394
     -2615.4534
  -4484910.86549  -3493544.50146  21949506.5574   21949502.2094
       598.1884
   8274580.37849   6440144.72346  21668075.6274   21668070.4944
     -3081.5784
  -1093649.47047   -847687.50343  24201768.9004   24201765.9084
      -218.9064
  -3612531.36548  -2806665.84045  23270908.3544   23270902.6824
      -155.9064
  17129118.35047  13329970.37543  24547197.8464   24547194.0104
     -4650.9374
    691853.71249    536478.90846  21521803.5724   21521798.8184
      -594.4844
  -3995671.95448  -3113564.16143  23841276.1584   23841272.0964
      1849.1414
 04  9  9 22 11  0.0020000  0  8G 3G 8G13G10G19G23G27G28
   5447798.23947   4241500.06842  24014700.5024   24014697.4984
     -2624.0944
  -4493860.31849  -3500518.08946  21947803.5804   21947799.0294
       595.0634
   8320857.97749   6476205.18146  21676882.1504   21676876.9944
     -3088.8284
  -1090297.73246   -845075.74443  24202406.0724   24202403.3344
      -228.0164
  -3610130.92648  -2804795.35545  23271365.0804   23271359.4984
      -164.2034
  17198902.34547  13384347.44243  24560477.6114   24560473.5064
     -4653.5474
    700792.10249    543443.89047  21523504.5104   21523499.7644
      -597.2974
  -4023381.87548  -3135156.25244  23836003.2134   23835998.9944
      1845.5164
 04  9  9 22 11 15.0030000  0  8G 3G 8G13G10G19G23G27G28
   5487221.85247   4272219.74542  24022202.9604   24022199.3664
     -2632.1254
  -4502767.12749  -3507458.43847  21946108.5154   21946104.1364
       592.4064
   8367244.02949   6512350.13846  21685709.3274   21685704.5344
     -3095.6414
  -1086812.26347   -842359.77443  24203070.0224   24203066.5344
      -236.7504
  -3607607.80248  -2802829.27845  23271845.1084   23271839.1944
      -172.1874
  17268726.85247  13438756.12143  24573764.1874   24573760.2804
     -4655.7664
    709769.70049    550439.43146  21525212.5464   21525207.6794
      -599.6874
  -4051041.64048  -3156709.26843  23830739.3124   23830735.4374
      1842.2664
 04  9  9 22 11 30.0030000  0  8G 3G 8G13G10G19G23G27G28
   5526773.94047   4303039.53843  24029729.3124   24029725.7654
     -2641.1254
  -4511623.99149  -3514359.88047  21944422.8354   21944419.2184
       588.8444
   8413738.55849   6548579.62446  21694556.9134   21694552.0734
     -3103.3124
  -1083187.26247   -839535.09343  24203759.4604   24203756.2654
      -246.2974
  -3604956.03348  -2800762.94445  23272349.7334   23272344.3824
      -181.0314
  17338588.53847  13493193.75843  24587058.8434   24587054.9254
     -4658.7974
    718791.49849    557469.40446  21526929.4374   21526924.8434
      -602.9064
  -4078641.29847  -3178215.41943  23825486.9764   23825482.9564
      1838.0634
 04  9  9 22 11 45.0030000  0  8G 3G 8G13G10G19G23G27G28
   5566453.02547   4333958.31042  24037280.6714   24037276.5304
     -2649.5944
  -4520435.27949  -3521225.80546  21942746.4994   21942742.5584
       585.8444
   8460340.60049   6584892.87746  21703424.9294   21703419.4404
     -3110.5004
  -1079426.34847   -836604.50743  24204475.2494   24204472.6204
      -255.2814
  -3602179.13448  -2798599.11345  23272878.3274   23272872.6794
      -189.4224
  17408488.02647  13547660.78643  24600360.5934   24600356.1794
     -4661.3444
    727854.33349    564531.35547  21528654.3354   21528648.9914
      -605.6414
  -4106186.43948  -3199679.12244  23820245.7334   23820241.6324
      1834.4844
 04  9  9 22 12  0.0030000  0  8G 3G 8G13G10G19G23G27G28
   5606258.28648   4364975.38843  24044854.5304   24044851.2494
     -2658.3124
  -4529201.32549  -3528056.48146  21941078.0854   21941074.4994
       582.6414
   8507049.44449   6621289.34147  21712313.3274   21712308.4794
     -3117.7974
  -1075530.10047   -833568.44743  24205216.3434   24205214.1474
      -264.5164
  -3599277.59948  -2796338.16345  23273430.5624   23273424.6204
      -197.8284
  17478424.28247  13602156.52742  24613668.8824   24613664.5034
     -4663.8284
    736957.48949    571624.72646  21530386.4994   21530381.8394
      -608.5164
  -4133677.57247  -3221100.73744  23815013.8194   23815010.5814
      1830.5944
 04  9  9 22 12 15.0030000  0  8G 3G 8G13G10G19G23G27G28
   5646194.15447   4396094.24543  24052454.0224   24052451.1364
     -2666.9694
  -4537918.04549  -3534848.72647  21939419.4834   21939415.2494
       579.2974
   8553869.35949   6657772.38546  21721222.6714   21721217.6124
     -3125.2814
  -1071493.75547   -830423.24743  24205984.4604   24205981.7844
      -273.9844
  -3596246.64848  -2793976.37545  23274007.0854   23274000.8624
      -206.5624
  17548401.73447  13656684.32743  24626984.6794   24626981.2104
     -4666.6874
    746105.82949    578753.30846  21532127.1874   21532122.0264
      -611.6094
  -4161109.90347  -3242476.51944  23809793.9054   23809790.6124
      1826.6564
 04  9  9 22 12 30.0030000  0  8G 3G 8G13G10G19G23G27G28
   5686263.70347   4427317.25743  24060078.9054   24060075.9294
     -2675.6724
  -4546581.88549  -3541599.75146  21937770.9914   21937766.6324
       575.9384
   8600803.63949   6694344.52746  21730154.2104   21730148.9334
     -3132.6874
  -1067314.11347   -827166.36042  24206779.7884   24206777.0544
      -283.2974
  -3593082.75348  -2791510.99845  23274609.2104   23274603.1514
      -215.2344
  17618423.37847  13711246.60642  24640309.6634   24640306.2494
     -4669.4064
    755302.47249    585919.53246  21533877.3194   21533872.4764
      -614.5004
  -4188479.98047  -3263803.82644  23804585.3664   23804582.2064
      1822.7504
 04  9  9 22 12 45.0030000  0  8G 3G 8G13G10G19G23G27G28
   5726463.52647   4458641.80342  24067729.7494   24067725.8044
     -2683.9374
  -4555195.63949  -3548311.75347  21936131.7964   21936127.8354
       573.0474
   8647849.02049   6731003.24246  21739106.5224   21739101.5624
     -3139.6724
  -1062994.15547   -823800.16943  24207602.0304   24207598.9764
      -292.3594
  -3589788.86648  -2788944.31445  23275235.9524   23275230.1634
      -223.5314
  17688485.95647  13765840.73642  24653642.7334   24653638.6404
     -4671.9064
    764544.38349    593121.01746  21535635.9374   21535631.2024
      -617.2504
  -4215790.84248  -3285084.94544  23799388.1634   23799384.7884
      1819.1094
 04  9  9 22 13  0.0030000  0  8G 3G 8G13G10G19G23G27G28
   5766793.55947   4490067.80543  24075403.6474   24075400.7064
     -2692.8754
  -4563759.41249  -3554984.81146  21934501.9834   21934498.0194
       569.3594
   8695005.49149   6767748.52746  21748080.2804   21748075.3584
     -3147.3754
  -1058533.75747   -820324.51643  24208450.7724   24208448.1834
      -301.9064
  -3586364.79048  -2786276.18245  23275887.5774   23275881.7264
      -232.4844
  17758589.22547  13820466.57543  24666982.7264   24666978.9954
     -4674.8124
    773831.77249    600357.94446  21537403.2724   21537398.7884
      -620.6414
  -4243042.31247  -3306319.81644  23794202.5544   23794199.6014
      1814.8284
 04  9  9 22 13 15.0030000  0  8G 3G 8G13G10G19G23G27G28
   5807254.82047   4521596.05942  24083102.9684   24083100.1674
     -2702.3124
  -4572271.91349  -3561617.92547  21932882.4294   21932877.9994
       565.4384
   8742273.89949   6804581.03246  21757075.2184   21757069.7924
     -3155.3914
  -1053931.63547   -816738.44243  24209326.9444   24209323.5814
      -311.9374
  -3582809.15948  -2783505.54245  23276564.0624   23276558.7844
      -241.8914
  17828734.05147  13875124.85042  24680330.7494   24680326.8314
     -4678.0784
    783165.69749    607631.15246  21539179.7334   21539174.9214
      -624.3444
  -4270232.95947  -3327507.28444  23789028.4524   23789024.4254
      1810.3284
 04  9  9 22 13 30.0030000  0  8G 3G 8G13G10G19G23G27G28
   5847847.25147   4553226.50042  24090826.9054   24090824.3124
     -2710.2034
  -4580733.15549  -3568211.09046  21931271.8194   21931267.6794
       562.7034
   8789654.36749   6841500.86246  21766091.3434   21766086.0154
     -3162.1874
  -1049187.59347   -813041.77643  24210229.3514   24210226.2024
      -320.7344
  -3579121.67048  -2780632.16545  23277265.5304   23277260.1044
      -249.9694
  17898920.45647  13929815.44542  24693686.7334   24693683.0504
     -4680.2344
    792546.45849    614940.83146  21540964.5224   21540959.7454
      -626.6414
  -4297362.57148  -3348647.19244  23783865.6874   23783861.8864
      1806.8444
 04  9  9 22 13 45.0030000  0  8G 3G 8G13G10G19G23G27G28
   5888564.32847   4584954.06843  24098575.1874   24098572.6904
     -2718.6254
  -4589149.06449  -3574768.92447  21929670.5224   21929666.5264
       559.5314
   8837140.48349   6878503.02046  21775127.3044   21775122.7454
     -3169.2664
  -1044307.94847   -809239.46043  24211158.1474   24211155.7264
      -329.7664
  -3575308.44948  -2777660.81245  23277991.5774   23277985.3394
      -258.4224
  17969141.84846  13984533.33942  24707049.7184   24707045.9484
     -4682.5004
    801967.82549    622282.16046  21542757.2884   21542752.7454
      -629.4374
  -4324437.26647  -3369744.30444  23778713.8044   23778709.6084
      1803.1724
 04  9  9 22 14  0.0030000  0  8G 3G 8G13G10G19G23G27G28
   5929414.86447   4616785.66642  24106348.9764   24106346.7414
     -2727.8594
  -4597510.48549  -3581284.31747  21928079.3744   21928075.4174
       555.4694
   8884741.28849   6915594.53946  21784185.7654   21784180.5814
     -3177.2664
  -1039283.49848   -805324.28743  24212114.4294   24212111.2294
      -339.9064
  -3571360.28248  -2774584.30745  23278742.6014   23278736.5774
      -267.8444
  18039407.06846  14039285.38143  24720420.6324   24720417.0504
     -4685.9534
    811438.90849    629662.21646  21544559.4374   21544554.8584
      -633.1564
  -4351447.77148  -3390791.41244  23773573.1634   23773569.2414
      1798.4694
 04  9  9 22 14 15.0030000  0  8G 3G 8G13G10G19G23G27G28
   5970395.69248   4648718.76642  24114147.2574   24114145.2414
     -2736.2344
  -4605820.52849  -3587759.64747  21926498.0464   21926494.1514
       552.5474
   8932453.40649   6952772.79346  21793265.0774   21793260.3434
     -3184.2814
  -1034117.35548   -801298.71443  24213097.0854   24213094.5344
      -348.9534
  -3567280.06848  -2771404.89845  23279518.7804   23279513.2414
      -276.2034
  18109712.92846  14094069.11042  24733798.7024   24733796.0624
     -4688.2194
    820956.63449    637078.63947  21546370.8434   21546366.1204
      -635.8444
  -4378397.22448  -3411790.93244  23768444.7334   23768441.1364
      1794.8284
 04  9  9 22 14 30.0030000  0  8G 3G 8G13G10G19G23G27G28
   6011506.75348   4680753.32742  24121970.3664   24121968.1404
     -2745.2974
  -4614079.09649  -3594194.90447  21924926.3514   21924921.9014
       548.5944
   8980276.86649   6990037.81246  21802365.3974   21802360.7414
     -3192.2034
  -1028809.35948   -797162.60943  24214107.4524   24214104.3744
      -358.8444
  -3563067.36248  -2768122.26845  23280320.6554   23280314.3624
      -285.5624
  18180059.26946  14148884.30742  24747185.2724   24747182.2534
     -4691.3594
    830521.25749    644531.58647  21548190.7184   21548186.2574
      -639.4224
  -4405285.20347  -3432742.58244  23763328.1714   23763324.7374
      1790.1884
 04  9  9 22 14 45.0030000  0  8G 3G 8G13G10G19G23G27G28
   6052747.20447   4712888.78142  24129819.0464   24129816.0074
     -2753.7194
  -4622286.73549  -3600590.45547  21923364.9294   21923360.1474
       545.5004
   9028210.86549   7027388.97046  21811487.1794   21811482.6474
     -3199.3594
  -1023359.88947   -792916.27643  24215144.1634   24215141.3744
      -368.0164
  -3558722.74948  -2764736.85245  23281147.9294   23281141.3784
      -294.0314
  18250445.22946  14203730.43342  24760579.5854   24760576.0934
     -4693.6414
    840132.24149    652020.66546  21550019.9444   21550015.3314
      -642.3284
  -4432112.25048  -3453646.72544  23758223.3514   23758219.7374
      1786.4694
 04  9  9 22 15  0.0030000  0  8G 3G 8G13G10G19G23G27G28
   6094122.13248   4745128.97842  24137692.0694   24137688.4524
     -2762.8284
  -4630438.16749  -3606942.20047  21921813.3824   21921809.0034
       541.5164
   9076260.73049   7064830.41046  21820630.7574   21820626.1754
     -3207.2974
  -1017763.77047   -788555.62543  24216208.9214   24216205.8234
      -378.0624
  -3554240.66848  -2761244.29145  23282000.4834   23281994.0654
      -303.4694
  18320875.84246  14258611.36242  24773982.1474   24773978.9374
     -4696.9224
    849794.87049    659549.99446  21551858.3434   21551853.9524
      -645.9534
  -4458872.80148  -3474499.05744  23753130.6874   23753127.2804
      1781.7344
 04  9  9 22 15 15.0030000  0  8G 3G 8G13G10G19G23G27G28
   6135621.64148   4777466.22842  24145589.5774   24145585.5034
     -2770.6564
  -4638543.07249  -3613257.71347  21920271.1244   21920266.7334
       538.8134
   9124416.43449   7102354.32046  21829794.0224   21829789.5114
     -3213.7814
  -1012030.77347   -784088.36043  24217300.4914   24217297.3974
      -386.6724
  -3549630.86748  -2757652.22145  23282877.7024   23282871.5814
      -311.5164
  18391340.99447  14313519.20742  24787391.6874   24787387.9294
     -4698.7344
    859499.30549    667111.89546  21553705.3514   21553700.7104
      -648.3594
  -4485576.46448  -3495307.07344  23748048.9054   23748045.4604
      1778.3594
 04  9  9 22 15 30.0030000  0  8G 3G 8G13G10G19G23G27G28
   6177252.65148   4809905.96142  24153511.1164   24153508.0694
     -2779.4844
  -4646594.11749  -3619531.23346  21918738.8824   21918734.7534
       535.2344
   9172685.16249   7139966.28946  21838979.6554   21838974.6514
     -3221.3914
  -1006153.52848   -779508.68643  24218418.6324   24218416.0114
      -396.3124
  -3544885.90648  -2753954.82445  23283780.7024   23283774.5654
      -320.5944
  18461847.81746  14368459.48342  24800808.4294   24800804.9564
     -4701.5004
    869253.09949    674712.25546  21555561.4604   21555556.5114
      -651.6254
  -4512216.08948  -3516065.16344  23742980.1324   23742976.3474
      1774.0634
 04  9  9 22 15 45.0030000  0  8G 3G 8G13G10G19G23G27G28
   6219015.39148   4842448.31943  24161458.1874   24161455.7374
     -2788.6564
  -4654590.54449  -3625762.21447  21917217.4444   21917213.5194
       531.2034
   9221067.14049   7177666.51846  21848186.4834   21848181.8704
     -3229.3124
  -1000131.50147   -774816.19343  24219563.8744   24219561.5734
      -406.4224
  -3540005.19348  -2750151.67345  23284709.3194   23284703.5384
      -330.0474
  18532396.41847  14423432.33343  24814233.7724   24814230.4174
     -4704.6874
    879056.53349    682351.30147  21557426.7104   21557422.3864
      -655.3284
  -4538791.03748  -3536772.87644  23737923.0304   23737919.8784
      1769.4064
 04  9  9 22 16  0.0030000  0  8G 3G 8G13G10G19G23G27G28
   6260909.85547   4875093.37343  24169430.2334   24169427.9294
     -2797.3914
  -4662532.43249  -3631950.70247  21915705.9214   21915701.5264
       527.5784
   9269562.38049   7215455.01546  21857414.4374   21857409.7964
     -3236.8124
   -993964.55647   -770010.79343  24220737.6164   24220734.5424
      -416.0474
  -3534988.43048  -2746242.49045  23285664.2024   23285658.5934
      -339.0784
  18602986.79547  14478437.76743  24827666.8044   24827663.5154
     -4707.4374
    888909.80449    690029.16546  21559301.6244   21559296.8084
      -658.6724
  -4565300.95448  -3557429.95044  23732878.1244   23732874.5464
      1765.1254
 04  9  9 22 16 15.0030000  0  8G 3G 8G13G10G19G23G27G28
   6302934.73548   4907840.03942  24177427.8124   24177425.2104
     -2806.1254
  -4670420.87849  -3638097.53346  21914204.8584   21914200.8084
       524.0004
   9318169.43649   7253330.61146  21866664.2334   21866659.8944
     -3244.3444
   -987653.87247   -765093.37543  24221938.9134   24221936.1044
      -425.6254
  -3529836.59648  -2742228.06245  23286644.1244   23286638.3544
      -348.0944
  18673617.51347  14533474.61543  24841107.8044   24841104.0894
     -4710.2664
    898811.94249    697745.12746  21561186.2024   21561181.6284
      -661.9374
  -4591746.83748  -3578037.08444  23727845.2334   23727842.1874
      1760.7974
 04  9  9 22 16 30.0030000  0  8G 3G 8G13G10G19G23G27G28
   6345090.49348   4940688.67042  24185449.9134   24185447.4604
     -2814.3124
  -4678255.06549  -3644202.08747  21912714.2654   21912709.7334
       520.8134
   9366888.91649   7291293.83846  21875935.3434   21875930.5034
     -3251.3284
   -981198.68347   -760063.36443  24223167.4524   24223164.5114
      -434.7974
  -3524548.80149  -2738107.69945  23287650.9054   23287644.3784
      -356.7664
  18744289.09447  14588543.30743  24854555.4914   24854551.8744
     -4712.4844
    908763.59849    705499.65846  21563080.0934   21563074.9764
      -664.6874
  -4618127.87648  -3598593.68443  23722825.6164   23722821.8234
      1756.8914
 04  9  9 22 16 45.0030000  0  8G 3G 8G13G10G19G23G27G28
   6387371.02348   4973634.51043  24193495.3974   24193492.4254
     -2823.2344
  -4686040.85249  -3650268.90846  21911232.3124   21911228.0624
       517.1414
   9415714.99849   7329340.11146  21885226.6164   21885221.9684
     -3258.9844
   -974604.72147   -754925.19143  24224422.2654   24224419.3274
      -444.5784
  -3519130.84048  -2733885.88545  23288681.7494   23288675.3124
      -365.8914
  18814995.21947  14643638.90143  24868011.2654   24868007.0264
     -4715.2664
    918758.98549    713288.27747  21564981.9214   21564977.2764
      -668.1564
  -4644449.88548  -3619104.32244  23717816.3974   23717812.7724
      1752.4694
 04  9  9 22 17  0.0030000  0  8G 3G 8G13G10G19G23G27G28
   6429790.23648   5006688.45143  24201567.8664   24201564.8624
     -2832.6414
  -4693763.99649  -3656286.93246  21909762.6474   21909758.3784
       512.6094
   9464661.62249   7367480.32146  21894540.8194   21894536.3474
     -3267.2344
   -967857.83447   -749667.85943  24225705.6244   24225702.6984
      -454.9374
  -3513568.33548  -2729551.45645  23289740.0224   23289734.0074
      -375.7664
  18885749.98947  14698772.40943  24881475.3194   24881471.4954
     -4718.7504
    928812.28449    721122.02646  21566894.9604   21566890.1364
      -672.2814
  -4670698.46848  -3639557.71844  23712821.5384   23712818.1444
      1747.2974
 04  9  9 22 17 15.0030000  0  8G 3G 8G13G10G19G23G27G28
   6472336.49748   5039841.37942  24209664.2654   24209661.2964
     -2840.7194
  -4701435.88849  -3662265.02046  21908302.7334   21908298.2884
       509.6254
   9513717.12349   7405705.36946  21903876.0224   21903871.0114
     -3274.1094
   -960969.57047   -744300.37543  24227016.2654   24227013.6444
      -464.1564
  -3507872.72548  -2725113.29645  23290823.7184   23290817.5194
      -384.3284
  18956541.61447  14753934.63443  24894946.0464   24894942.8004
     -4720.8754
    938912.01949    728991.94646  21568816.8274   21568812.1404
      -675.0474
  -4696885.03348  -3659962.79543  23707838.0074   23707834.5814
      1743.5474
 04  9  9 22 17 30.0030000  0  8G 3G 8G13G10G19G23G27G28
   6515011.39048   5073094.51942  24217784.8124   24217782.0974
     -2849.8444
  -4709054.71349  -3668201.77146  21906853.0464   21906848.6324
       505.6724
   9562883.11049   7444016.51546  21913232.0694   21913227.2694
     -3281.8914
   -953938.07547   -738821.30543  24228355.0854   24228351.5384
      -473.9534
  -3502042.02048  -2720569.87245  23291933.1714   23291927.2884
      -393.6874
  19027371.70447  14809126.83343  24908425.1014   24908420.8944
     -4723.7814
    949060.07249    736899.51646  21570748.0074   21570743.6474
      -678.5474
  -4723007.55548  -3680317.97143  23702867.3824   23702863.3584
      1738.8444
 04  9  9 22 17 45.0030000  0  8G 3G 8G13G10G19G23G27G28
   6557817.34648   5106449.80343  24225930.4054   24225928.1204
     -2858.5004
  -4716617.73349  -3674095.02246  21905413.9294   21905409.2224
       501.9694
   9612162.05749   7482415.68546  21922609.3664   21922604.4834
     -3289.4224
   -946760.53247   -733228.42243  24229720.5934   24229717.7534
      -483.8124
  -3496073.38348  -2715918.97145  23293069.0384   23293063.0304
      -402.9694
  19098242.63947  14864350.87743  24921911.4834   24921907.6324
     -4726.5314
    959259.21849    744846.90346  21572688.8584   21572684.1794
      -682.0474
  -4749063.29148  -3700621.11143  23697908.7414   23697904.8584
      1734.3284
 04  9  9 22 18  0.0030000  0  8G 3G 8G13G10G19G23G27G28
   6600752.46748   5139905.73443  24234100.8744   24234098.5734
     -2866.7344
  -4724126.77549  -3679946.21647  21903984.9914   21903980.5344
       498.6884
   9661552.16749   7520901.46646  21932007.9764   21932003.2614
     -3296.5004
   -939438.75447   -727523.10543  24231113.4214   24231111.1834
      -493.0624
  -3489968.34648  -2711161.78545  23294230.7964   23294225.3084
      -411.6414
  19169152.47347  14919605.18242  24935405.3744   24935401.0304
     -4728.7664
    969507.70049    752832.73046  21574639.2414   21574634.6044
      -685.0004
  -4775053.82648  -3720873.44643  23692963.0304   23692959.5654
      1730.4534
 04  9  9 22 18 15.0030000  0  8G 3G 8G13G10G19G23G27G28
   6643817.12548   5173462.61143  24242296.5774   24242293.2334
     -2875.1094
  -4731580.82949  -3685754.55947  21902566.6404   21902562.3004
       495.3754
   9711053.97049   7559474.28546  21941427.8904   21941423.3044
     -3303.6254
   -931972.01448   -721704.85343  24232534.8274   24232532.2724
      -502.4224
  -3483726.20148  -2706297.75845  23295418.5464   23295412.4724
      -420.5164
  19240101.59347  14974890.14342  24948906.4684   24948902.5154
     -4731.0004
    979806.26649    760857.59846  21576598.7884   21576594.0034
      -688.0004
  -4800978.48448  -3741074.44144  23688029.6404   23688025.8864
      1726.3594
 04  9  9 22 18 30.0030000  0  7G 3G 8G13G10G19G27G28
   6687009.57548   5207119.03042  24250515.1244   24250512.0034
     -2884.1094
  -4738981.53749  -3691521.34046  21901157.8744   21901154.0304
       491.2344
   9760665.80749   7598132.84946  21950868.8434   21950864.0734
     -3311.4534
   -924361.70048   -715774.74643  24233983.0074   24233979.2614
      -512.5314
  -3477348.15048  -2701327.82545  23296632.2334   23296626.3584
      -430.1414
    990153.49649    768920.37746  21578567.5464   21578562.6984
      -691.8124
  -4826838.53747  -3761225.08743  23683108.8664   23683105.3044
      1721.4844
 04  9  9 22 18 45.0030000  0  7G 3G 8G13G10G19G27G28
   6730337.46248   5240881.01942  24258760.2184   24258757.2064
     -2893.1724
  -4746321.03449  -3697240.41047  21899761.5624   21899757.7104
       487.0784
   9810395.26049   7636883.05346  21960331.7884   21960327.3974
     -3319.3594
   -916600.13147   -709726.75443  24235459.8354   24235456.8584
      -522.5944
  -3470826.42148  -2696245.95745  23297873.6244   23297867.5774
      -439.7194
   1000557.21849    777027.17647  21580547.6794   21580543.0894
      -695.6254
  -4852626.12348  -3781319.28143  23678201.9214   23678197.8314
      1716.6254
 04  9  9 22 19  0.0030000  0  7G 3G 8G13G10G19G27G28
   6773795.97848   5274744.76242  24267030.0384   24267026.5894
     -2901.4374
  -4753603.76849  -3702915.25746  21898375.4764   21898371.3584
       483.8594
   9860237.60449   7675721.22346  21969816.5464   21969811.8194
     -3326.4374
   -908691.80747   -703564.42043  24236964.7264   24236961.9014
      -531.9374
  -3464165.33148  -2691055.47845  23299141.2804   23299135.0654
      -448.4694
   1011012.92949    785174.48746  21582537.0304   21582532.3664
      -698.5624
  -4878345.46048  -3801360.29643  23673307.3514   23673303.9874
      1712.5314
 04  9  9 22 19 15.0030000  0  7G 3G 8G13G10G19G27G28
   6817385.34448   5308710.50042  24275324.4834   24275321.5934
     -2910.2194
  -4760829.24249  -3708545.49146  21897000.4604   21896996.6754
       479.8914
   9910193.16949   7714647.63246  21979322.5154   21979318.4174
     -3334.1094
   -900636.22147   -697287.33143  24238498.2024   24238495.3824
      -541.9064
  -3457364.45748  -2685756.07545  23300435.4914   23300429.5854
      -457.9374
   1021521.07549    793362.66346  21584536.7414   21584532.7144
      -702.2034
  -4903996.12748  -3821347.78444  23668426.4374   23668422.6514
      1707.8134
 04  9  9 22 19 30.0030000  0  7G 3G 8G13G10G19G27G28
   6861103.40948   5342776.54043  24283643.8824   24283640.6284
     -2918.7814
  -4767999.36949  -3714132.59646  21895636.3664   21895631.8864
       476.1884
   9960259.76649   7753660.56246  21988850.3194   21988845.6634
     -3341.5164
   -892435.31248   -690897.00343  24240058.2654   24240055.4134
      -551.6094
  -3450425.51148  -2680349.09445  23301756.0224   23301749.7064
      -467.1564
   1032079.86849    801590.28946  21586546.2724   21586541.4914
      -705.7194
  -4929579.93048  -3841283.17944  23663557.7804   23663554.3044
      1703.4064
 04  9  9 22 19 45.0030000  0  7G 3G 8G13G10G19G27G28
   6904947.98248   5376941.12142  24291987.4684   24291984.0934
     -2927.0474
  -4775116.03449  -3719678.03347  21894282.3194   21894277.7494
       472.7194
  10010435.40749   7792758.44846  21998398.2414   21998393.8544
     -3348.6254
   -884091.06347   -684394.98343  24241646.4604   24241643.2024
      -560.9694
  -3443350.23448  -2674835.86945  23303102.0074   23303096.1714
      -476.1094
   1042687.37449    809855.88546  21588564.6244   21588560.2264
      -708.6874
  -4955098.66948  -3861167.89744  23658701.9764   23658698.3434
      1699.1884
 04  9  9 22 20  0.0030000  0  7G 3G 8G13G10G19G27G28
   6948923.53248   5411207.77842  24300355.6084   24300352.0894
     -2936.0314
  -4782174.39249  -3725178.04847  21892938.7804   21892934.8314
       468.5474
  10060724.51649   7831944.75346  22007967.9764   22007963.7224
     -3356.4844
   -875598.77347   -677777.62043  24243262.1084   24243258.7064
      -571.1564
  -3436133.91548  -2669212.74745  23304475.5074   23304469.3974
      -485.9064
   1053348.30749    818163.10946  21590593.3124   21590589.1084
      -712.5624
  -4980547.54748  -3880998.15144  23653858.6404   23653854.9644
      1694.1724
 04  9  9 22 20 15.0030000  0  7G 3G 8G13G10G19G27G28
   6993026.57548   5445573.78742  24308747.8044   24308744.9954
     -2944.4694
  -4789177.79149  -3730635.22247  21891605.8354   21891601.6634
       465.0634
  10111123.60049   7871216.75346  22017558.5544   22017554.6634
     -3363.5784
   -866961.78447   -671047.48643  24244905.3434   24244902.7574
      -580.6564
  -3428779.74848  -2663482.20745  23305874.4524   23305868.8784
      -494.9064
   1064059.38749    826509.40647  21592631.5694   21592627.1874
      -715.7504
  -5005929.84648  -3900776.53144  23649028.8664   23649025.1324
      1689.9384
 04  9  9 22 20 30.0030000  0  7G 3G 8G13G10G19G27G28
   7037259.92348   5480041.32642  24317165.3274   24317161.6944
     -2953.4064
  -4796122.89449  -3736046.98646  21890284.4294   21890280.1634
       460.8444
  10161635.82449   7910576.91946  22027170.6164   22027166.3784
     -3371.5784
   -858176.89547   -664202.10243  24246577.4374   24246574.6204
      -590.8444
  -3421284.40048  -2657641.67545  23307301.0154   23307294.8154
      -504.6724
   1074823.87449    834897.32547  21594679.8974   21594675.6984
      -719.6414
  -5031242.21848  -3920500.44144  23644212.1944   23644207.7374
      1685.0004
 04  9  9 22 20 45.0030000  0  7G 3G 8G13G10G19G27G28
   7081632.18448   5514617.07942  24325609.6084   24325605.9644
     -2962.9694
  -4803001.09249  -3741406.62147  21888975.6404   21888971.3234
       456.1564
  10212269.68749   7950031.85246  22036806.1404   22036801.8864
     -3379.7664
   -849235.33848   -657234.64743  24248278.9604   24248275.9794
      -601.5004
  -3413638.91648  -2651684.13045  23308755.8274   23308750.0894
      -514.8914
   1085650.50449    843333.64647  21596740.5154   21596735.8234
      -723.9844
  -5056475.75048  -3940162.89444  23639411.0934   23639406.2654
      1679.3914
 04  9  9 22 21  0.0030000  0  7G 3G 8G13G10G19G27G28
   7126130.72348   5549291.25242  24334076.8904   24334074.0074
     -2970.8444
  -4809824.56449  -3746723.59446  21887677.0774   21887672.7844
       453.0004
  10263012.70249   7989571.86446  22046462.3354   22046457.1404
     -3386.5474
   -840149.35447   -650154.68443  24250007.9294   24250004.8084
      -610.5944
  -3405855.55648  -2645619.17445  23310236.8124   23310230.8944
      -523.5944
   1096527.10949    851808.92947  21598809.8434   21598805.5544
      -726.8284
  -5081642.53248  -3959773.34344  23634621.5384   23634616.5264
      1675.5164
 04  9  9 22 21 15.0030000  0  7G 3G 8G13G10G19G27G28
   7170751.57648   5584060.75843  24342567.6554   24342565.4914
     -2978.8284
  -4816596.90549  -3752000.72646  21886388.4054   21886384.8274
       449.8134
  10313860.86249   8029193.78546  22056138.5074   22056133.8704
     -3393.2974
   -830922.63648   -642965.00443  24251764.1474   24251760.4684
      -619.7034
  -3397937.91548  -2639449.55645  23311743.8514   23311737.5654
      -532.2344
   1107449.89349    860320.18946  21600888.6634   21600884.0194
      -729.6564
  -5106746.35048  -3979334.74644  23629844.2884   23629839.7374
      1671.5634
 04  9  9 22 21 30.0030000  0  7G 3G 8G13G10G19G27G28
   7215499.32348   5618929.12243  24351083.1714   24351080.8544
     -2987.0784
  -4823313.30849  -3757234.28246  21885110.3584   21885106.3624
       446.2194
  10364818.91049   8068901.34946  22065835.1794   22065831.0694
     -3400.4374
   -821550.58447   -635662.10543  24253547.0624   24253544.0854
      -629.2974
  -3389881.09548  -2633171.51245  23313276.7494   23313270.5464
      -541.4374
   1118423.84549    868871.32346  21602976.8824   21602972.2494
      -732.9374
  -5131782.19548  -3998843.14444  23625079.8904   23625075.3084
      1667.1564
 04  9  9 22 21 45.0030000  0  7G 3G 8G13G10G19G27G28
   7260370.03248   5653893.29743  24359621.7414   24359619.4094
     -2995.8124
  -4829977.50149  -3762427.14546  21883841.6714   21883838.1834
       442.2034
  10415882.90949   8108691.46646  22075552.3434   22075547.8354
     -3408.1564
   -812036.83748   -628248.77843  24255357.8124   24255354.5224
      -639.2664
  -3381688.73048  -2626787.83645  23314835.7884   23314829.3784
      -551.0474
   1129445.20649    877459.39846  21605073.9054   21605069.6944
      -736.6874
  -5156753.74648  -4018301.47544  23620327.8974   23620323.7654
      1662.2814
 04  9  9 22 22  0.0030000  0  7G 3G 8G13G10G19G27G28
   7305373.01548   5688960.53542  24368186.0624   24368183.2764
     -3004.2034
  -4836579.75249  -3767571.74547  21882585.5624   21882581.5934
       438.4694
  10467062.27249   8148571.47046  22085291.6324   22085287.0424
     -3415.3444
   -802371.76248   -620717.53743  24257197.4054   24257194.0114
      -649.0164
  -3373351.15648  -2620291.00645  23316422.3124   23316415.9444
      -560.2664
   1140523.54249    886091.87746  21607182.2574   21607177.7294
      -740.0474
  -5181651.22148  -4037702.07944  23615589.8664   23615585.8824
      1657.7974
 04  9  9 22 22 15.0030000  0  7G 3G 8G13G10G19G27G28
   7350497.57948   5724122.50942  24376772.8974   24376769.7294
     -3012.6094
  -4843130.38549  -3772676.13146  21881339.1164   21881334.7804
       434.7504
  10518346.43349   8188533.13146  22095050.5384   22095045.8544
     -3422.6094
   -792565.91247   -613076.59843  24259062.9524   24259059.5344
      -658.6724
  -3364878.68648  -2613689.06345  23318034.3974   23318029.1204
      -569.5784
   1151648.56049    894760.72147  21609299.3664   21609294.4484
      -743.4064
  -5206485.01448  -4057053.03844  23610864.1014   23610860.5224
      1653.2664
 04  9  9 22 22 30.0030000  0  7G 3G 8G13G10G19G27G28
   7395744.88148   5759380.14742  24385382.5304   24385379.9874
     -3020.6414
  -4849628.15649  -3777739.30847  21880102.5774   21880098.1364
       431.3754
  10569736.63449   8228577.43746  22104829.9684   22104825.3904
     -3429.5624
   -782617.87547   -605324.89143  24260956.1634   24260952.5464
      -668.0004
  -3356269.76548  -2606980.80945  23319672.7804   23319666.8234
      -578.5474
   1162821.60949    903466.99746  21611425.4834   21611420.7964
      -746.5004
  -5231253.56048  -4076353.18344  23606150.9444   23606147.2224
      1648.9534
 04  9  9 22 22 45.0030000  0  7G 3G 8G13G10G19G27G28
   7441115.10648   5794733.55442  24394016.5694   24394013.5814
     -3028.7974
  -4856072.56749  -3782760.92447  21878876.4524   21878872.1474
       427.8134
  10621232.94349   8268704.40846  22114629.4914   22114624.5304
     -3436.6724
   -772527.20248   -597462.04143  24262876.4684   24262872.8084
      -677.3754
  -3347523.93448  -2600165.85745  23321337.3044   23321330.8474
      -587.5944
   1174043.22249    912211.10346  21613561.0774   21613556.2024
      -749.7034
  -5255956.46048  -4095602.17144  23601449.9054   23601446.3084
      1644.6094
 04  9  9 22 23  0.0030000  0  7G 3G 8G13G10G19G27G28
   7486610.51248   5830184.50242  24402673.7964   24402672.0264
     -3037.1724
  -4862461.25249  -3787739.10247  21877660.4604   21877655.9914
       424.0634
  10672837.76449   8308915.95046  22124449.4524   22124444.9604
     -3443.9694
   -762291.39848   -589486.07543  24264823.9834   24264820.8154
      -687.2034
  -3338638.60048  -2593242.19745  23323027.9914   23323021.7764
      -597.0314
   1185315.89549    920995.02546  21615705.5624   21615701.0464
      -753.2034
  -5280590.97548  -4114797.84744  23596762.4054   23596758.3584
      1639.9844
 04  9  9 22 23 15.0030000  0  7G 3G 8G13G10G19G27G28
   7532229.28948   5865731.60042  24411355.2184   24411352.4174
     -3045.4224
  -4868795.43649  -3792674.81446  21876454.9914   21876451.0504
       420.3594
  10724549.33449   8349210.65446  22134289.6244   22134285.5654
     -3451.0944
   -751912.03447   -581398.24143  24266799.4684   24266796.2334
      -696.8284
  -3329615.15948  -2586210.93145  23324744.7804   23324739.0814
      -606.2194
   1196638.17949    929817.58646  21617860.6084   21617855.6444
      -756.5784
  -5305158.62648  -4133941.44344  23592087.0304   23592083.0304
      1635.5474
 04  9  9 22 23 30.0030000  0  7G 3G 8G13G10G19G27G28
   7577969.49148   5901373.29642  24420059.8194   24420056.0734
     -3053.7504
  -4875076.98949  -3797569.53146  21875259.6474   21875255.7494
       416.6414
  10776365.68149   8389587.00346  22144150.1874   22144145.8904
     -3458.3284
   -741390.88647   -573199.94743  24268801.3274   24268797.9764
      -706.5004
  -3320455.39948  -2579073.44945  23326488.0224   23326481.6474
      -615.5474
   1208008.25849    938677.38946  21620024.3274   21620019.2724
      -759.9694
  -5329661.09548  -4153034.24044  23587424.5304   23587420.5424
      1630.9224
 04  9  9 22 23 45.0030000  0  7G 3G 8G13G10G19G27G28
   7623840.12948   5937116.62343  24428788.5464   24428785.0424
     -3062.0624
  -4881296.36649  -3802415.79646  21874076.4684   21874072.2454
       412.9064
  10828296.00449   8430052.18346  22154031.9524   22154027.2924
     -3465.4064
   -730718.62946   -564883.90643  24270832.3584   24270828.9444
      -716.2344
  -3311149.70248  -2571822.24845  23328258.6404   23328252.5654
      -624.9224
   1219435.65549    947581.85446  21622198.8824   21622193.8584
      -763.3754
  -5354088.79848  -4172068.78744  23582776.2184   23582772.2334
      1626.2974
 04  9  9 22 24  0.0030000  0  7G 3G 8G13G10G19G27G28
   7669836.26148   5972957.76042  24437540.9444   24437537.2964
     -3070.2664
  -4887458.02849  -3807217.06947  21872903.6714   21872899.5154
       409.1094
  10880335.53349   8470602.42546  22163934.9764   22163930.6444
     -3472.6564
   -719899.94246   -556453.76143  24272890.9834   24272887.9404
      -725.8444
  -3301702.62648  -2564460.87045  23330056.2884   23330050.6834
      -634.2344
   1230915.73149    956527.38346  21624383.3124   21624378.3394
      -766.7664
  -5378446.29448  -4191048.60644  23578140.8584   23578136.9994
      1621.7344
 04  9  9 22 24 15.0030000  0  7G 3G 8G13G10G19G27G28
   7715955.90547   6008895.13042  24446316.9444   24446313.9994
     -3078.9064
  -4893563.89849  -3811974.89147  21871741.7264   21871737.3704
       404.9534
  10932482.31949   8511236.28746  22173858.0074   22173853.4174
     -3480.2344
   -708936.61347   -547910.88643  24274976.9134   24274974.1204
      -736.0314
  -3292115.83048  -2556990.62345  23331881.0384   23331875.0894
      -643.9694
   1242446.75749    965512.59546  21626577.4374   21626572.9214
      -770.6564
  -5402735.25448  -4209975.06444  23573518.6164   23573514.5074
      1616.7664
 04  9  9 22 24 30.0030000  0  7G 3G 8G13G10G19G27G28
   7762200.75948   6044930.07442  24455116.8354   24455114.4524
     -3087.3444
  -4899611.92949  -3816687.64247  21870590.9994   21870586.8194
       401.0164
  10984738.14849   8551955.09246  22183802.1084   22183797.7534
     -3487.5944
   -697826.79348   -539253.88643  24277091.1404   24277087.6594
      -745.7344
  -3282387.32748  -2549409.97245  23333731.8584   23333726.0654
      -653.5624
   1254030.73849    974539.06446  21628782.0074   21628776.9404
      -774.2814
  -5426953.64448  -4228846.50444  23568909.9684   23568905.6084
      1612.0004
 04  9  9 22 24 45.0030000  0  7G 3G 8G13G10G19G27G28
   7808570.19548   6081062.11142  24463941.2804   24463938.0384
     -3095.3594
  -4905602.56949  -3821355.64847  21869450.9764   21869446.6404
       397.5474
  11037102.21349   8592758.22246  22193766.8124   22193762.2334
     -3494.4694
   -686570.92448   -530483.08143  24279233.0224   24279229.9954
      -755.2664
  -3272517.44448  -2541719.12845  23335610.0774   23335604.3044
      -662.6724
   1265667.16149    983606.42646  21630996.3274   21630991.9604
      -777.4844
  -5451101.75048  -4247663.16344  23564315.1794   23564310.8824
      1607.6094
 04  9  9 22 25  0.0030000  0  7G 3G 8G13G10G19G27G28
   7855068.05848   6117294.18242  24472789.2494   24472786.7724
     -3103.9224
  -4911531.46149  -3825975.56347  21868322.5854   21868318.3784
       393.4384
  11089578.51149   8633648.83946  22203752.8904   22203748.4094
     -3501.9374
   -675164.87948   -521595.26443  24281403.7414   24281400.1444
      -765.1724
  -3262501.94948  -2533914.84145  23337515.8354   23337510.1204
      -672.3444
   1277360.27249    992717.93246  21633221.5624   21633216.7924
      -781.1724
  -5475175.43148  -4266421.85244  23559734.1014   23559730.4524
      1602.5944
 04  9  9 22 25 15.0030000  0  7G 3G 8G13G10G19G27G28
   7901684.16247   6153618.38542  24481658.9524   24481657.1904
     -3112.0624
  -4917408.53349  -3830555.08347  21867204.0074   21867200.0624
       389.7194
  11142157.12249   8674619.16646  22213758.1404   22213753.5814
     -3509.0164
   -663618.44948   -512598.02943  24283600.4604   24283597.9684
      -774.7504
  -3252350.67248  -2526004.74845  23339447.7494   23339441.2454
      -681.6414
   1289100.44349   1001866.12446  21635455.7414   21635450.8084
      -784.6094
  -5499184.40548  -4285130.09544  23555165.0774   23555161.3234
      1598.1094
 04  9  9 22 25 30.0030000  0  7G 3G 8G13G10G19G27G28
   7948425.25847   6190040.01542  24490554.3664   24490551.9564
     -3120.4224
  -4923226.68149  -3835088.68547  21866097.1874   21866093.0814
       385.6094
  11194844.75749   8715674.43846  22223784.3904   22223779.9054
     -3516.4374
   -651924.75848   -503486.02143  24285826.1944   24285823.1044
      -784.7814
  -3242056.43048  -2517983.23545  23341406.8044   23341400.7224
      -691.2664
   1300894.57749   1011056.36346  21637700.1944   21637695.5894
      -788.3444
  -5523121.40648  -4303782.27344  23550610.0304   23550606.3584
      1593.1414
 04  9  9 22 25 45.0030000  0  7G 3G 8G13G10G19G27G28
   7995292.98147   6226560.29542  24499472.9444   24499470.5424
     -3128.7814
  -4928984.03749  -3839574.92647  21865001.7804   21864997.8744
       381.7974
  11247643.00749   8756815.92246  22233831.3744   22233826.6124
     -3523.5784
   -640082.00148   -494257.90743  24288079.8274   24288076.5034
      -794.5474
  -3231617.38648  -2509848.90245  23343393.0224   23343387.0194
      -700.7344
   1312744.52749   1020290.09646  21639954.8664   21639950.0384
      -791.8754
  -5546984.71448  -4322377.03144  23546068.6404   23546064.4484
      1588.3914
 04  9  9 22 26  0.0030000  0  7G 3G 8G13G10G19G27G28
   8042287.22948   6263179.15343  24508415.7654   24508413.7884
     -3136.9694
  -4934680.75949  -3844013.93647  21863917.7654   21863913.4094
       377.8914
  11300551.82849   8798043.55146  22243899.7104   22243895.4094
     -3530.7194
   -628090.12748   -484913.58643  24290361.7884   24290358.1714
      -804.2194
  -3221033.29347  -2501601.55945  23345407.0694   23345401.0734
      -710.2344
   1324650.37248   1029567.37546  21642220.5154   21642215.7804
      -795.3444
  -5570774.16248  -4340914.23344  23541542.3044   23541537.5894
      1583.7194
 04  9  9 22 26 15.0030000  0  7G 3G 8G13G10G19G27G28
   8089401.18348   6299891.31542  24517382.2654   24517379.4794
     -3145.1254
  -4940322.74449  -3848410.27047  21862844.1084   21862839.7574
       374.2034
  11353564.52049   8839352.12146  22253987.8584   22253983.3234
     -3537.7664
   -615955.74248   -475458.24043  24292670.5854   24292667.5584
      -813.7974
  -3210310.67748  -2493246.26145  23347447.6874   23347441.7924
      -719.6094
   1336605.71349   1038883.23346  21644495.3434   21644490.5584
      -798.8284
  -5594496.04548  -4359398.77644  23537028.0934   23537023.2454
      1579.0474
 04  9  9 22 26 30.0030000  0  7G 3G 8G13G10G19G27G28
   8136630.94748   6336693.72042  24526369.2724   24526366.6754
     -3152.8124
  -4945913.73449  -3852766.87947  21861780.1014   21861775.7654
       370.7664
  11406677.55649   8880738.88246  22264094.7184   22264089.6714
     -3544.4374
   -603682.37848   -465894.56343  24295005.7334   24295002.9054
      -823.0474
  -3199452.95748  -2484785.68745  23349513.5694   23349508.0304
      -728.6564
   1348607.07449   1048234.94546  21646779.1244   21646774.3974
      -801.8594
  -5618153.79549  -4377833.35044  23532525.7334   23532521.5544
      1574.7814
 04  9  9 22 26 45.0030000  0  7G 3G 8G13G10G19G27G28
   8183982.74448   6373591.23342  24535380.1084   24535376.7294
     -3161.0474
  -4951447.43549  -3857078.84747  21860727.1244   21860723.1124
       366.7664
  11459896.87849   8922208.46146  22274221.8044   22274217.8354
     -3551.7344
   -591263.50648   -456217.51443  24297369.5074   24297366.9484
      -832.9694
  -3188453.56548  -2476214.71345  23351606.8274   23351601.0114
      -738.2344
   1360660.99049   1057627.60746  21649073.1714   21649068.4214
      -805.5314
  -5641740.81548  -4396212.80444  23528037.4764   23528032.8744
      1569.8914
 04  9  9 22 27  0.0030000  0  7G 3G 8G13G10G19G27G28
   8231454.50647   6410582.17742  24544412.6944   24544410.2884
     -3168.5474
  -4956925.44649  -3861347.41947  21859684.5694   21859680.1204
       363.6884
  11513220.49849   8963759.31446  22284369.1794   22284364.6754
     -3558.0624
   -578701.08348   -446428.61143  24299759.5934   24299756.8044
      -841.9694
  -3177314.10948  -2467534.61445  23353726.5224   23353720.0114
      -746.9534
   1372765.70049   1067059.85346  21651376.4134   21651371.6474
      -808.3284
  -5665258.86348  -4414538.53944  23523562.5934   23523558.2534
      1565.8444
 04  9  9 22 27 15.0030000  0  7G 3G 8G13G10G19G27G28
   8279045.06148   6447665.68742  24553469.3044   24553466.6794
     -3177.2814
  -4962348.53849  -3865573.19947  21858652.7264   21858648.2104
       359.0164
  11566647.41449   9005390.65146  22294535.8044   22294531.1554
     -3565.9534
   -565996.02747   -436528.56243  24302176.9604   24302174.2724
      -852.3444
  -3166035.55548  -2458746.11645  23355872.8514   23355866.6124
      -757.2504
   1384920.37449   1076531.02746  21653689.3824   21653684.5344
      -812.6414
  -5688708.66848  -4432811.09444  23519099.9684   23519095.8904
      1560.3444
 04  9  9 22 27 30.0030000  0  7G 3G 8G13G10G19G27G28
   8326755.70748   6484842.80842  24562548.9054   24562545.7224
     -3184.2974
  -4967715.07249  -3869754.89146  21857631.1164   21857627.1674
       356.2974
  11620179.02749   9047103.57946  22304722.7334   22304718.4014
     -3571.8124
   -553146.76546   -426516.15243  24304622.8584   24304619.4564
      -860.9844
  -3154616.30948  -2449847.97745  23358046.0074   23358040.0654
      -765.5784
   1397126.55349   1086042.33946  21656012.1084   21656007.1634
      -815.1094
  -5712088.64348  -4451029.21644  23514650.8664   23514646.6204
      1556.7504
 04  9  9 22 27 45.0030000  0  7G 3G 8G13G10G19G27G28
   8374583.66948   6522111.29642  24571649.6164   24571647.6284
     -3192.8124
  -4973027.43449  -3873894.39547  21856620.6244   21856616.0224
       351.9534
  11673812.71049   9088896.04146  22314929.1084   22314924.1474
     -3579.3284
   -540155.84348   -416393.37643  24307094.8434   24307091.5424
      -871.2034
  -3143058.77348  -2440842.11345  23360245.3904   23360239.1364
      -775.4844
   1409381.86849   1095591.93147  21658344.5624   21658339.6044
      -819.0474
  -5735401.18748  -4469194.80744  23510214.6164   23510210.1834
      1551.4694
 04  9  9 22 28  0.0030000  0  7G 3G 8G13G10G19G27G28
   8422534.31147   6559475.44442  24580774.6874   24580772.3234
     -3200.7504
  -4978280.15449  -3877987.41247  21855620.9524   21855616.7294
       348.1724
  11727553.88149   9130772.26146  22325155.7414   22325150.9834
     -3586.2504
   -527017.70246   -406155.82643  24309594.8194   24309591.9094
      -880.6724
  -3131357.13549  -2431723.93845  23362472.0774   23362466.1834
      -784.8444
   1421691.95449   1105184.21446  21660686.8664   21660682.2924
      -822.3914
  -5758640.59249  -4487303.39144  23505792.3194   23505788.0544
      1546.9064
 04  9  9 22 28 15.0030000  0  7G 3G 8G13G10G19G27G28
   8470608.26347   6596935.66642  24589922.8354   24589920.4524
     -3208.7504
  -4983472.26649  -3882033.19447  21854632.7494   21854628.5384
       344.3914
  11781403.11349   9172732.67546  22335402.6714   22335398.0734
     -3593.2504
   -513731.65947   -395803.06443  24312123.0774   24312120.3824
      -890.4694
  -3119510.54348  -2422492.83045  23364726.4134   23364720.3314
      -794.4064
   1434057.66749   1114819.84246  21663039.9374   21663035.3784
      -825.9224
  -5781805.86149  -4505354.21744  23501384.1324   23501379.6474
      1542.1094
 04  9  9 22 28 30.0030000  0  7G 3G 8G13G10G19G27G28
   8518799.02547   6634486.85242  24599093.1404   24599090.6554
     -3216.2814
  -4988610.04149  -3886036.66347  21853655.3904   21853651.2024
       341.0784
  11835353.83148   9214772.17846  22345668.9914   22345664.4684
     -3599.7974
   -500304.01948   -385339.97343  24314678.3744   24314674.9094
      -899.5314
  -3107525.23748  -2413153.63145  23367006.9134   23367000.6014
      -803.2814
   1446472.83249   1124493.99446  21665402.3584   21665397.7534
      -829.0314
  -5804903.18849  -4523352.11844  23496988.3354   23496984.1474
      1537.8754
 04  9  9 22 28 45.0030000  0  7G 3G 8G13G10G19G27G28
   8567105.00447   6672127.88342  24608285.7414   24608282.1984
     -3223.8914
  -4993694.54049  -3889998.59747  21852687.6714   21852683.2494
       337.4694
  11889404.70548   9256889.71746  22355954.5384   22355949.4644
     -3606.3754
   -486735.88448   -374767.41443  24317260.2024   24317257.1714
      -908.9694
  -3095402.30247  -2403707.17745  23369314.0934   23369308.1754
      -812.4534
   1458936.31048   1134205.79546  21667774.0694   21667769.7534
      -832.2034
  -5827933.61348  -4541297.85744  23492605.8664   23492601.4444
      1533.4694
 04  9  9 22 29  0.0030000  0  7G 3G 8G13G10G19G27G28
   8615528.23448   6709860.26842  24617500.5694   24617497.1634
     -3232.0784
  -4998723.30749  -3893917.10747  21851730.2804   21851726.5654
       333.4534
  11943557.82149   9299086.93046  22366259.7184   22366255.1084
     -3613.5164
   -473025.10748   -364083.68843  24319869.4764   24319866.2454
      -918.7034
  -3083139.38547  -2394151.65445  23371647.5934   23371641.3474
      -822.1094
   1471450.42248   1143957.06046  21670155.3824   21670151.1594
      -835.8754
  -5850894.78849  -4559189.65244  23488236.0384   23488232.1514
      1528.5164
 04  9  9 22 29 15.0030000  0  7G 3G 8G13G10G19G27G28
   8664068.69548   6747683.92542  24626737.8124   24626734.9874
     -3240.0474
  -5003696.04349  -3897791.95947  21850784.1014   21850779.6874
       329.6094
  11997813.22448   9341363.84146  22376584.3434   22376579.1904
     -3620.4224
   -459171.44248   -353288.61243  24322505.2104   24322502.5974
      -928.4064
  -3070736.13347  -2384486.76545  23374007.8124   23374002.0694
      -831.6094
   1484015.54048   1153748.05446  21672546.2494   21672541.3394
      -839.3914
  -5873786.41949  -4577027.26144  23483880.7184   23483875.8864
      1523.7504
 04  9  9 22 29 30.0030000  0  7G 3G 8G13G10G19G27G28
   8712722.92947   6785596.31242  24635995.8044   24635993.5774
     -3247.5944
  -5008616.08049  -3901625.74846  21849848.1014   21849843.6474
       326.1414
  12052167.43648   9383717.74646  22386927.6404   22386923.2574
     -3627.0944
   -445178.29248   -342384.86043  24325168.1554   24325165.0624
      -937.7194
  -3058195.77048  -2374715.05545  23376394.3044   23376388.4214
      -840.7664
   1496628.35348   1163576.22546  21674946.9134   21674941.8314
      -842.5314
  -5896611.75848  -4594813.20244  23479537.0304   23479532.6324
      1519.3444
 04  9  9 22 29 45.0030000  0  7G 3G 8G13G10G19G27G28
   8761496.13047   6823601.39842  24645276.8274   24645274.8544
     -3255.5004
  -5013477.83249  -3905414.11347  21848922.4684   21848917.8784
       322.1564
  12106625.86548   9426152.86446  22397290.9374   22397286.0814
     -3634.0474
   -431040.08548   -331368.05643  24327858.3744   24327856.1714
      -947.4064
  -3045512.70048  -2364832.13545  23378807.6714   23378801.2764
      -850.3914
   1509294.54948   1173445.98646  21677356.8434   21677352.1554
      -846.1874
  -5919364.93249  -4612542.92244  23475206.9914   23475202.6044
      1514.4384
 04  9  9 22 30  0.0030000  0  7G 3G 8G13G10G19G27G28
   8810385.15148   6861696.74342  24654580.1404   24654578.1474
     -3263.0314
  -5018284.10549  -3909159.26047  21848008.4604   21848003.8514
       318.7034
  12161185.47849   9468666.82246  22407673.2724   22407668.7024
     -3640.5784
   -416759.87048   -320240.63743  24330575.8514   24330573.4294
      -956.6254
  -3032689.81047  -2354840.27645  23381247.5304   23381241.2374
      -859.4694
   1522011.18848   1183355.05146  21679776.9994   21679772.2144
      -849.3444
  -5942048.82849  -4630218.65544  23470890.9214   23470886.4994
      1510.0634
 04  9  9 22 30 15.0030000  0  7G 3G 8G13G10G19G27G28
   8859385.37548   6899878.70742  24663904.7104   24663902.4874
     -3270.6874
  -5023039.11349  -3912864.43747  21847103.5154   21847099.3944
       315.0474
  12215841.59948   9511255.98346  22418073.8744   22418069.0694
     -3647.1724
   -402341.89248   -309005.86443  24333320.2334   24333316.9834
      -966.0474
  -3019731.36347  -2344742.76145  23383713.6554   23383707.2804
      -868.6874
   1534774.02748   1193300.12046  21682205.7574   21682200.9874
      -852.7034
  -5964667.75349  -4647843.76144  23466586.3124   23466581.5114
      1505.5164
 04  9  9 22 30 30.0030000  0  7G 3G 8G13G10G19G27G28
   8908500.41847   6938150.15242  24673251.3904   24673248.6244
     -3277.8914
  -5027739.18849  -3916526.83347  21846209.3664   21846204.8044
       311.8284
  12270597.85449   9553923.16546  22428493.4374   22428488.8124
     -3653.4064
   -387782.41948   -297660.80943  24336090.5624   24336086.9214
      -975.0004
  -3006633.33647  -2334536.51045  23386206.3514   23386199.5624
      -877.5944
   1547587.10648   1203284.34246  21684643.9834   21684639.0154
      -855.6094
  -5987217.64948  -4665415.08744  23462295.0934   23462290.4914
      1501.3284
 04  9  9 22 30 45.0030000  0  7G 3G 8G13G10G19G27G28
   8957726.38747   6976508.01642  24682618.1244   24682615.9954
     -3285.7814
  -5032387.63549  -3920148.99347  21845324.3904   21845319.8004
       307.8284
  12325450.43349   9596665.42446  22438931.8194   22438927.0424
     -3660.3914
   -373085.03848   -286208.30843  24338887.2884   24338884.4484
      -984.7504
  -2993399.27948  -2324224.24845  23388724.6474   23388718.4094
      -887.2194
   1560446.77349   1213304.85946  21687090.7574   21687086.0734
      -859.2034
  -6009702.06748  -4682935.37744  23458016.1944   23458011.9914
      1496.4534
 04  9  9 22 31  0.0030000  0  7G 3G 8G13G10G19G27G28
   9007072.96847   7014959.90342  24692009.0934   24692006.2964
     -3293.8124
  -5036974.13949  -3923722.87547  21844451.5074   21844447.5224
       303.6414
  12380409.35748   9639490.53146  22449390.2884   22449385.5894
     -3667.5164
   -358239.85048   -274640.62143  24341712.2574   24341709.1284
      -994.6564
  -2980019.14748  -2313798.16045  23391270.2334   23391264.4684
      -897.0164
   1573363.09549   1223369.52646  21689548.7264   21689543.8434
      -863.0164
  -6032110.84849  -4700396.73044  23453752.3514   23453747.8044
      1491.3284
 04  9  9 22 31 15.0030000  0  7G 3G 8G13G10G19G27G28
   9056533.45047   7053500.50242  24701420.6554   24701418.6364
     -3301.1874
  -5041505.47149  -3927253.77647  21843589.1474   21843585.1714
       300.2194
  12435467.81049   9682393.19646  22459867.4994   22459862.8974
     -3673.9374
   -343253.45248   -262962.90143  24344564.2964   24344560.8234
     -1003.8284
  -2966499.32348  -2303263.22445  23393843.0774   23393837.3234
      -906.0164
   1586329.63349   1233473.33346  21692016.1554   21692011.8154
      -866.1414
  -6054450.33648  -4717804.09344  23449500.9994   23449497.3274
      1486.9224
 04  9  9 22 31 30.0030000  0  7G 3G 8G13G10G19G27G28
   9106105.42848   7092128.04342  24710854.0934   24710851.3624
     -3308.7194
  -5045983.70049  -3930743.29946  21842737.4914   21842733.4174
       296.5944
  12490623.43449   9725371.58846  22470363.1874   22470358.5894
     -3680.4374
   -328128.13748   -251176.91543  24347442.8974   24347439.6324
     -1013.1874
  -2952842.02448  -2292621.17645  23396442.2184   23396436.1324
      -915.2814
   1599344.32849   1243614.64746  21694492.6944   21694487.9994
      -869.4844
  -6076722.88349  -4735159.30744  23445262.6324   23445258.5304
      1482.4064
 04  9  9 22 31 45.0030000  0  7G 3G 8G13G10G19G27G28
   9155788.79348   7130842.32643  24720308.5074   24720306.2294
     -3316.3914
  -5050408.29249  -3934191.03247  21841895.2804   21841890.8314
       292.7344
  12545876.16249   9768425.62846  22480877.6084   22480872.6514
     -3687.2034
   -312863.64047   -239282.54843  24350346.9914   24350344.2294
     -1022.8284
  -2939046.88049  -2281871.69345  23399067.2964   23399061.4214
      -924.8444
   1612407.40849   1253793.66946  21696978.4524   21696973.4954
      -872.9224
  -6098927.94748  -4752461.91644  23441037.1404   23441032.9404
      1477.5944
 04  9  9 22 32  0.0030000  0  7G 3G 8G13G10G19G27G28
   9205590.85348   7169649.09142  24729786.0464   24729783.2414
     -3324.0314
  -5054771.95049  -3937591.27947  21841064.8514   21841059.9214
       288.8914
  12601233.34549   9811561.06846  22491411.7724   22491407.0774
     -3693.9064
   -297452.42548   -227273.80243  24353279.9524   24353276.3354
     -1032.2194
  -2925106.32349  -2271008.91945  23401720.1324   23401714.2884
      -934.1874
   1625526.59949   1264016.40746  21699475.0304   21699470.3314
      -876.4694
  -6121057.77448  -4769705.91844  23436825.7334   23436821.2574
      1472.8134
 04  9  9 22 32 15.0030000  0  7G 3G 8G13G10G19G27G28
   9255507.28048   7208544.98242  24739285.1014   24739281.3514
     -3331.7664
  -5059078.44349  -3940946.98247  21840245.6874   21840240.8434
       284.9844
  12656690.73649   9854774.60846  22501964.5624   22501959.9604
     -3700.6414
   -281898.71448   -215154.03943  24356239.4524   24356236.3514
     -1041.8914
  -2911024.32848  -2260035.93445  23404399.9374   23404393.8974
      -943.7034
   1638697.80549   1274279.69446  21701981.7654   21701976.9954
      -880.0474
  -6143116.50049  -4786894.49744  23432628.3274   23432623.2574
      1467.9844
 04  9  9 22 32 30.0030000  0  7G 3G 8G13G10G19G27G28
   9305532.37948   7247525.56142  24748804.1794   24748800.6944
     -3338.3124
  -5063333.21349  -3944262.36147  21839435.7334   21839431.1014
       282.2344
  12712242.80949   9898061.91746  22512535.9764   22512531.7024
     -3706.2194
   -266207.93148   -202927.42643  24359225.6794   24359222.4954
     -1050.2344
  -2896806.11748  -2248956.79345  23407105.5074   23407099.4724
      -952.0624
   1651915.74548   1284579.39147  21704497.1714   21704492.6674
      -882.4374
  -6165109.36648  -4804031.75344  23428443.3124   23428438.6124
      1464.4224
 04  9  9 22 32 45.0030000  0  7G 3G 8G13G10G19G27G28
   9355664.77048   7286589.76143  24758343.8664   24758341.3744
     -3346.2504
  -5067537.24849  -3947538.23947  21838635.6404   21838630.9834
       278.1094
  12767888.27449   9941422.00146  22523124.8974   22523120.4094
     -3713.3124
   -250381.19748   -190594.93143  24362236.9764   24362233.7724
     -1060.0314
  -2882452.93948  -2237772.49145  23409836.7804   23409830.2804
      -961.8444
   1665179.32549   1294914.64447  21707020.7964   21707016.2964
      -886.2814
  -6187037.42948  -4821118.53144  23424269.9834   23424265.4724
      1459.2344
 04  9  9 22 33  0.0030000  0  7G 3G 8G13G10G19G27G28
   9405909.82748   7325741.86243  24767905.4914   24767903.1244
     -3353.4694
  -5071684.66449  -3950769.98247  21837846.5154   21837842.5224
       274.5004
  12823632.79549   9984859.26446  22533732.7414   22533728.3194
     -3719.6874
   -234412.78448   -178151.99343  24365275.6084   24365272.5114
     -1069.4064
  -2867958.81748  -2226478.37245  23412594.8434   23412589.0734
      -971.0164
   1678494.60549   1305290.19346  21709554.4994   21709549.6874
      -889.4374
  -6208894.56848  -4838150.04444  23420110.4764   23420106.0504
      1454.6254
 04  9  9 22 33 15.0030000  0  7G 3G 8G13G10G19G27G28
   9456264.54848   7364979.17342  24777487.5854   24777485.4724
     -3360.4844
  -5075778.59249  -3953960.05747  21837066.8584   21837063.3584
       271.2194
  12879472.77949  10028370.89746  22544358.8584   22544354.5384
     -3725.6874
   -218306.13248   -165601.37243  24368341.2494   24368336.9484
     -1078.2034
  -2853327.03948  -2215076.97845  23415379.6164   23415373.6444
      -979.9374
   1691858.18549   1315703.37246  21712098.0464   21712093.0504
      -892.3444
  -6230684.06849  -4855128.84644  23415964.6554   23415960.1674
      1450.5164
 04  9  9 22 33 30.0030000  0  7G 3G 8G13G10G19G27G28
   9506727.47848   7404300.91142  24787090.1014   24787088.1474
     -3367.9224
  -5079819.70649  -3957108.95247  21836298.2724   21836294.1754
       267.5634
  12935407.05849  10071956.03146  22555002.8584   22554998.2724
     -3732.1414
   -202062.02748   -152943.60843  24371431.3664   24371428.1834
     -1087.5474
  -2838558.27749  -2203568.82745  23418189.0304   23418183.1014
      -989.1564
   1705269.47049   1326153.73946  21714649.5854   21714645.0034
      -895.7504
  -6252406.61649  -4872055.46944  23411830.6014   23411826.5814
      1445.8754
 04  9  9 22 33 45.0030000  0  7G 3G 8G13G10G19G27G28
   9557305.61547   7443712.40842  24796714.6474   24796712.7264
     -3375.4844
  -5083800.71249  -3960211.03146  21835540.5384   21835536.3904
       263.5474
  12991442.95449  10115620.35846  22565666.0854   22565661.8744
     -3738.8284
   -185673.04748   -140172.98543  24374550.5934   24374547.7574
     -1097.2034
  -2823645.07649  -2191948.14845  23421027.5074   23421021.5774
      -998.8284
   1718735.79149   1336646.97847  21717212.2884   21717207.7104
      -899.3754
  -6274054.86749  -4888924.19944  23407711.3124   23407706.9134
      1440.9534
 04  9  9 22 34  0.0030000  0  7G 3G 8G13G10G19G27G28
   9607990.75947   7483207.30542  24806359.1944   24806357.2294
     -3382.8124
  -5087729.44749  -3963272.38047  21834792.9834   21834789.1244
       259.9844
  13047572.33549  10159357.48546  22576346.9764   22576342.1014
     -3745.2034
   -169147.44348   -127295.88943  24377695.8354   24377692.1634
     -1106.4534
  -2808595.44848  -2180221.15545  23423891.2104   23423885.5114
     -1007.9694
   1732249.27049   1347176.96846  21719783.9684   21719779.0544
      -902.6414
  -6295636.57648  -4905741.09244  23403604.4054   23403600.5894
      1436.3914
 04  9  9 22 34 15.0030000  0  7G 3G 8G13G10G19G27G28
   9658786.43548   7522788.36442  24816025.5624   24816023.3004
     -3390.3284
  -5091602.04549  -3966289.97347  21834056.2724   21834051.4134
       256.0004
  13103798.78749  10203170.29046  22587046.4994   22587042.2334
     -3751.9064
   -152481.42748   -114309.39043  24380866.8434   24380863.6754
     -1116.0784
  -2793405.49548  -2168384.83945  23426781.9524   23426775.7724
     -1017.6414
   1745813.71149   1357746.65246  21722365.1874   21722360.4334
      -906.2814
  -6317147.91049  -4922503.14244  23399510.8354   23399506.5504
      1431.4384
 04  9  9 22 34 30.0030000  0  7G 3G 8G13G10G19G27G28
   9709697.47447   7562459.26342  24825713.7024   24825711.6474
     -3397.5624
  -5095413.20249  -3969259.70347  21833331.0934   21833326.6634
       252.3444
  13160127.18149  10247062.51146  22597765.7654   22597761.1474
     -3758.2974
   -135669.89648   -101209.49843  24384066.1244   24384062.6714
     -1125.3444
  -2778070.15349  -2156435.21845  23429699.8514   23429693.6904
     -1026.8444
   1759434.33249   1368360.13246  21724956.8274   21724952.0034
      -909.6094
  -6338583.69949  -4939206.32144  23395431.8584   23395427.9914
      1426.7664
 04  9  9 22 34 45.0040000  0  7G 3G 8G13G10G19G27G28
   9760727.26347   7602222.69542  24835424.3014   24835422.1414
     -3405.2974
  -5099163.04949  -3972181.64847  21832617.2544   21832612.6174
       248.2344
  13216561.42449  10291037.23845  22608504.7074   22608500.4774
     -3765.1094
   -118711.57947    -87995.22443  24387292.8244   24387289.4454
     -1135.0314
  -2762588.00848  -2144371.19645  23432645.8874   23432639.9264
     -1036.6724
   1773112.48149   1379018.43446  21727559.7304   21727555.1134
      -913.4374
  -6359944.88549  -4955851.36244  23391366.4414   23391361.9144
      1421.7974
 04  9  9 22 35  0.0040000  0  7G 3G 8G13G10G19G27G28
   9811859.48347   7642065.98842  24845154.0194   24845152.8634
     -3412.9374
  -5102860.21049  -3975062.55247  21831913.7544   21831909.4734
       244.0944
  13273084.21749  10335080.95746  22619260.7154   22619256.4414
     -3771.9224
   -101618.19948    -74675.70043  24390545.5514   24390542.0664
     -1144.7974
  -2746970.48849  -2132201.70245  23435618.2624   23435612.0354
     -1046.3124
   1786836.95549   1389712.81846  21730171.5194   21730166.8634
      -917.1874
  -6381237.96449  -4972443.35044  23387314.9574   23387310.5124
      1416.6254
 04  9  9 22 35 15.0040000  0  7G 3G 8G13G10G19G27G28
   9863103.15847   7681996.11142  24854906.3554   24854903.6174
     -3420.1414
  -5106499.11849  -3977898.05147  21831221.3244   21831217.0784
       240.5004
  13329705.13948  10379201.13046  22630035.1294   22630030.9144
     -3778.1724
    -84382.73448    -61245.48743  24393825.6994   24393822.1844
     -1153.8914
  -2731210.47748  -2119921.16545  23438617.3404   23438610.7544
     -1055.6414
   1800614.74349   1400448.76546  21732793.3094   21732788.7194
      -920.4694
  -6402458.27549  -4988978.62545  23383277.3094   23383272.5904
      1412.0474
 04  9  9 22 35 30.0040000  0  7G 3G 8G13G10G19G27G28
   9914464.51048   7722017.92642  24864680.4654   24864677.3094
     -3428.0784
  -5110073.01749  -3980682.90147  21830541.3404   21830537.0554
       236.0944
  13386430.72149  10423402.85046  22640829.9184   22640825.2274
     -3785.1874
    -66998.71748    -47699.48442  24397133.9344   24397130.8014
     -1163.9064
  -2715301.43949  -2107524.50145  23441644.5274   23441638.2034
     -1065.5944
   1814452.49449   1411231.41847  21735426.6844   21735421.8794
      -924.5004
  -6423599.23249  -5005452.06845  23379254.0904   23379249.7974
      1406.6724
 04  9  9 22 35 45.0040000  0  7G 3G 8G13G10G19G27G28
   9965936.11647   7762125.66842  24874475.2304   24874471.8014
     -3435.3284
  -5113588.90449  -3983422.54147  21829872.2694   21829867.7544
       232.2194
  13443253.45249  10467680.27846  22651643.2234   22651638.8124
     -3791.6874
    -49473.37348    -34043.36743  24400468.7624   24400465.5394
     -1173.3754
  -2699250.41949  -2095017.20745  23444699.0664   23444692.9574
     -1075.1414
   1828343.03049   1422055.22646  21738069.9104   21738065.3674
      -928.0474
  -6444667.75949  -5021869.06245  23375244.7074   23375240.3594
      1401.8284
 04  9  9 22 36  0.0040000  0  7G 3G 8G13G10G19G27G28
  10017520.51648   7802321.27842  24884290.7544   24884287.5314
     -3443.0624
  -5117043.82549  -3986114.68047  21829214.7694   21829210.2814
       227.9844
  13500175.84749  10512035.35346  22662475.0354   22662470.7304
     -3798.4224
    -31804.00548    -20275.02943  24403830.6994   24403827.3834
     -1183.0624
  -2683054.68849  -2082397.13645  23447781.1294   23447774.9064
     -1084.7814
   1842289.17349   1432922.35446  21740723.6374   21740718.8164
      -931.8754
  -6465661.05649  -5038227.44045  23371249.6214   23371245.5234
      1396.7344
 04  9  9 22 36 15.0040000  0  7G 3G 8G13G10G19G27G28
  10069218.03948   7842605.04442  24894128.8404   24894125.4104
     -3450.2034
  -5120437.25649  -3988758.90947  21828569.3794   21828564.5704
       224.2504
  13557198.42749  10556468.50346  22673325.9884   22673321.3484
     -3804.7194
    -13990.05348     -6394.03243  24407220.7464   24407216.9224
     -1192.3284
  -2666713.44649  -2069663.70245  23450890.4884   23450884.3444
     -1094.2344
   1856291.83149   1443833.50446  21743388.1914   21743383.5474
      -935.3124
  -6486578.33449  -5054526.57845  23367269.0984   23367264.9734
      1392.0164
 04  9  9 22 36 30.0040000  0  7G 3G 8G13G10G19G27G28
  10121029.55247   7882977.63442  24903988.1684   24903985.0194
     -3457.6094
  -5123768.02549  -3991354.29447  21827935.1604   21827930.3244
       220.2034
  13614322.02348  10600980.37146  22684196.1994   22684191.6094
     -3811.3444
      3969.49148      7600.39143  24410638.0354   24410634.7274
     -1201.9064
  -2650225.61949  -2056816.03645  23454027.8324   23454022.0164
     -1103.8754
   1870352.07349   1454789.54046  21746063.9734   21746059.0474
      -939.0624
  -6507418.41949  -5070765.58745  23363303.5824   23363298.8014
      1387.0474
 04  9  9 22 36 45.0040000  0  7G 3G 8G13G10G19G27G28
  10172945.78447   7923431.85242  24913867.3874   24913864.7384
     -3464.9064
  -5127044.97649  -3993907.74347  21827311.7464   21827306.9024
       216.3914
  13671537.55348  10645563.87945  22695084.3714   22695079.8714
     -3817.8124
     22065.68748     21701.36043  24414081.8404   24414078.7664
     -1211.2974
  -2633600.11948  -2043861.09545  23457191.6444   23457185.4614
     -1113.2504
   1884461.10349   1465783.60646  21748748.7544   21748744.5514
      -942.5784
  -6528190.13249  -5086951.29644  23359350.8094   23359346.5864
      1382.2194
 04  9  9 22 37  0.0040000  0  7G 3G 8G13G10G19G27G28
  10224976.97947   7963975.62942  24923768.8014   24923766.1334
     -3472.8594
  -5130257.55349  -3996411.04747  21826700.2074   21826696.0474
       211.7974
  13728855.26448  10690227.00246  22705991.2464   22705986.6254
     -3824.8284
     40308.98548     35916.89843  24417553.1294   24417550.4924
     -1221.3754
  -2616826.38948  -2030790.65245  23460383.8794   23460377.4774
     -1123.4534
   1898629.42049   1476823.84146  21751445.1764   21751440.1604
      -946.8594
  -6548882.97549  -5103075.54544  23355412.9734   23355408.3984
      1376.6094
 04  9  9 22 37 15.0040000  0  7G 3G 8G13G10G19G27G28
  10277121.42547   8004607.64542  24933691.5124   24933688.9494
     -3480.1414
  -5133407.19749  -3998865.31547  21826100.9104   21826096.7624
       207.7194
  13786273.54448  10734968.49045  22716917.5274   22716913.1254
     -3831.3444
     58697.76448     50245.82343  24421053.2854   24421049.6954
     -1230.8754
  -2599905.87848  -2017605.83545  23463603.3014   23463597.5124
     -1133.0784
   1912855.51849   1487909.12046  21754152.1374   21754147.2304
      -950.4374
  -6569498.16349  -5119139.30845  23351489.8324   23351485.6214
      1371.5634
 04  9  9 22 37 30.0040000  0  7G 3G 8G13G10G19G27G28
  10329381.23047   8045329.54242  24943635.8244   24943633.4654
     -3487.3124
  -5136491.14349  -4001268.37247  21825513.9574   21825509.4804
       203.8444
  13843794.50549  10779789.99745  22727863.1524   22727858.9614
     -3837.6254
     77234.31248     64689.88543  24424580.0124   24424576.9844
     -1240.2194
  -2582836.07348  -2004304.66545  23466851.6374   23466845.5624
     -1142.5004
   1927142.08949   1499041.51346  21756870.9574   21756865.6524
      -953.9694
  -6590033.33949  -5135140.71045  23347582.2694   23347578.0824
      1366.8284
 04  9  9 22 37 45.0040000  0  7G 3G 8G13G10G19G27G28
  10381741.57347   8086129.79742  24953599.9104   24953597.1564
     -3494.1414
  -5139524.01949  -4003631.64647  21824936.6684   21824932.4534
       200.4224
  13901403.43748  10824680.04945  22738825.7234   22738821.3324
     -3843.6254
     95903.98948     79237.67143  24428132.8714   24428129.5594
     -1249.2194
  -2565631.53349  -1990898.52545  23470125.4264   23470119.5864
     -1151.5944
   1941474.56749   1510209.67746  21759597.9024   21759592.9374
      -957.1564
  -6610502.90549  -5151090.99245  23343687.1524   23343682.5594
      1362.3444
 04  9  9 22 38  0.0040000  0  7G 3G 8G13G10G19G27G28
  10434213.09048   8127016.66742  24963585.1914   24963582.2234
     -3501.8124
  -5142494.83549  -4005946.55247  21824371.4964   21824367.5044
       196.0164
  13959111.08548  10869647.01445  22749807.5984   22749803.1524
     -3850.3594
    114717.71148     93897.72643  24431712.3164   24431709.8674
     -1259.0164
  -2548281.41149  -1977378.93345  23473427.3794   23473421.5164
     -1161.5004
   1955863.99949   1521422.24246  21762336.1444   21762331.5044
      -961.1724
  -6630895.79548  -5166981.50945  23339806.1844   23339801.7894
      1357.0314
 04  9  9 22 38 15.0040000  0  7G 3G 8G13G10G19G27G28
  10486792.16247   8167987.31642  24973590.1604   24973587.9304
     -3508.9534
  -5145406.67349  -4008215.51247  21823817.4344   21823813.0664
       192.0784
  14016913.97848  10914688.20646  22760806.5434   22760802.7034
     -3856.7814
    133672.05948    108667.34943  24435319.8944   24435316.5314
     -1268.3914
  -2530788.81149  -1963748.33145  23476755.8554   23476749.6334
     -1171.0164
   1970307.17549   1532676.65646  21765084.6764   21765079.9304
      -964.7974
  -6651215.24149  -5182814.82645  23335939.4574   23335935.0194
      1352.1094
 04  9  9 22 38 30.0040000  0  7G 3G 8G13G10G19G27G28
  10539481.00847   8209043.57342  24983617.0664   24983614.4104
     -3516.3284
  -5148256.89249  -4010436.44547  21823275.3554   21823270.9304
       187.9064
  14074814.26748  10959805.27845  22771825.0744   22771821.0354
     -3863.3284
    152769.32748    123548.34243  24438954.0904   24438950.9804
     -1277.9224
  -2513151.27649  -1950004.79045  23480112.3554   23480106.3484
     -1180.7194
   1984806.71549   1543975.00946  21767843.7464   21767838.9344
      -968.6094
  -6671458.55248  -5198588.78945  23332087.5354   23332083.1174
      1346.9694
 04  9  9 22 38 45.0040000  0  7G 3G 8G13G10G19G27G28
  10592280.63148   8250186.11942  24993664.9184   24993662.0084
     -3523.3754
  -5151044.32949  -4012608.46947  21822744.6294   21822740.0904
       184.0634
  14132813.00048  11004999.07045  22782861.8794   22782857.3554
     -3869.5164
    172010.84748    138541.73543  24442615.5824   24442612.4964
     -1287.2814
  -2495367.44049  -1936147.23745  23483496.4414   23483489.9264
     -1190.1724
   1999363.96649   1555318.32046  21770614.0824   21770609.3164
      -972.1094
  -6691624.34849  -5214302.35645  23328250.1764   23328245.6094
      1342.1414
 04  9  9 22 39  0.0040000  0  7G 3G 8G13G10G19G27G28
  10645187.09147   8291411.91842  25003732.4964   25003729.8014
     -3530.5624
  -5153772.55649  -4014734.34647  21822225.3484   21822221.2974
       180.0474
  14190906.34348  11050266.57345  22793916.6524   22793912.3914
     -3875.9694
    191392.72548    153644.50043  24446303.5904   24446300.5124
     -1296.8284
  -2477440.97749  -1922178.56245  23486907.6444   23486901.8094
     -1199.7344
   2013975.35349   1566703.82946  21773394.2234   21773389.6414
      -975.7974
  -6711716.28249  -5229958.37645  23324426.5354   23324422.0744
      1337.1414
 04  9  9 22 39 15.0040000  0  7G 3G 8G13G10G19G27G28
  10698203.27147   8332723.20542  25013821.1914   25013818.8674
     -3537.8594
  -5156438.10049  -4016811.38547  21821718.1914   21821713.9374
       175.8284
  14249097.32848  11095610.15845  22804990.3794   22804985.9964
     -3882.4694
    210918.12648    168859.10143  24450018.9104   24450016.3834
     -1306.3124
  -2459368.57849  -1908096.15745  23490347.0984   23490340.8164
     -1209.4534
   2028644.04049   1578133.96246  21776185.5664   21776180.8204
      -979.6724
  -6731731.05749  -5245554.28145  23320617.9414   23320613.2234
      1331.9534
 04  9  9 22 39 30.0040000  0  7G 3G 8G13G10G19G27G28
  10751319.05747   8374112.11442  25023927.8554   25023926.3124
     -3544.6724
  -5159050.94449  -4018847.36347  21821220.9414   21821216.9924
       172.0784
  14307375.88148  11141021.99745  22816080.0984   22816075.8014
     -3888.4534
    230577.16248    184177.82543  24453760.3164   24453757.5164
     -1315.3594
  -2441160.16149  -1893907.79245  23493811.8244   23493805.6484
     -1218.7344
   2043360.36249   1589601.23346  21778985.9654   21778981.3754
      -983.0474
  -6751678.49149  -5261097.70744  23316822.1214   23316817.3674
      1327.1884
 04  9  9 22 39 45.0040000  0  7G 3G 8G13G10G19G27G28
  10804545.37247   8415587.14042  25034057.0044   25034054.5234
     -3552.0944
  -5161599.51449  -4020833.26047  21820735.8714   21820731.8714
       167.7974
  14365752.88449  11186510.53845  22827189.1294   22827184.6214
     -3895.0004
    250380.98948    199609.37443  24457529.3244   24457526.2114
     -1325.0624
  -2422804.48948  -1879604.64945  23497305.0274   23497299.0164
     -1228.5784
   2058135.56549   1601114.37546  21781797.8634   21781793.0784
      -987.0164
  -6771547.19049  -5276579.78645  23313041.2624   23313036.5394
      1322.0004
 04  9  9 22 40  0.0040000  0  7G 3G 8G13G10G19G27G28
  10857875.12347   8457142.75342  25044205.3404   25044202.6994
     -3559.0314
  -5164090.70849  -4022774.44147  21820262.3874   21820257.5354
       163.8594
  14424221.58348  11232070.52745  22838315.5744   22838310.9414
     -3901.2974
    270322.58548    215148.27143  24461323.8714   24461320.2734
     -1334.4064
  -2404308.31149  -1865192.03845  23500824.7154   23500818.6724
     -1238.0624
   2072962.98149   1612668.20046  21784619.3244   21784614.4804
      -990.5944
  -6791343.91349  -5292005.77745  23309273.3714   23309269.3164
      1317.0634
 04  9  9 22 40 15.0040000  0  7G 3G 8G13G10G19G27G28
  10911307.88447   8498778.67642  25054372.5594   25054370.7384
     -3565.5314
  -5166524.50449  -4024670.90347  21819798.5904   21819793.9844
       160.3914
  14482781.50249  11277701.60645  22849459.1844   22849454.3324
     -3907.0784
    290401.68647    230794.33843  24465144.1764   24465141.3944
     -1343.2194
  -2385671.73048  -1850670.01245  23504370.7384   23504364.5864
     -1247.1094
   2087842.50849   1624262.64446  21787451.0354   21787446.3094
      -993.6414
  -6811068.71248  -5307375.72045  23305520.6844   23305516.1294
      1312.5944
 04  9  9 22 40 30.0040000  0  7G 3G 8G13G10G19G27G28
  10964840.92946   8540492.70342  25064560.3164   25064558.1134
     -3571.5474
  -5168903.47849  -4026524.62747  21819345.7854   21819341.7774
       157.4064
  14541429.75949  11323401.50545  22860619.6684   22860614.9344
     -3912.2034
    310615.78248    246545.55743  24468991.2304   24468987.5944
     -1351.4064
  -2366897.37449  -1836040.63345  23507943.6764   23507937.8714
     -1255.5784
   2102771.64849   1635895.74046  21790292.1444   21790287.5044
      -996.2974
  -6830723.89348  -5322691.40845  23301780.2384   23301775.7424
      1308.6564
 04  9  9 22 40 45.0040000  0  7G 3G 8G13G10G19G27G28
  11018476.44146   8582286.53242  25074766.4104   25074764.7624
     -3579.1254
  -5171225.20849  -4028333.77047  21818904.4964   21818900.1414
       152.7664
  14600168.68848  11369172.06545  22871797.0124   22871792.3914
     -3918.9844
    330967.09648    262403.72243  24472863.7304   24472860.5624
     -1361.3914
  -2347982.69549  -1821301.92045  23511542.9184   23511537.1334
     -1265.6414
   2117753.00649   1647569.52446  21793142.8634   21793138.1054
     -1000.5164
  -6850307.11748  -5337951.05044  23298053.5984   23298048.8284
      1303.1564
 04  9  9 22 41  0.0040000  0  7G 3G 8G13G10G19G27G28
  11072215.15646   8624160.88842  25084992.4184   25084991.1524
     -3585.7344
  -5173488.06449  -4030097.02647  21818473.5594   21818469.3714
       149.1414
  14658999.43048  11415014.17545  22882992.1374   22882987.6024
     -3924.8284
    351456.80747    278369.72842  24476763.3014   24476760.2624
     -1370.2664
  -2328926.48748  -1806452.91645  23515168.7854   23515162.8984
     -1274.8594
   2132787.94149   1659285.05047  21796003.7934   21795999.0124
     -1003.8444
  -6869816.86049  -5353153.42044  23294341.1994   23294336.1294
      1298.4224
 04  9  9 22 41 15.0040000  0  7G 3G 8G13G10G19G27G28
  11126051.13046   8666110.92942  25095236.8244   25095236.0474
     -3592.4844
  -5175697.76649  -4031818.86247  21818053.1374   21818049.0594
       145.3594
  14717915.78049  11460922.99745  22894203.4884   22894198.5784
     -3930.7344
    372079.06548    294439.00543  24480687.2544   24480684.0234
     -1379.3124
  -2309734.50849  -1791498.11845  23518821.1294   23518815.0944
     -1284.0944
   2147870.67549   1671037.82946  21798874.3874   21798869.4964
     -1007.2504
  -6889258.92149  -5368303.04745  23290641.2074   23290636.6874
      1293.7344
 04  9  9 22 41 30.0040000  0  7G 3G 8G13G10G19G27G28
  11179993.47446   8708143.90342  25105501.8014   25105500.9144
     -3599.1874
  -5177844.96249  -4033491.99547  21817644.6214   21817640.2034
       141.5784
  14776926.92848  11506905.69645  22905432.9804   22905428.8324
     -3936.7344
    392843.15148    310618.83443  24484638.0664   24484635.1764
     -1388.5314
  -2290397.26749  -1776430.13645  23522501.2624   23522494.8754
     -1293.5314
   2163010.79649   1682835.32546  21801755.1294   21801750.7894
     -1010.8124
  -6908623.75649  -5383392.50245  23286956.2694   23286951.4804
      1288.8754
 04  9  9 22 41 45.0040000  0  7G 3G 8G13G10G19G27G28
  11234037.08746   8750255.80142  25115786.0194   25115784.5474
     -3606.1564
  -5179934.14749  -4035119.92347  21817247.1134   21817242.4064
       137.4844
  14836027.93849  11552958.38545  22916679.4804   22916674.9064
     -3942.9374
    413744.15448    326905.31043  24488616.1524   24488613.0594
     -1397.7974
  -2270919.59049  -1761252.70845  23526207.3164   23526201.0434
     -1303.0784
   2178203.48849   1694673.78046  21804646.1444   21804641.5044
     -1014.4844
  -6927916.15549  -5398425.51445  23283285.0044   23283280.5194
      1283.8134
 04  9  9 22 42  0.0040000  0  7G 3G 8G13G10G19G27G28
  11288177.64046   8792443.18742  25126088.6294   25126087.3204
     -3612.5784
  -5181969.51349  -4036705.91147  21816859.5434   21816854.7584
       133.7814
  14895214.56549  11599077.81945  22927942.6444   22927937.9964
     -3948.6724
    434777.88848    343295.24343  24492618.7074   24492615.1134
     -1406.7504
  -2251305.50549  -1745968.99145  23529940.0194   23529933.5194
     -1312.1874
   2193444.81649   1706550.14846  21807546.4734   21807541.2624
     -1017.8594
  -6947140.09849  -5413405.17545  23279626.4964   23279622.2074
      1279.2194
 04  9  9 22 42 15.0040000  0  7G 3G 8G13G10G19G27G28
  11342421.24246   8834710.85642  25136411.6844   25136410.1444
     -3619.1414
  -5183944.65649  -4038244.97647  21816484.0904   21816479.6484
       129.9844
  14954492.93248  11645268.71345  22939222.9104   22939218.8754
     -3954.5624
    455950.56448    359793.42343  24496647.5984   24496644.6564
     -1415.7664
  -2231548.64849  -1730574.04245  23533699.7384   23533693.0194
     -1321.5164
   2208741.28549   1718469.48147  21810457.2384   21810452.7854
     -1021.2194
  -6966289.03749  -5428326.40645  23275982.8714   23275978.3714
      1274.4844
 04  9  9 22 42 30.0040000  0  7G 3G 8G13G10G19G27G28
  11396760.65847   8877053.29642  25146751.8874   25146749.8714
     -3625.7034
  -5185866.09849  -4039742.19147  21816118.1914   21816113.6024
       126.4064
  15013855.98348  11691525.61645  22950519.1054   22950514.4104
     -3960.2194
    477255.32248    376394.53743  24500701.8324   24500698.6374
     -1424.5944
  -2211655.92349  -1715073.20645  23537484.5984   23537478.7734
     -1330.5784
   2224086.03249   1730426.41846  21813377.3484   21813372.6524
     -1024.5314
  -6985369.68749  -5443194.40845  23272352.1134   23272347.1724
      1269.8444
 04  9  9 22 42 45.0040000  0  7G 3G 8G13G10G19G27G28
  11451196.90447   8919471.07842  25157110.7854   25157108.7344
     -3632.3124
  -5187732.51549  -4041196.54147  21815763.4184   21815759.1524
       122.6094
  15073304.60749  11737849.19645  22961831.7624   22961827.4184
     -3966.1094
    498693.27148    393099.41443  24504780.9734   24504777.6174
     -1433.6094
  -2191626.02549  -1699465.48345  23541296.3554   23541290.0124
     -1339.9064
   2239480.43949   1742422.05346  21816306.8554   21816301.9224
     -1027.9534
  -7004380.81049  -5458008.25445  23268734.4264   23268729.8794
      1265.0944
 04  9  9 22 43  0.0040000  0  7G 3G 8G13G10G19G27G28
  11505735.82147   8961968.86942  25167489.9414   25167487.6094
     -3639.4534
  -5189537.65049  -4042603.13447  21815419.5824   21815415.1644
       118.2034
  15132844.77949  11784244.09245  22973162.3794   22973157.6054
     -3972.5314
    520270.43348    409912.80643  24508886.9024   24508883.5984
     -1443.2504
  -2171452.81549  -1683746.08445  23545135.1214   23545129.2274
     -1349.7814
   2254930.72949   1754461.25246  21819246.5904   21819242.3404
     -1032.0164
  -7023316.07649  -5472762.97145  23265130.8944   23265126.6414
      1259.7034
 04  9  9 22 43 15.0040000  0  7G 3G 8G13G10G19G27G28
  11560371.48447   9004542.10042  25177886.5124   25177884.1024
     -3645.7194
  -5191287.34949  -4043966.51847  21815086.5904   21815082.3754
       114.7344
  15192470.55748  11830705.71445  22984508.5124   22984504.0084
     -3977.9844
    541980.89248    426830.01543  24513018.5514   24513015.7344
     -1451.9374
  -2151142.02848  -1667919.49045  23548999.9024   23548993.7774
     -1358.6724
   2270431.27249   1766539.60546  21822196.3484   21822191.3554
     -1035.0474
  -7042181.22749  -5487463.05745  23261541.5124   23261536.3594
      1255.2194
 04  9  9 22 43 30.0040000  0  7G 3G 8G13G10G19G27G28
  11615109.79547   9047195.33942  25188302.2464   25188299.7774
     -3652.5624
  -5192975.06549  -4045281.61347  21814765.1524   21814760.8124
       110.5634
  15252188.02849  11877238.75845  22995872.5044   22995868.0824
     -3984.1414
    563830.84148    443855.95943  24517176.2854   24517173.5824
     -1461.0944
  -2130687.30449  -1651980.73045  23552892.7234   23552886.5554
     -1368.3284
   2285988.45549   1778662.08446  21825156.9414   21825151.6844
     -1038.9534
  -7060969.86649  -5502103.52445  23257965.6994   23257960.7934
      1250.1564
 04  9  9 22 43 45.0040000  0  7G 3G 8G13G10G19G27G28
  11669949.24547   9089927.33142  25198737.4884   25198734.9844
     -3659.2974
  -5194602.01249  -4046549.35847  21814455.8874   21814451.5394
       106.4384
  15311995.81049  11923842.20545  23007253.3554   23007249.3634
     -3990.1874
    585819.00348    460989.59143  24521360.6294   24521357.9304
     -1470.5164
  -2110089.86249  -1635930.78745  23556812.2384   23556806.5124
     -1377.9224
   2301601.11149   1790827.78646  21828128.0514   21828122.8794
     -1042.7344
  -7079683.06749  -5516685.22245  23254404.6914   23254399.9844
      1244.9844
 04  9  9 22 44  0.0040000  0  7G 3G 8G13G10G19G27G28
  11724889.47547   9132737.90142  25209192.8874   25209189.9414
     -3666.0314
  -5196168.19849  -4047769.74447  21814157.7304   21814153.4344
       102.4064
  15371893.59849  11970515.77645  23018651.6844   23018647.3284
     -3996.2034
    607945.11248    478230.69943  24525570.6994   24525567.6524
     -1479.7344
  -2089349.73549  -1619769.64045  23560758.6374   23560753.0744
     -1387.4694
   2317269.38449   1803036.83946  21831109.5354   21831104.8164
     -1046.3754
  -7098320.91649  -5531208.20045  23250857.6374   23250852.7814
      1239.9384
 04  9  9 22 44 15.0040000  0  7G 3G 8G13G10G19G27G28
  11779927.94347   9175625.01942  25219666.3484   25219663.8874
     -3672.2814
  -5197675.74749  -4048944.45347  21813870.7624   21813866.5514
        98.8284
  15431878.88149  12017257.53445  23030066.6684   23030061.8554
     -4001.6724
    630206.89648    495577.53943  24529807.3164   24529804.0314
     -1488.4064
  -2068469.30448  -1603499.16445  23564732.3554   23564726.0354
     -1396.4224
   2332991.04249   1815287.47946  21834101.1914   21834096.4534
     -1049.6874
  -7116885.49449  -5545674.07645  23247325.2464   23247320.2074
      1235.4384
 04  9  9 22 44 30.0040000  0  7G 3G 8G13G10G19G27G28
  11835066.83747   9218590.35742  25230159.3944   25230156.1294
     -3679.0314
  -5199121.89449  -4050071.30747  21813595.6444   21813590.9534
        94.5164
  15491953.96448  12064069.24345  23041498.6054   23041494.3834
     -4007.8594
    652606.63048    513031.88043  24534070.0824   24534067.0704
     -1497.7194
  -2047446.09148  -1587117.44445  23568732.5514   23568726.7734
     -1406.1564
   2348768.57349   1827581.65846  21837103.4184   21837098.9774
     -1053.5474
  -7135374.10949  -5560080.75845  23243806.7154   23243802.2234
      1230.2504
 04  9  9 22 44 45.0040000  0  7G 3G 8G13G10G19G27G28
  11890299.82747   9261629.02342  25240669.6374   25240667.2814
     -3685.5784
  -5200512.62649  -4051154.99547  21813330.9104   21813326.5124
        90.6414
  15552112.49948  12110945.99445  23052946.4024   23052942.1374
     -4013.6254
    675138.24048    530588.96243  24538357.8244   24538354.7624
     -1506.7504
  -2026286.05349  -1570629.07145  23572759.4184   23572752.8124
     -1415.5474
   2364596.21149   1839914.88546  21840115.4804   21840110.8244
     -1057.1094
  -7153792.81949  -5574432.97545  23240301.7384   23240297.5084
      1225.2664
 04  9  9 22 45  0.0040000  0  7G 3G 8G13G10G19G27G28
  11945626.97047   9304741.06542  25251198.1444   25251196.3484
     -3691.8594
  -5201847.63149  -4052195.25347  21813076.8484   21813072.4734
        86.8134
  15612354.68248  12157887.92445  23064410.2854   23064405.7544
     -4019.2344
    697801.80848    548248.90243  24542670.4264   24542667.7544
     -1515.5474
  -2004988.86549  -1554033.86845  23576811.9884   23576805.9374
     -1424.6564
   2380474.30549   1852287.41646  21843137.0274   21843132.3014
     -1060.4694
  -7172141.17648  -5588730.37945  23236810.3164   23236805.3834
      1220.5474
 04  9  9 22 45 15.0040000  0  7G 3G 8G13G10G19G27G28
  12001057.06647   9347933.38842  25261746.0194   25261743.8094
     -3699.0164
  -5203117.77849  -4053184.97347  21812835.1134   21812830.5274
        82.2974
  15672689.22548  12204901.83145  23075891.0984   23075887.1174
     -4025.6094
    720606.31548    566018.61543  24547009.9884   24547006.5084
     -1525.2194
  -1983545.54249  -1537324.77245  23580892.5434   23580886.3324
     -1434.6414
   2396411.92649   1864706.34846  21846169.8324   21846165.1174
     -1064.7504
  -7190410.16949  -5602965.91745  23233333.9344   23233329.0354
      1215.0784
 04  9  9 22 45 30.0040000  0  7G 3G 8G13G10G19G27G28
  12056581.34747   9391199.03742  25272311.7624   25272309.9964
     -3704.8124
  -5204331.29849  -4054130.56547  21812604.4414   21812600.0864
        78.9534
  15733107.65848  12251981.10045  23087388.5824   23087384.3674
     -4030.6254
    743543.26748    583891.57443  24551374.8714   24551371.2774
     -1533.6254
  -1961964.33449  -1520508.24945  23585000.0514   23584993.1764
     -1443.3914
   2412400.84048   1877165.23446  21849212.6844   21849207.5234
     -1067.7034
  -7208607.95649  -5617145.99545  23229871.2074   23229866.7114
      1210.7194
 04  9  9 22 45 45.0040000  0  7G 3G 8G13G10G19G27G28
  12112203.94947   9434541.27742  25282896.9574   25282894.2894
     -3711.1564
  -5205483.72849  -4055028.54347  21812385.0514   21812380.3714
        75.0474
  15793614.07948  12299128.91945  23098902.9804   23098898.2734
     -4036.3754
    766616.86048    601870.96843  24555765.5194   24555762.1844
     -1542.5474
  -1940241.01349  -1503580.98045  23589133.7694   23589127.2584
     -1452.6724
   2428445.36349   1889667.47146  21852265.5044   21852260.6444
     -1071.1414
  -7226730.19049  -5631267.17645  23226422.6054   23226417.5234
      1205.9694
 04  9  9 22 46  0.0040000  0  6G 8G13G10G19G27G28
  -5206583.14649  -4055885.23347  21812175.9574   21812171.5164
        71.6254
  15854200.28249  12346338.91445  23110431.7234   23110428.0084
     -4041.5944
    789819.04548    619950.57843  24560180.4964   24560177.9184
     -1550.9064
  -1918383.50049  -1486549.14645  23593292.8634   23593286.8404
     -1461.5004
   2444537.80349   1902207.02446  21855327.9104   21855322.9734
     -1074.3284
  -7244784.66149  -5645335.58145  23222986.8164   23222981.9144
      1201.4844
 04  9  9 22 46 15.0040000  0  6G 8G13G10G19G27G28
  -5207625.57349  -4056697.50147  21811977.2384   21811973.2774
        67.2814
  15914869.57649  12393613.64545  23121976.9024   23121972.3834
     -4047.6724
    813153.28248    638133.09843  24564620.9574   24564618.0474
     -1560.3444
  -1896388.26449  -1469409.98945  23597478.3484   23597472.2384
     -1471.2344
   2460681.85449   1914786.81247  21858399.8874   21858395.3014
     -1078.3124
  -7262767.71649  -5659348.31645  23219564.8094   23219560.0664
      1196.1884
 04  9  9 22 46 30.0040000  0  6G 8G13G10G19G27G28
  -5208601.90849  -4057458.27547  21811791.3944   21811787.5354
        62.7194
  15975630.58848  12440959.86245  23133539.6214   23133535.3444
     -4053.9374
    836628.30148    656425.31543  24569088.3324   24569085.1564
     -1569.8444
  -1874246.37749  -1452156.55945  23601692.0824   23601685.7694
     -1481.1414
   2476886.38649   1927413.72246  21861483.5904   21861479.0474
     -1082.4534
  -7280670.43149  -5673298.46045  23216157.8404   23216153.1604
      1190.6884
 04  9  9 22 46 45.0040000  0  6G 8G13G10G19G27G28
  -5209518.85749  -4058172.77347  21811617.0824   21811612.8164
        59.2974
  16036476.64848  12488372.33845  23145118.0664   23145113.3164
     -4059.1564
    860237.36048    674821.98343  24573581.1374   24573577.7034
     -1578.2664
  -1851964.50849  -1434794.05645  23605931.9494   23605925.8714
     -1490.0474
   2493144.83248   1940082.64546  21864577.5354   21864572.4844
     -1085.5944
  -7298499.30649  -5687191.06945  23212765.0904   23212760.3984
      1186.2194
 04  9  9 22 47  0.0040000  0  6G 8G13G10G19G27G28
  -5210378.14849  -4058842.35147  21811453.4804   21811449.4024
        55.4384
  16097405.71448  12535849.49545  23156712.5434   23156708.1844
     -4064.5944
    883978.62248    693321.65243  24578098.2624   24578095.7734
     -1587.0624
  -1829544.41349  -1417323.85445  23610198.6444   23610192.1334
     -1499.2034
   2509455.78549   1952792.47546  21867681.2854   21867676.5704
     -1089.0164
  -7316256.03748  -5701027.45545  23209386.1684   23209381.7544
      1181.4384
 04  9  9 22 47 15.0040000  0  6G 8G13G10G19G27G28
  -5211174.68149  -4059463.01547  21811301.6994   21811297.8524
        50.5634
  16158422.40948  12583394.92945  23168323.5594   23168319.3754
     -4071.1564
    907856.86048    711928.04943  24582641.9574   24582640.1804
     -1596.9534
  -1806981.19549  -1399742.12245  23614491.9184   23614485.9774
     -1509.5004
   2525824.03149   1965546.95246  21870795.8014   21870791.0314
     -1093.6254
  -7333935.56249  -5714803.67745  23206021.8244   23206017.1214
      1175.5314
 04  9  9 22 47 30.0040000  0  6G 8G13G10G19G27G28
  -5211909.48149  -4060035.59247  21811162.0664   21811157.1334
        47.8594
  16219525.20448  12631007.48445  23179950.9184   23179946.5744
     -4075.4064
    931870.63048    730640.09243  24587211.8324   24587209.4534
     -1604.4844
  -1784276.04249  -1382049.79545  23618812.6294   23618806.3914
     -1517.4534
   2542248.53849   1978345.27246  21873921.5044   21873916.3874
     -1095.9374
  -7351539.09449  -5728520.70045  23202671.8554   23202667.0984
      1172.0004
 04  9  9 22 47 45.0040000  0  6G 8G13G10G19G27G28
  -5212585.13349  -4060562.06347  21811033.4414   21811028.8874
        43.0784
  16280711.32948  12678684.95445  23191594.4184   23191590.6374
     -4081.9064
    956017.31448    749455.68343  24591806.6604   24591803.9774
     -1614.2034
  -1761431.55449  -1364248.88745  23623159.8164   23623153.5394
     -1527.6874
   2558726.86149   1991185.51946  21877057.2544   21877052.5234
     -1100.3914
  -7369069.00449  -5742180.34045  23199335.7694   23199331.1874
      1166.1564
 04  9  9 22 48  0.0040000  0  6G 8G13G10G19G27G28
  -5213197.99449  -4061039.61047  21810916.9104   21810912.3944
        38.9844
  16341984.08648  12726429.91745  23203254.3164   23203249.9064
     -4087.4694
    980300.08048    768377.30443  24596427.8244   24596424.4844
     -1623.2344
  -1738444.28449  -1346336.71745  23627533.5044   23627527.6484
     -1537.0624
   2575262.42549   2004070.37746  21880203.8634   21880198.7074
     -1104.0624
  -7386521.87149  -5755779.96345  23196014.8404   23196009.7504
      1161.1414
 04  9  9 22 48 15.0040000  0  6G 8G13G10G19G27G28
  -5213750.48649  -4061470.11247  21810811.8404   21810807.6874
        34.6094
  16403340.75049  12774240.27245  23214929.9654   23214925.7544
     -4093.4844
   1004716.41348    787402.98543  24601074.1604   24601070.9064
     -1632.4064
  -1715316.83449  -1328315.32845  23631935.0434   23631928.7114
     -1546.7194
   2591852.88449   2016998.00246  21883360.8094   21883356.0124
     -1108.0944
  -7403900.01549  -5769321.34945  23192707.5984   23192702.6644
      1155.8284
 04  9  9 22 48 30.0040000  0  6G 8G13G10G19G27G28
  -5214232.89449  -4061846.00447  21810720.1294   21810715.6874
        29.7344
  16464790.75748  12822123.36845  23226623.6914   23226619.5194
     -4099.8594
   1029275.75148    806540.14443  24605747.6994   24605744.9374
     -1642.1414
  -1692039.55549  -1310177.18745  23636364.5824   23636358.4614
     -1556.8914
   2608508.10849   2029976.10146  21886530.3484   21886525.5514
     -1112.5944
  -7421193.74249  -5782796.95845  23189417.1054   23189411.9224
      1150.0634
 04  9  9 22 48 45.0040000  0  6G 8G13G10G19G27G28
  -5214649.63149  -4062170.73547  21810640.7544   21810636.2274
        25.4064
  16526329.37648  12870075.50245  23238333.7854   23238329.4224
     -4105.6874
   1053973.44448    825785.08543  24610447.5744   24610444.8754
     -1651.2974
  -1668617.01549  -1291925.84945  23640821.6994   23640815.5944
     -1566.4374
   2625223.49749   2043001.08546  21889710.9734   21889706.1804
     -1116.5004
  -7438407.51249  -5796210.25845  23186141.2234   23186136.2384
      1144.7664
 04  9  9 22 49  0.0040000  0  6G 8G13G10G19G27G28
  -5214998.95449  -4062442.92347  21810574.5904   21810569.9884
        20.9534
  16587958.05949  12918097.82345  23250061.4964   23250057.7624
     -4111.7344
   1078811.17548    845139.14743  24615174.4804   24615171.5554
     -1660.6564
  -1645047.38749  -1273559.90145  23645306.5824   23645300.5164
     -1576.3444
   2642000.95449   2056074.44146  21892903.9184   21892899.1844
     -1120.6564
  -7455539.51249  -5809559.84145  23182880.9344   23182876.2154
      1139.2504
 04  9  9 22 49 15.0040000  0  6G 8G13G10G19G27G28
  -5215279.49349  -4062661.51647  21810520.8554   21810516.6444
        16.4224
  16649677.74449  12966191.04545  23261806.7544   23261802.0944
     -4117.7194
   1103789.87848    864603.08343  24619927.8484   24619924.0354
     -1669.9064
  -1621329.65449  -1255078.55645  23649820.4804   23649813.9494
     -1586.1564
   2658841.77049   2069197.14746  21896108.5514   21896104.1954
     -1124.8754
  -7472588.45749  -5822844.72045  23179636.7854   23179631.7344
      1133.7814
 04  9  9 22 49 30.0040000  0  6G 8G13G10G19G27G28
  -5215494.54249  -4062829.09347  21810480.1054   21810475.6054
        11.7974
  16711484.72648  13014352.30345  23273568.0044   23273564.0554
     -4123.6564
   1128905.88047    884173.96043  24624707.1684   24624703.7344
     -1679.3444
  -1597467.35948  -1236484.55945  23654360.7074   23654354.8444
     -1595.9844
   2675742.46349   2082366.50747  21899324.8324   21899319.8984
     -1129.1254
  -7489557.78149  -5836067.55745  23176407.4024   23176402.4264
      1128.2814
 04  9  9 22 49 45.0040000  0  6G 8G13G10G19G27G28
  -5215644.50649  -4062945.92847  21810451.5044   21810447.2974
         7.8754
  16773378.36448  13062581.07745  23285346.1374   23285341.9574
     -4129.0314
   1154158.72148    903851.51343  24629512.5824   24629509.0784
     -1688.0624
  -1573460.80748  -1217778.15745  23658929.0594   23658922.8404
     -1605.1724
   2692702.91649   2095582.46346  21902552.4264   21902547.2114
     -1132.6254
  -7506447.72249  -5849228.52145  23173193.5044   23173188.5624
      1123.4534
 04  9  9 22 50  0.0040000  0  6G 8G13G10G19G27G28
  -5215727.89749  -4063010.91347  21810435.3094   21810431.2624
         3.3134
  16835359.84448  13110878.29645  23297140.8484   23297136.4104
     -4135.0944
   1179549.68048    923636.65043  24634343.8794   24634341.0864
     -1697.3594
  -1549308.58049  -1198958.23945  23663525.5514   23663518.7774
     -1615.0314
   2709724.52949   2108846.04946  21905791.2544   21905786.9494
     -1136.9064
  -7523256.88149  -5862326.53945  23169994.6214   23169990.0784
      1117.8594
 04  9  9 22 50 15.0040000  0  6G 8G13G10G19G27G28
  -5215745.79549  -4063024.83747  21810432.0514   21810427.8594
        -1.0314
  16897427.65648  13159242.79945  23308951.5194   23308947.3794
     -4140.7504
   1205077.33648    943528.34343  24639201.5124   24639198.8914
     -1706.4534
  -1525011.99949  -1180025.82745  23668149.0514   23668142.8944
     -1624.6414
   2726806.07049   2122156.35846  21909041.5194   21909036.9654
     -1140.7974
  -7539986.43249  -5875362.52745  23166811.0354   23166806.6604
      1112.6564
 04  9  9 22 50 30.0040000  0  6G 8G13G10G19G27G28
  -5215701.04849  -4062989.97547  21810440.8014   21810436.3444
        -5.5314
  16959578.61548  13207672.08645  23320778.8944   23320774.7544
     -4146.6874
   1230738.56748    963524.09343  24644084.7854   24644082.0044
     -1715.6564
  -1500574.06849  -1160983.29745  23672799.4344   23672793.0314
     -1634.3754
   2743944.80549   2135511.20946  21912303.0984   21912298.0824
     -1144.9374
  -7556639.18449  -5888338.68245  23163642.3014   23163637.4924
      1107.1254
 04  9  9 22 50 45.0040000  0  6G 8G13G10G19G27G28
  -5215587.70149  -4062901.64147  21810462.0514   21810457.4144
        -9.8914
  17021818.27749  13256170.49545  23332622.1214   23332618.6874
     -4152.2974
   1256539.08948    983628.38043  24648994.5984   24648991.5004
     -1724.7664
  -1475989.12049  -1141826.18645  23677477.4494   23677471.1524
     -1643.9844
   2761146.62749   2148915.21646  21915576.5354   21915571.9774
     -1148.9844
  -7573209.30749  -5901250.44545  23160489.3094   23160484.2274
      1101.8754
 04  9  9 22 51  0.0040000  0  6G 8G13G10G19G27G28
  -5215407.19749  -4062760.96847  21810496.1294   21810491.5744
       -14.5314
  17084144.89048  13304736.64045  23344483.0194   23344479.4414
     -4158.2194
   1282477.13348   1003839.84043  24653930.6604   24653927.1374
     -1734.0164
  -1451258.65849  -1122555.68945  23682183.6054   23682177.5624
     -1653.8124
   2778410.02049   2162367.22846  21918861.5594   21918856.9374
     -1153.2034
  -7589698.23549  -5914098.92645  23157351.3714   23157346.3674
      1096.3444
 04  9  9 22 51 15.0040000  0  6G 8G13G10G19G27G28
  -5215155.71249  -4062565.01647  21810544.3164   21810539.9184
       -19.2344
  17146562.00848  13353373.32245  23356360.6524   23356356.5784
     -4164.2344
   1308556.36548   1024161.31743  24658893.3484   24658890.4344
     -1743.3914
  -1426378.88548  -1103168.84545  23686917.6214   23686911.9104
     -1663.6254
   2795738.94949   2175870.28447  21922159.5904   21922154.6874
     -1157.5314
  -7606102.06149  -5926881.11045  23154229.9804   23154224.9884
      1090.7034
 04  9  9 22 51 30.0040000  0  6G 8G13G10G19G27G28
  -5214839.47949  -4062318.58547  21810604.7234   21810600.1724
       -23.4694
  17209063.01448  13402075.37045  23368253.9964   23368250.2854
     -4169.7194
   1334770.23147   1044587.69743  24663881.4264   24663878.9614
     -1752.2194
  -1401356.20448  -1083670.65645  23691679.7234   23691673.5664
     -1673.2034
   2813127.08549   2189419.46846  21925468.0984   21925463.2854
     -1161.3754
  -7622427.10849  -5939601.91145  23151123.4264   23151118.4964
      1085.5004
 04  9  9 22 51 45.0040000  0  6G 8G13G10G19G27G28
  -5214457.40049  -4062020.86247  21810677.3634   21810672.7584
       -27.4064
  17271648.60248  13450843.32645  23380163.7624   23380159.8634
     -4174.8914
   1361119.59848   1065119.64343  24668895.5984   24668892.8164
     -1760.7974
  -1376189.58649  -1064060.30645  23696468.9184   23696462.7034
     -1682.2974
   2830575.60349   2203015.72146  21928788.0664   21928783.6294
     -1164.9374
  -7638672.25649  -5952260.44445  23148032.0044   23148027.5044
      1080.5944
 04  9  9 22 52  0.0040000  0  6G 8G13G10G19G27G28
  -5214009.75349  -4061672.03147  21810762.6294   21810758.2194
       -32.4694
  17334318.21048  13499676.75145  23392089.2304   23392085.8674
     -4181.2194
   1387603.86848   1085756.75343  24673935.5124   24673932.7274
     -1770.4844
  -1350879.65849  -1044338.28245  23701285.6054   23701278.7304
     -1692.5624
   2848084.13149   2216658.73446  21932120.0124   21932115.4344
     -1169.7034
  -7654838.03749  -5964857.13445  23144955.5824   23144951.0744
      1074.6724
 04  9  9 22 52 15.0040000  0  6G 8G13G10G19G27G28
  -5213493.20449  -4061269.51447  21810860.8244   21810856.3094
       -36.4064
  17397074.73048  13548577.90045  23404031.6994   23404027.7074
     -4186.3124
   1414225.90148   1106501.17943  24679001.3484   24678998.7584
     -1779.1414
  -1325423.33749  -1024502.17145  23706129.1294   23706122.8834
     -1701.6724
   2865655.83849   2230350.97746  21935463.9024   21935459.4374
     -1173.2974
  -7670921.11348  -5977389.37645  23141895.2694   23141890.6954
      1069.7344
 04  9  9 22 52 30.0040000  0  6G 8G13G10G19G27G28
  -5212912.92749  -4060817.34747  21810971.5044   21810966.6644
       -41.2194
  17459912.86348  13597542.65245  23415989.1994   23415985.6174
     -4192.4064
   1440980.50048   1127348.91543  24684092.2544   24684089.7974
     -1788.5004
  -1299825.66648  -1004555.94345  23711000.4804   23710993.7424
     -1711.6564
   2883285.81049   2244088.60846  21938818.6604   21938813.8284
     -1177.7034
  -7686926.45149  -5989861.04445  23138849.5194   23138844.6844
      1063.9844
 04  9  9 22 52 45.0040000  0  6G 8G13G10G19G27G28
  -5212267.59849  -4060314.49247  21811094.1764   21811089.5984
       -45.2814
  17522833.19348  13646571.44845  23427962.8324   23427959.2974
     -4197.4844
   1467868.47547   1148300.56043  24689209.2384   24689206.2934
     -1797.0474
  -1274085.74348   -984498.85745  23715898.1994   23715891.8554
     -1720.8444
   2900975.10449   2257872.48046  21942184.9024   21942179.6294
     -1181.3284
  -7702853.12749  -6002271.42145  23135818.5824   23135813.3324
      1058.9844
 04  9  9 22 53  0.0040000  0  6G 8G13G10G19G27G28
  -5211557.13149  -4059760.87547  21811228.7854   21811224.2424
       -49.5944
  17585835.73048  13695664.30445  23439951.6844   23439947.9734
     -4202.9534
   1494889.80048   1169356.12443  24694351.5124   24694347.9024
     -1805.9374
  -1248203.51149   -964330.87145  23720823.9964   23720817.3944
     -1730.2504
   2918723.97049   2271702.77046  21945562.1294   21945558.1684
     -1185.2974
  -7718700.91549  -6014620.32545  23132802.5514   23132798.3124
      1053.8444
 04  9  9 22 53 15.0040000  0  6G 8G13G10G19G27G28
  -5210780.65849  -4059155.82247  21811376.7464   21811372.5474
       -53.2504
  17648921.09748  13744821.69445  23451956.1054   23451952.8444
     -4207.6874
   1522045.06748   1190516.08143  24699518.7154   24699515.5234
     -1814.0624
  -1222178.11249   -944051.34145  23725776.1524   23725769.3834
     -1739.1254
   2936533.32449   2285580.18946  21948951.5824   21948946.7544
     -1188.6254
  -7734468.81649  -6026906.97445  23129802.3484   23129797.3834
      1049.2194
 04  9  9 22 53 30.0040000  0  6G 8G13G10G19G27G28
  -5209934.40149  -4058496.39347  21811537.9964   21811533.7034
       -59.0474
  17712092.68448  13794046.26645  23463977.6374   23463973.9104
     -4214.6414
   1549337.84748   1211783.16543  24704712.6134   24704709.4104
     -1824.3594
  -1196006.11549   -923657.57045  23730757.1214   23730750.2464
     -1749.9374
   2954406.92049   2299507.66846  21952352.6054   21952347.8444
     -1193.9844
  -7750153.15549  -6039128.51545  23126817.7074   23126813.1524
      1042.5004
 04  9  9 22 53 45.0040000  0  6G 8G13G10G19G27G28
  -5209018.30049  -4057782.54747  21811711.9884   21811707.4694
       -63.4534
  17775350.19148  13843337.81444  23476014.9654   23476011.1684
     -4220.0474
   1576767.97448   1233157.26543  24709932.5194   24709929.0164
     -1833.3284
  -1169687.46049   -903149.54245  23735764.6914   23735758.1954
     -1759.5474
   2972344.84349   2313485.27246  21955765.9024   21955760.9654
     -1198.0164
  -7765753.91949  -6051284.94545  23123848.6444   23123844.2854
      1037.2034
 04  9  9 22 54  0.0040000  0  6G 8G13G10G19G27G28
  -5208031.85149  -4057013.86947  21811900.0124   21811895.7894
       -68.1874
  17838693.29848  13892696.03845  23488068.6684   23488065.1374
     -4225.8594
   1604335.31448   1254638.32043  24715178.0744   24715174.4494
     -1842.5164
  -1143222.26249   -882527.28945  23740800.9264   23740794.9024
     -1769.3284
   2990347.14149   2327513.03746  21959192.0594   21959187.2734
     -1202.4224
  -7781271.00649  -6063376.16245  23120895.7154   23120891.3054
      1031.5634
 04  9  9 22 54 15.0040000  0  6G 8G13G10G19G27G28
  -5206978.34149  -4056192.94647  21812100.3484   21812095.7074
       -72.3124
  17902118.78548  13942118.44844  23500138.8094   23500134.6724
     -4230.9064
   1632036.49748   1276223.64443  24720449.6374   24720446.9774
     -1851.0164
  -1116613.54749   -861793.23045  23745864.3164   23745858.0594
     -1778.5314
   3008411.05149   2341588.80546  21962629.2234   21962624.5944
     -1206.1094
  -7796707.41349  -6075404.49745  23117958.6684   23117954.3054
      1026.5314
 04  9  9 22 54 30.0040000  0  6G 8G13G10G19G27G28
  -5205861.49349  -4055322.67247  21812312.5904   21812308.3164
       -76.8914
  17965622.65248  13991601.95145  23512222.9344   23512219.0744
     -4236.5944
   1659867.58748   1297910.20443  24725745.5354   24725742.7464
     -1860.0314
  -1089865.22248   -840950.38645  23750954.4414   23750948.6334
     -1788.2664
   3026532.70049   2355709.57846  21966077.9804   21966072.9964
     -1210.4064
  -7812066.83949  -6087372.87745  23115035.6914   23115030.7424
      1021.0314
 04  9  9 22 54 45.0040000  0  6G 8G13G10G19G27G28
  -5204674.77549  -4054397.94847  21812538.7544   21812533.9304
       -80.8594
  18029210.92348  14041151.22645  23524323.4414   23524319.9144
     -4241.4064
   1687834.84948   1319702.84443  24731067.9024   24731064.6024
     -1868.4694
  -1062971.02949   -819993.86345  23756072.2934   23756066.2344
     -1797.2194
   3044718.56249   2369880.38246  21969538.4574   21969533.8054
     -1213.9534
  -7827342.82649  -6099276.22345  23112128.6764   23112123.7154
      1016.2034
 04  9  9 22 55  0.0040000  0  6G 8G13G10G19G27G28
  -5203428.83549  -4053427.07747  21812775.7544   21812771.3834
       -85.7664
  18092872.79948  14090757.85544  23536437.5824   23536433.7114
     -4247.3444
   1715927.35448   1341593.09243  24736413.4184   24736410.4924
     -1877.6414
  -1035941.55749   -798931.93945  23761215.8404   23761209.5354
     -1807.2194
   3062958.24549   2384093.12347  21973009.4104   21973004.7624
     -1218.4844
  -7842546.00349  -6111122.83045  23109235.4184   23109230.2734
      1010.4224
 04  9  9 22 55 15.0040000  0  6G 8G13G10G19G27G28
  -5202109.43549  -4052398.96347  21813027.0594   21813022.7384
       -90.0164
  18156622.06648  14140432.57944  23548568.7934   23548565.3674
     -4252.3914
   1744158.99848   1363591.77943  24741785.5594   24741782.3594
     -1886.3754
  -1008762.89149   -777753.75945  23766388.0594   23766381.5394
     -1816.5164
   3081265.69149   2398358.66146  21976493.0274   21976488.4694
     -1222.3444
  -7857662.30849  -6122901.75045  23106358.9654   23106354.3674
      1005.2504
 04  9  9 22 55 30.0040000  0  6G 8G13G10G19G27G28
  -5200720.73449  -4051316.86147  21813291.5434   21813286.5824
       -94.9844
  18220454.15348  14190171.83744  23560715.5434   23560712.0984
     -4258.3124
   1772525.49048   1385695.51443  24747183.6604   24747180.9844
     -1895.6254
   -981439.32048   -756462.65545  23771587.3794   23771581.1134
     -1826.4844
   3099636.87948   2412673.87446  21979988.8794   21979984.0234
     -1226.9224
  -7872695.82449  -6134616.14646  23103498.4184   23103493.5474
       999.3914
 04  9  9 22 55 45.0040000  0  6G 8G13G10G19G27G28
  -5199258.89749  -4050177.75747  21813569.2624   21813564.6374
       -99.5004
  18284372.35248  14239978.19544  23572878.8714   23572875.3594
     -4263.7344
   1801030.12847   1407906.90743  24752607.7934   24752605.1484
     -1904.6254
   -953967.36748   -735055.94545  23776815.2234   23776808.4064
     -1836.0474
   3118075.33849   2427041.50747  21983497.6914   21983492.8944
     -1231.0944
  -7887642.94049  -6146263.24046  23100653.9414   23100649.0354
       993.9694
 04  9  9 22 56  0.0040000  0  6G 8G13G10G19G27G28
  -5197725.09249  -4048982.56647  21813861.2694   21813857.1874
      -103.8754
  18348375.21848  14289850.49744  23585058.3244   23585054.8834
     -4268.8754
   1829671.35546   1430224.71643  24758058.4024   24758055.3324
     -1913.1414
   -926348.46248   -713534.70945  23782070.7934   23782064.5314
     -1845.3914
   3136580.02449   2441460.74446  21987019.0664   21987014.6954
     -1235.0784
  -7902504.95949  -6157844.01346  23097825.8634   23097821.6214
       988.8284
 04  9  9 22 56 15.0040000  0  6G 8G13G10G19G27G28
  -5196123.27949  -4047734.41647  21814166.1604   21814161.6954
      -109.3914
  18412458.50948  14339785.52844  23597252.6844   23597249.2344
     -4275.3124
   1858445.08647   1452645.80043  24763533.6444   24763530.2114
     -1923.0004
   -898586.56148   -691902.07645  23787353.1604   23787346.8284
     -1855.9844
   3155146.95749   2455928.47146  21990552.3874   21990547.1414
     -1240.2664
  -7917285.69049  -6169361.46045  23095013.5354   23095008.3554
       982.3754
 04  9  9 22 56 30.0040000  0  6G 8G13G10G19G27G28
  -5194456.03049  -4046435.24947  21814483.2384   21814478.8484
      -112.6414
  18476619.21648  14389780.82544  23609462.3944   23609458.7114
     -4279.2664
   1887348.40247   1475167.85743  24769034.0274   24769030.5354
     -1930.4694
   -870684.43748   -670160.14245  23792663.1604   23792657.0944
     -1864.1724
   3173773.53349   2470442.70046  21994096.8794   21994091.6524
     -1243.0944
  -7931987.85649  -6180817.66245  23092215.4884   23092210.2194
       978.2344
 04  9  9 22 56 45.0040000  0  6G 8G13G10G19G27G28
  -5192725.48849  -4045086.77847  21814812.6684   21814808.0314
      -117.5474
  18540854.95048  14439834.60944  23621686.1844   23621682.5164
     -4285.0004
   1916378.96148   1497789.05843  24774557.9104   24774555.1444
     -1939.6724
   -842644.45748   -648310.82245  23797999.0904   23797992.2034
     -1874.0004
   3192457.64249   2485001.74747  21997652.3094   21997647.4024
     -1247.5624
  -7946613.64049  -6192214.35646  23089432.0434   23089426.9774
       972.3914
 04  9  9 22 57  0.0040000  0  6G 8G13G10G19G27G28
  -5190923.72449  -4043682.80047  21815155.4654   21815150.9344
      -122.4694
  18605173.43148  14489952.88744  23633925.5904   23633921.7664
     -4290.6564
   1945544.43047   1520515.38943  24780108.3554   24780105.2734
     -1948.7814
   -814458.77548   -626347.93845  23803362.6214   23803356.1094
     -1883.8444
   3211207.42049   2499611.94846  22001220.1844   22001215.1764
     -1252.1414
  -7961154.97749  -6203545.25045  23086665.0354   23086659.9104
       966.6254
 04  9  9 22 57 15.0040000  0  6G 8G13G10G19G27G28
  -5189056.86549  -4042228.10247  21815510.5514   21815506.2074
      -126.1724
  18669567.84148  14540130.29644  23646179.4574   23646175.6094
     -4294.9694
   1974838.12047   1543341.64043  24785682.5044   24785679.5594
     -1956.7194
   -786133.85448   -604276.57945  23808752.6134   23808746.2624
     -1892.5314
   3230016.38549   2514268.27846  22004799.5044   22004794.6564
     -1255.4534
  -7975618.30249  -6214815.35946  23083912.9344   23083907.7114
       962.1094
 04  9  9 22 57 30.0040000  0  6G 8G13G10G19G27G28
  -5187116.46949  -4040716.07747  21815879.7854   21815875.0784
      -131.3284
  18734046.56448  14590373.42144  23658449.0904   23658445.7304
     -4300.8754
   2004268.53447   1566274.42543  24791283.3094   24791279.5394
     -1966.0314
   -757661.08948   -582089.99645  23814171.2464   23814164.2584
     -1902.6094
   3248893.41049   2528977.66946  22008391.7304   22008387.5124
     -1260.1874
  -7989994.83749  -6226017.81845  23081176.5904   23081171.9884
       955.9844
 04  9  9 22 57 45.0040000  0  6G 8G13G10G19G27G28
  -5185107.28849  -4039150.49547  21816262.4184   21816257.4374
      -136.4374
  18798604.09148  14640677.95844  23670734.4184   23670730.4224
     -4306.6564
   2033830.27248   1589309.51643  24796908.7544   24796904.7814
     -1975.2974
   -729045.75449   -559792.34045  23819616.0984   23819609.5514
     -1912.6414
   3267833.23249   2543735.96446  22011995.9024   22011990.9694
     -1264.9224
  -8004289.77749  -6237156.72446  23078456.6524   23078452.0084
       950.1094
 04  9  9 22 58  0.0040000  0  6G 8G13G10G19G27G28
  -5183027.52849  -4037529.90447  21816658.0664   21816653.1954
      -141.3754
  18863242.17248  14691045.25644  23683034.3324   23683030.9534
     -4312.2664
   2063525.02647   1612448.25543  24802559.3944   24802556.1254
     -1984.5004
   -700286.09548   -537382.22745  23825088.7624   23825082.5194
     -1922.5314
   3286837.91649   2558544.79946  22015612.7304   22015607.7734
     -1269.5314
  -8018501.13849  -6248230.50846  23075752.7854   23075747.9104
       944.2194
 04  9  9 22 58 15.0050000  0  6G 8G13G10G19G27G28
  -5180882.18249  -4035858.17947  21817065.9314   21817061.2674
      -145.2974
  18927959.72048  14741474.49344  23695349.7204   23695345.7634
     -4316.8444
   2093349.43447   1635688.07443  24808234.6034   24808231.8214
     -1992.5474
   -671385.45548   -514862.22445  23830588.3844   23830582.0524
     -1931.3594
   3305903.72649   2573401.28946  22019240.3454   22019235.2084
     -1273.0624
  -8032635.02649  -6259243.88946  23073062.8064   23073058.0564
       939.5004
 04  9  9 22 58 30.0050000  0  6G 8G13G10G19G27G28
  -5178665.25149  -4034130.69447  21817487.8534   21817483.3804
      -150.0624
  18992753.78048  14791963.32544  23707679.5324   23707675.7284
     -4322.1414
   2123305.13647   1659030.15743  24813935.1654   24813932.1924
     -2001.3754
   -642341.86849   -492230.86745  23836115.3374   23836108.9154
     -1941.0004
   3325034.07949   2588308.05746  22022880.7044   22022876.0564
     -1277.4374
  -8046683.62949  -6270190.84346  23070389.5244   23070384.7354
       933.9384
 04  9  9 22 58 45.0050000  0  6G 8G13G10G19G27G28
  -5176390.90649  -4032358.48347  21817921.0404   21817916.4074
      -154.1724
  19057614.02048  14842503.73744  23720022.3994   23720018.8924
     -4326.8124
   2153379.69047   1682464.84542  24819657.7514   24819654.8534
     -2009.5624
   -613167.71649   -469497.75845  23841666.9624   23841660.8844
     -1949.8914
   3344216.11049   2603255.09546  22026531.2434   22026526.1884
     -1281.1094
  -8060662.05749  -6281083.10346  23067729.3994   23067724.5014
       928.9534
 04  9  9 22 59  0.0050000  0  6G 8G13G10G19G27G28
  -5174046.85749  -4030531.94747  21818366.9314   21818362.6424
      -158.7664
  19122552.50048  14893105.12344  23732379.5954   23732376.1494
     -4332.0164
   2183585.08547   1706001.50243  24825406.4934   24825402.4154
     -2018.2974
   -583850.86548   -446653.46745  23847245.4234   23847239.6184
     -1959.4064
   3363462.05049   2618251.93347  22030193.3214   22030188.3924
     -1285.4224
  -8074557.96048  -6291911.06146  23065085.3844   23065079.8994
       923.3594
 04  9  9 22 59 15.0050000  0  6G 8G13G10G19G27G28
  -5171632.53049  -4028650.64147  21818826.1734   21818821.7314
      -163.4224
  19187569.36248  14943767.56244  23744752.2124   23744748.9114
     -4337.1564
   2213921.64947   1729640.38543  24831178.5484   24831175.3924
     -2026.9064
   -554390.93648   -423697.66645  23852851.5874   23852845.4384
     -1968.8754
   3382772.46849   2633299.01546  22033868.2124   22033863.6814
     -1289.5784
  -8088370.83149  -6302674.31646  23062456.9854   23062451.2354
       917.9844
 04  9  9 22 59 30.0050000  0  6G 8G13G10G19G27G28
  -5169145.73149  -4026712.87247  21819299.6424   21819294.8804
      -167.9694
  19252666.24048  14994492.36844  23757139.7434   23757135.7784
     -4342.2664
   2244391.05347   1753382.75843  24836977.4934   24836973.7124
     -2035.5164
   -524786.08948   -400628.94745  23858485.4154   23858479.2124
     -1978.2974
   3402149.49049   2648397.99346  22037555.3294   22037550.4854
     -1293.8594
  -8102098.84449  -6313371.45846  23059844.4384   23059839.5444
       912.5314
 04  9  9 22 59 45.0050000  0  6G 8G13G10G19G27G28
  -5166589.96149  -4024721.35647  21819785.8134   21819781.4464
      -172.9064
  19317839.36948  15045276.59944  23769541.4784   23769538.3604
     -4347.6254
   2274989.64847   1777225.81843  24842799.6574   24842797.0324
     -2044.5004
   -495039.96248   -377450.14545  23864146.0174   23864139.8884
     -1988.0474
   3421589.61849   2663546.14346  22041254.4704   22041249.7944
     -1298.3754
  -8115745.26449  -6324005.01146  23057247.6344   23057242.4314
       906.7664
 04  9  9 23  0  0.0050000  0  6G 8G13G10G19G27G28
  -5163963.33349  -4022674.63547  21820285.8454   21820280.9504
      -177.9534
  19383090.19248  15096121.36044  23781958.4934   23781954.7514
     -4353.0314
   2305718.88946   1801170.66243  24848647.2204   24848644.5834
     -2053.3754
   -465151.00548   -354160.06845  23869833.4154   23869827.2904
     -1997.8124
   3441094.67849   2678744.88746  22044966.0014   22044961.5754
     -1302.9224
  -8129308.53549  -6334573.77146  23054666.5794   23054661.6144
       901.0004
 04  9  9 23  0 15.0050000  0  6G 8G13G10G19G27G28
  -5161265.21549  -4020572.19347  21820799.1104   21820794.7634
      -182.1874
  19448419.17148  15147027.01644  23794390.2124   23794386.0564
     -4357.7504
   2336579.27447   1825217.70943  24854519.6814   24854516.7004
     -2061.6564
   -435118.56848   -330758.15745  23875548.2354   23875541.8494
     -2006.8754
   3460665.37649   2693994.77946  22048690.3294   22048685.3954
     -1306.8444
  -8142787.82049  -6345077.10046  23052101.5094   23052096.7284
       895.8594
 04  9  9 23  0 30.0050000  0  6G 8G13G10G19G27G28
  -5158501.78449  -4018418.85947  21821325.0244   21821320.9114
      -186.0004
  19513819.99148  15197988.66344  23806835.6104   23806832.5714
     -4362.0944
   2367564.44146   1849361.97143  24860416.5484   24860413.2554
     -2069.4534
   -404948.84848   -307249.28945  23881289.9234   23881283.6144
     -2015.5004
   3480295.75849   2709291.18446  22052426.1184   22052421.1034
     -1310.2504
  -8156189.14448  -6355519.66946  23049551.2434   23049546.2784
       891.2344
 04  9  9 23  0 45.0050000  0  6G 8G13G10G19G27G28
  -5155670.19949  -4016212.42847  21821863.7744   21821859.3724
      -191.0474
  19579294.61048  15249007.81944  23819295.2744   23819291.6304
     -4367.4064
   2398676.45747   1873605.08543  24866336.3534   24866333.9114
     -2078.4224
   -374639.71848   -283631.78445  23887057.2674   23887050.8884
     -2025.1724
   3499988.23349   2724635.97646  22056173.1814   22056167.9354
     -1314.8284
  -8169510.21049  -6365899.69446  23047016.1264   23047011.2704
       885.5004
 04  9  9 23  1  0.0050000  0  6G 8G13G10G19G27G28
  -5152766.09949  -4013949.48147  21822416.5794   21822411.9704
      -195.5474
  19644847.09748  15300087.63544  23831769.4384   23831766.1734
     -4372.2974
   2429919.41346   1897950.25343  24872281.7044   24872279.1964
     -2086.7194
   -344186.90448   -259902.31945  23892852.3604   23892845.8804
     -2034.5164
   3519747.33749   2740032.68347  22059933.4384   22059928.6734
     -1319.0624
  -8182746.64348  -6376213.78146  23044497.5174   23044492.4034
       880.0314
 04  9  9 23  1 15.0050000  0  6G 8G13G10G19G27G28
  -5149793.98649  -4011633.54647  21822982.0484   21822977.2864
      -200.9534
  19710472.79848  15351224.51144  23844257.5634   23844254.7124
     -4378.0624
   2461288.76047   1922393.85943  24878251.2594   24878248.6304
     -2096.0004
   -313594.88748   -236064.38145  23898673.8764   23898667.5244
     -2044.7034
   3539568.43349   2755477.68246  22063705.2594   22063700.4194
     -1324.0164
  -8195902.79649  -6386465.31446  23041993.8534   23041988.5994
       873.8284
 04  9  9 23  1 30.0050000  0  6G 8G13G10G19G27G28
  -5146753.04549  -4009263.97647  21823560.8844   21823555.9704
      -204.9694
  19776172.03948  15402418.68244  23856759.9704   23856756.4544
     -4382.4844
   2492784.86648   1946936.26143  24884244.6654   24884242.0094
     -2103.9224
   -282863.13248   -212117.55545  23904521.6884   23904515.8064
     -2053.4534
   3559452.42949   2770971.70847  22067488.9934   22067484.1654
     -1327.7344
  -8208977.97749  -6396653.75246  23039505.7434   23039500.7354
       868.9534
 04  9  9 23  1 45.0050000  0  7G29G 8G13G10G19G27G28
    -94852.40957    -60957.16652  25669379.7674   25669376.9034
      2139.7664
  -5143644.86549  -4006842.01347  21824152.3294   21824147.4744
      -209.3444
  19841942.75348  15453668.55144  23869275.4544   23869272.1574
     -4387.0314
   2524405.69547   1971575.86443  24890261.5874   24890259.0174
     -2112.0474
   -251993.57848   -188063.35545  23910396.1494   23910390.2784
     -2062.4374
   3579397.79149   2786513.54147  22071284.4854   22071279.5244
     -1331.6094
  -8221973.95848  -6406780.45746  23037032.6654   23037027.7704
       863.8754
 04  9  9 23  2  0.0050000  0  7G29G 8G13G10G19G27G28
   -126930.50146    -85953.02242  25663275.7824   25663272.8374
      2137.1564
  -5140470.70849  -4004368.63947  21824756.1104   21824751.7434
      -213.9694
  19907783.40648  15504972.92444  23881805.1034   23881801.0954
     -4391.8754
   2556149.67247   1996311.40242  24896302.9544   24896299.7474
     -2120.5474
   -220987.73848   -163902.96645  23916296.0714   23916289.9814
     -2071.8284
   3599402.97049   2802101.99147  22075091.3844   22075086.9314
     -1335.8124
  -8234892.08948  -6416846.52746  23034574.2984   23034569.3024
       858.4384
 04  9  9 23  2 15.0050000  0  7G29G 8G13G10G19G27G28
   -158969.20546   -110918.18842  25657178.4854   25657175.7394
      2134.1414
  -5137227.05949  -4001841.10147  21825373.5794   21825368.9314
      -218.9374
  19973697.26048  15556334.33044  23894347.6884   23894343.9234
     -4397.0784
   2588020.11447   2021145.53043  24902367.7204   24902364.8924
     -2129.2034
   -189842.16148   -139633.68745  23922222.9234   23922217.1964
     -2081.3754
   3619471.78149   2817740.02546  22078910.5094   22078905.8494
     -1340.3914
  -8247728.72548  -6426849.06846  23032131.3994   23032126.3884
       852.7034
